<?xml version='1.0' encoding='UTF-8'?>
<gpx version="1.1" creator="https://www.komoot.de" xmlns="http://www.topografix.com/GPX/1/1" xmlns:xsi="http://www.w3.org/2001/XMLSchema-instance" xsi:schemaLocation="http://www.topografix.com/GPX/1/1 http://www.topografix.com/GPX/1/1/gpx.xsd">
  <metadata>
    <name>Pommes de Terre Gravel du Centenaire</name>
    <author>
      <link href="https://www.komoot.de">
        <text>komoot</text>
        <type>text/html</type>
      </link>
    </author>
  </metadata>
  <trk>
    <name>Pommes de Terre Gravel du Centenaire</name>
    <trkseg>
      <trkpt lat="48.891602" lon="2.261863">
        <ele>28.686721</ele>
        <time>2023-09-05T19:17:13.652Z</time>
      </trkpt>
      <trkpt lat="48.892245" lon="2.262505">
        <ele>28.686721</ele>
        <time>2023-09-05T19:17:46.527Z</time>
      </trkpt>
      <trkpt lat="48.892131" lon="2.262743">
        <ele>28.684074</ele>
        <time>2023-09-05T19:17:50.337Z</time>
      </trkpt>
      <trkpt lat="48.892131" lon="2.262914">
        <ele>28.679384</ele>
        <time>2023-09-05T19:17:52.447Z</time>
      </trkpt>
      <trkpt lat="48.891621" lon="2.262385">
        <ele>28.653631</ele>
        <time>2023-09-05T19:18:07.176Z</time>
      </trkpt>
      <trkpt lat="48.891190" lon="2.261292">
        <ele>28.618673</ele>
        <time>2023-09-05T19:18:27.856Z</time>
      </trkpt>
      <trkpt lat="48.890968" lon="2.260833">
        <ele>28.844851</ele>
        <time>2023-09-05T19:18:39.460Z</time>
      </trkpt>
      <trkpt lat="48.890760" lon="2.260389">
        <ele>29.248292</ele>
        <time>2023-09-05T19:18:50.599Z</time>
      </trkpt>
      <trkpt lat="48.890711" lon="2.260344">
        <ele>29.312717</ele>
        <time>2023-09-05T19:18:52.578Z</time>
      </trkpt>
      <trkpt lat="48.890587" lon="2.260101">
        <ele>29.540347</ele>
        <time>2023-09-05T19:18:58.806Z</time>
      </trkpt>
      <trkpt lat="48.890711" lon="2.260344">
        <ele>29.767977</ele>
        <time>2023-09-05T19:19:05.189Z</time>
      </trkpt>
      <trkpt lat="48.890647" lon="2.260422">
        <ele>29.860285</ele>
        <time>2023-09-05T19:19:07.476Z</time>
      </trkpt>
      <trkpt lat="48.890368" lon="2.260761">
        <ele>30.262209</ele>
        <time>2023-09-05T19:19:16.530Z</time>
      </trkpt>
      <trkpt lat="48.890240" lon="2.260538">
        <ele>30.481273</ele>
        <time>2023-09-05T19:19:21.290Z</time>
      </trkpt>
      <trkpt lat="48.890204" lon="2.260524">
        <ele>30.523095</ele>
        <time>2023-09-05T19:19:22.357Z</time>
      </trkpt>
      <trkpt lat="48.890272" lon="2.260655">
        <ele>30.646170</ele>
        <time>2023-09-05T19:19:24.995Z</time>
      </trkpt>
      <trkpt lat="48.890240" lon="2.260694">
        <ele>30.690395</ele>
        <time>2023-09-05T19:19:26.141Z</time>
      </trkpt>
      <trkpt lat="48.890147" lon="2.260530">
        <ele>30.843966</ele>
        <time>2023-09-05T19:19:29.720Z</time>
      </trkpt>
      <trkpt lat="48.889996" lon="2.260344">
        <ele>31.053529</ele>
        <time>2023-09-05T19:19:34.845Z</time>
      </trkpt>
      <trkpt lat="48.889964" lon="2.260296">
        <ele>31.102002</ele>
        <time>2023-09-05T19:19:35.937Z</time>
      </trkpt>
      <trkpt lat="48.889627" lon="2.259794">
        <ele>31.610738</ele>
        <time>2023-09-05T19:19:48.589Z</time>
      </trkpt>
      <trkpt lat="48.889472" lon="2.259608">
        <ele>31.823672</ele>
        <time>2023-09-05T19:19:53.511Z</time>
      </trkpt>
      <trkpt lat="48.889435" lon="2.259565">
        <ele>31.873892</ele>
        <time>2023-09-05T19:19:54.577Z</time>
      </trkpt>
      <trkpt lat="48.889165" lon="2.259200">
        <ele>32.263487</ele>
        <time>2023-09-05T19:20:02.435Z</time>
      </trkpt>
      <trkpt lat="48.888908" lon="2.258797">
        <ele>32.694908</ele>
        <time>2023-09-05T19:20:10.820Z</time>
      </trkpt>
      <trkpt lat="48.888434" lon="2.258152">
        <ele>33.647476</ele>
        <time>2023-09-05T19:20:25.629Z</time>
      </trkpt>
      <trkpt lat="48.888094" lon="2.257704">
        <ele>34.321216</ele>
        <time>2023-09-05T19:20:37.857Z</time>
      </trkpt>
      <trkpt lat="48.887845" lon="2.257413">
        <ele>34.791524</ele>
        <time>2023-09-05T19:20:47.357Z</time>
      </trkpt>
      <trkpt lat="48.887310" lon="2.256763">
        <ele>35.711237</ele>
        <time>2023-09-05T19:21:08.734Z</time>
      </trkpt>
      <trkpt lat="48.886401" lon="2.256093">
        <ele>36.931603</ele>
        <time>2023-09-05T19:21:35.382Z</time>
      </trkpt>
      <trkpt lat="48.885997" lon="2.255811">
        <ele>37.418292</ele>
        <time>2023-09-05T19:21:44.201Z</time>
      </trkpt>
      <trkpt lat="48.885284" lon="2.255286">
        <ele>36.521534</ele>
        <time>2023-09-05T19:21:57.947Z</time>
      </trkpt>
      <trkpt lat="48.884970" lon="2.255091">
        <ele>36.137586</ele>
        <time>2023-09-05T19:22:03.394Z</time>
      </trkpt>
      <trkpt lat="48.884915" lon="2.255067">
        <ele>36.072813</ele>
        <time>2023-09-05T19:22:04.275Z</time>
      </trkpt>
      <trkpt lat="48.884244" lon="2.254743">
        <ele>35.317932</ele>
        <time>2023-09-05T19:22:15.082Z</time>
      </trkpt>
      <trkpt lat="48.883701" lon="2.254282">
        <ele>34.840557</ele>
        <time>2023-09-05T19:22:25.424Z</time>
      </trkpt>
      <trkpt lat="48.883398" lon="2.254010">
        <ele>34.570467</ele>
        <time>2023-09-05T19:22:31.764Z</time>
      </trkpt>
      <trkpt lat="48.882922" lon="2.253597">
        <ele>34.149790</ele>
        <time>2023-09-05T19:22:41.923Z</time>
      </trkpt>
      <trkpt lat="48.882390" lon="2.253145">
        <ele>33.925970</ele>
        <time>2023-09-05T19:22:53.576Z</time>
      </trkpt>
      <trkpt lat="48.881513" lon="2.252381">
        <ele>33.700549</ele>
        <time>2023-09-05T19:23:12.735Z</time>
      </trkpt>
      <trkpt lat="48.880674" lon="2.251526">
        <ele>33.809677</ele>
        <time>2023-09-05T19:23:30.436Z</time>
      </trkpt>
      <trkpt lat="48.880077" lon="2.250780">
        <ele>34.022958</ele>
        <time>2023-09-05T19:23:45.571Z</time>
      </trkpt>
      <trkpt lat="48.879423" lon="2.249955">
        <ele>34.945076</ele>
        <time>2023-09-05T19:24:09.888Z</time>
      </trkpt>
      <trkpt lat="48.878518" lon="2.248811">
        <ele>36.908373</ele>
        <time>2023-09-05T19:24:44.627Z</time>
      </trkpt>
      <trkpt lat="48.877650" lon="2.247768">
        <ele>36.497288</ele>
        <time>2023-09-05T19:25:08.506Z</time>
      </trkpt>
      <trkpt lat="48.877151" lon="2.247263">
        <ele>36.114749</ele>
        <time>2023-09-05T19:25:17.784Z</time>
      </trkpt>
      <trkpt lat="48.876388" lon="2.246557">
        <ele>34.241788</ele>
        <time>2023-09-05T19:25:30.906Z</time>
      </trkpt>
      <trkpt lat="48.875995" lon="2.246239">
        <ele>33.095005</ele>
        <time>2023-09-05T19:25:37.422Z</time>
      </trkpt>
      <trkpt lat="48.875332" lon="2.245732">
        <ele>31.259082</ele>
        <time>2023-09-05T19:25:48.574Z</time>
      </trkpt>
      <trkpt lat="48.875332" lon="2.245732">
        <ele>31.259082</ele>
        <time>2023-09-05T19:25:48.581Z</time>
      </trkpt>
      <trkpt lat="48.875358" lon="2.245589">
        <ele>31.128809</ele>
        <time>2023-09-05T19:25:52.768Z</time>
      </trkpt>
      <trkpt lat="48.875338" lon="2.245534">
        <ele>31.073626</ele>
        <time>2023-09-05T19:25:53.550Z</time>
      </trkpt>
      <trkpt lat="48.875317" lon="2.245480">
        <ele>31.018542</ele>
        <time>2023-09-05T19:25:58.623Z</time>
      </trkpt>
      <trkpt lat="48.875272" lon="2.245361">
        <ele>30.898013</ele>
        <time>2023-09-05T19:26:00.285Z</time>
      </trkpt>
      <trkpt lat="48.874665" lon="2.244825">
        <ele>29.960880</ele>
        <time>2023-09-05T19:26:13.077Z</time>
      </trkpt>
      <trkpt lat="48.873526" lon="2.243591">
        <ele>29.107041</ele>
        <time>2023-09-05T19:26:40.653Z</time>
      </trkpt>
      <trkpt lat="48.872942" lon="2.243062">
        <ele>29.287033</ele>
        <time>2023-09-05T19:26:57.544Z</time>
      </trkpt>
      <trkpt lat="48.872748" lon="2.242931">
        <ele>29.343238</ele>
        <time>2023-09-05T19:27:03.041Z</time>
      </trkpt>
      <trkpt lat="48.872641" lon="2.242890">
        <ele>29.372454</ele>
        <time>2023-09-05T19:27:05.775Z</time>
      </trkpt>
      <trkpt lat="48.872533" lon="2.242725">
        <ele>29.412994</ele>
        <time>2023-09-05T19:27:09.750Z</time>
      </trkpt>
      <trkpt lat="48.872499" lon="2.242619">
        <ele>29.473427</ele>
        <time>2023-09-05T19:27:11.663Z</time>
      </trkpt>
      <trkpt lat="48.872473" lon="2.242118">
        <ele>29.755296</ele>
        <time>2023-09-05T19:27:20.013Z</time>
      </trkpt>
      <trkpt lat="48.872437" lon="2.241949">
        <ele>29.854930</ele>
        <time>2023-09-05T19:27:22.935Z</time>
      </trkpt>
      <trkpt lat="48.872069" lon="2.241320">
        <ele>30.327087</ele>
        <time>2023-09-05T19:27:38.063Z</time>
      </trkpt>
      <trkpt lat="48.871683" lon="2.240576">
        <ele>30.858570</ele>
        <time>2023-09-05T19:27:54.667Z</time>
      </trkpt>
      <trkpt lat="48.871470" lon="2.240093">
        <ele>30.976950</ele>
        <time>2023-09-05T19:28:03.293Z</time>
      </trkpt>
      <trkpt lat="48.871204" lon="2.239352">
        <ele>31.032531</ele>
        <time>2023-09-05T19:28:15.149Z</time>
      </trkpt>
      <trkpt lat="48.870817" lon="2.238063">
        <ele>31.125824</ele>
        <time>2023-09-05T19:28:35.205Z</time>
      </trkpt>
      <trkpt lat="48.870626" lon="2.237350">
        <ele>30.855457</ele>
        <time>2023-09-05T19:28:45.823Z</time>
      </trkpt>
      <trkpt lat="48.870373" lon="2.236231">
        <ele>30.402909</ele>
        <time>2023-09-05T19:29:01.016Z</time>
      </trkpt>
      <trkpt lat="48.870327" lon="2.236180">
        <ele>30.369805</ele>
        <time>2023-09-05T19:29:02.121Z</time>
      </trkpt>
      <trkpt lat="48.870270" lon="2.236177">
        <ele>30.336642</ele>
        <time>2023-09-05T19:29:03.236Z</time>
      </trkpt>
      <trkpt lat="48.869951" lon="2.236347">
        <ele>30.140093</ele>
        <time>2023-09-05T19:29:09.807Z</time>
      </trkpt>
      <trkpt lat="48.869729" lon="2.235297">
        <ele>29.795736</ele>
        <time>2023-09-05T19:29:23.677Z</time>
      </trkpt>
      <trkpt lat="48.869920" lon="2.235152">
        <ele>29.697928</ele>
        <time>2023-09-05T19:29:27.805Z</time>
      </trkpt>
      <trkpt lat="48.869937" lon="2.235085">
        <ele>29.676288</ele>
        <time>2023-09-05T19:29:33.633Z</time>
      </trkpt>
      <trkpt lat="48.869425" lon="2.234020">
        <ele>29.278767</ele>
        <time>2023-09-05T19:29:49.443Z</time>
      </trkpt>
      <trkpt lat="48.869425" lon="2.234020">
        <ele>29.278767</ele>
        <time>2023-09-05T19:29:49.443Z</time>
      </trkpt>
      <trkpt lat="48.869103" lon="2.233466">
        <ele>29.855800</ele>
        <time>2023-09-05T19:30:00.126Z</time>
      </trkpt>
      <trkpt lat="48.868710" lon="2.232867">
        <ele>30.602766</ele>
        <time>2023-09-05T19:30:14.654Z</time>
      </trkpt>
      <trkpt lat="48.867838" lon="2.231795">
        <ele>32.001473</ele>
        <time>2023-09-05T19:30:48.609Z</time>
      </trkpt>
      <trkpt lat="48.867678" lon="2.231680">
        <ele>32.180745</ele>
        <time>2023-09-05T19:30:53.116Z</time>
      </trkpt>
      <trkpt lat="48.867624" lon="2.231656">
        <ele>32.237734</ele>
        <time>2023-09-05T19:30:54.692Z</time>
      </trkpt>
      <trkpt lat="48.867510" lon="2.231669">
        <ele>32.353535</ele>
        <time>2023-09-05T19:30:57.570Z</time>
      </trkpt>
      <trkpt lat="48.867484" lon="2.231464">
        <ele>32.492646</ele>
        <time>2023-09-05T19:31:01.748Z</time>
      </trkpt>
      <trkpt lat="48.867442" lon="2.231362">
        <ele>32.572828</ele>
        <time>2023-09-05T19:31:04.333Z</time>
      </trkpt>
      <trkpt lat="48.866735" lon="2.230705">
        <ele>33.412186</ele>
        <time>2023-09-05T19:31:33.669Z</time>
      </trkpt>
      <trkpt lat="48.866726" lon="2.230697">
        <ele>33.422746</ele>
        <time>2023-09-05T19:31:34.032Z</time>
      </trkpt>
      <trkpt lat="48.866740" lon="2.230643">
        <ele>33.461422</ele>
        <time>2023-09-05T19:31:35.288Z</time>
      </trkpt>
      <trkpt lat="48.866470" lon="2.230425">
        <ele>33.367917</ele>
        <time>2023-09-05T19:31:46.188Z</time>
      </trkpt>
      <trkpt lat="48.866448" lon="2.230472">
        <ele>33.350090</ele>
        <time>2023-09-05T19:31:47.535Z</time>
      </trkpt>
      <trkpt lat="48.866264" lon="2.230345">
        <ele>33.255151</ele>
        <time>2023-09-05T19:31:53.808Z</time>
      </trkpt>
      <trkpt lat="48.865888" lon="2.230029">
        <ele>33.053303</ele>
        <time>2023-09-05T19:32:07.204Z</time>
      </trkpt>
      <trkpt lat="48.865544" lon="2.229836">
        <ele>32.881032</ele>
        <time>2023-09-05T19:32:17.846Z</time>
      </trkpt>
      <trkpt lat="48.865432" lon="2.229708">
        <ele>32.815201</ele>
        <time>2023-09-05T19:32:21.832Z</time>
      </trkpt>
      <trkpt lat="48.865015" lon="2.229428">
        <ele>32.559829</ele>
        <time>2023-09-05T19:32:34.547Z</time>
      </trkpt>
      <trkpt lat="48.863998" lon="2.228938">
        <ele>31.642370</ele>
        <time>2023-09-05T19:33:06.779Z</time>
      </trkpt>
      <trkpt lat="48.863841" lon="2.228911">
        <ele>31.506495</ele>
        <time>2023-09-05T19:33:11.278Z</time>
      </trkpt>
      <trkpt lat="48.863786" lon="2.228930">
        <ele>31.457991</ele>
        <time>2023-09-05T19:33:12.893Z</time>
      </trkpt>
      <trkpt lat="48.863734" lon="2.228868">
        <ele>31.401158</ele>
        <time>2023-09-05T19:33:14.788Z</time>
      </trkpt>
      <trkpt lat="48.863495" lon="2.228781">
        <ele>31.189816</ele>
        <time>2023-09-05T19:33:21.837Z</time>
      </trkpt>
      <trkpt lat="48.863289" lon="2.228731">
        <ele>31.138989</ele>
        <time>2023-09-05T19:33:27.996Z</time>
      </trkpt>
      <trkpt lat="48.863183" lon="2.228705">
        <ele>31.173677</ele>
        <time>2023-09-05T19:33:31.212Z</time>
      </trkpt>
      <trkpt lat="48.862869" lon="2.228622">
        <ele>31.276643</ele>
        <time>2023-09-05T19:33:41.360Z</time>
      </trkpt>
      <trkpt lat="48.862457" lon="2.228479">
        <ele>31.413173</ele>
        <time>2023-09-05T19:33:56.051Z</time>
      </trkpt>
      <trkpt lat="48.862028" lon="2.228308">
        <ele>31.556456</ele>
        <time>2023-09-05T19:34:12.100Z</time>
      </trkpt>
      <trkpt lat="48.861823" lon="2.228215">
        <ele>31.625571</ele>
        <time>2023-09-05T19:34:19.755Z</time>
      </trkpt>
      <trkpt lat="48.861419" lon="2.228030">
        <ele>31.817833</ele>
        <time>2023-09-05T19:34:34.586Z</time>
      </trkpt>
      <trkpt lat="48.861249" lon="2.227997">
        <ele>31.913471</ele>
        <time>2023-09-05T19:34:40.962Z</time>
      </trkpt>
      <trkpt lat="48.860889" lon="2.227884">
        <ele>32.118607</ele>
        <time>2023-09-05T19:34:54.463Z</time>
      </trkpt>
      <trkpt lat="48.860605" lon="2.227736">
        <ele>32.286148</ele>
        <time>2023-09-05T19:35:05.460Z</time>
      </trkpt>
      <trkpt lat="48.860511" lon="2.227583">
        <ele>32.363004</ele>
        <time>2023-09-05T19:35:10.367Z</time>
      </trkpt>
      <trkpt lat="48.860371" lon="2.227512">
        <ele>32.445365</ele>
        <time>2023-09-05T19:35:15.577Z</time>
      </trkpt>
      <trkpt lat="48.859727" lon="2.227227">
        <ele>32.574885</ele>
        <time>2023-09-05T19:35:36.494Z</time>
      </trkpt>
      <trkpt lat="48.859343" lon="2.227021">
        <ele>32.377433</ele>
        <time>2023-09-05T19:35:48.613Z</time>
      </trkpt>
      <trkpt lat="48.859155" lon="2.226910">
        <ele>32.279639</ele>
        <time>2023-09-05T19:35:54.651Z</time>
      </trkpt>
      <trkpt lat="48.858611" lon="2.226690">
        <ele>32.006684</ele>
        <time>2023-09-05T19:36:11.972Z</time>
      </trkpt>
      <trkpt lat="48.857873" lon="2.226288">
        <ele>31.553968</ele>
        <time>2023-09-05T19:36:35.520Z</time>
      </trkpt>
      <trkpt lat="48.856586" lon="2.225727">
        <ele>30.656756</ele>
        <time>2023-09-05T19:37:15.154Z</time>
      </trkpt>
      <trkpt lat="48.856345" lon="2.225590">
        <ele>30.587230</ele>
        <time>2023-09-05T19:37:23.161Z</time>
      </trkpt>
      <trkpt lat="48.855498" lon="2.225404">
        <ele>30.478691</ele>
        <time>2023-09-05T19:37:50.272Z</time>
      </trkpt>
      <trkpt lat="48.854864" lon="2.225319">
        <ele>30.397969</ele>
        <time>2023-09-05T19:38:10.450Z</time>
      </trkpt>
      <trkpt lat="48.854412" lon="2.225318">
        <ele>30.357335</ele>
        <time>2023-09-05T19:38:24.931Z</time>
      </trkpt>
      <trkpt lat="48.854412" lon="2.225318">
        <ele>30.357335</ele>
        <time>2023-09-05T19:38:24.937Z</time>
      </trkpt>
      <trkpt lat="48.853895" lon="2.225426">
        <ele>30.317149</ele>
        <time>2023-09-05T19:38:41.245Z</time>
      </trkpt>
      <trkpt lat="48.853506" lon="2.225710">
        <ele>30.283917</ele>
        <time>2023-09-05T19:38:54.858Z</time>
      </trkpt>
      <trkpt lat="48.853436" lon="2.225854">
        <ele>30.274846</ele>
        <time>2023-09-05T19:38:58.488Z</time>
      </trkpt>
      <trkpt lat="48.853212" lon="2.226166">
        <ele>30.251449</ele>
        <time>2023-09-05T19:39:07.986Z</time>
      </trkpt>
      <trkpt lat="48.853230" lon="2.225932">
        <ele>30.308605</ele>
        <time>2023-09-05T19:39:10.749Z</time>
      </trkpt>
      <trkpt lat="48.853211" lon="2.225790">
        <ele>30.400401</ele>
        <time>2023-09-05T19:39:12.549Z</time>
      </trkpt>
      <trkpt lat="48.853155" lon="2.225702">
        <ele>30.477953</ele>
        <time>2023-09-05T19:39:14.061Z</time>
      </trkpt>
      <trkpt lat="48.853019" lon="2.225662">
        <ele>30.611316</ele>
        <time>2023-09-05T19:39:16.522Z</time>
      </trkpt>
      <trkpt lat="48.852833" lon="2.222367">
        <ele>34.842868</ele>
        <time>2023-09-05T19:41:47.777Z</time>
      </trkpt>
      <trkpt lat="48.852735" lon="2.220624">
        <ele>39.546662</ele>
        <time>2023-09-05T19:43:07.843Z</time>
      </trkpt>
      <trkpt lat="48.852707" lon="2.219950">
        <ele>42.640833</ele>
        <time>2023-09-05T19:43:38.797Z</time>
      </trkpt>
      <trkpt lat="48.852701" lon="2.219876">
        <ele>42.982438</ele>
        <time>2023-09-05T19:43:42.213Z</time>
      </trkpt>
      <trkpt lat="48.852375" lon="2.219920">
        <ele>45.261313</ele>
        <time>2023-09-05T19:44:00.053Z</time>
      </trkpt>
      <trkpt lat="48.852273" lon="2.219970">
        <ele>46.007571</ele>
        <time>2023-09-05T19:44:05.732Z</time>
      </trkpt>
      <trkpt lat="48.852232" lon="2.219896">
        <ele>46.450799</ele>
        <time>2023-09-05T19:44:09.634Z</time>
      </trkpt>
      <trkpt lat="48.852198" lon="2.219899">
        <ele>46.687940</ele>
        <time>2023-09-05T19:44:11.485Z</time>
      </trkpt>
      <trkpt lat="48.852165" lon="2.219955">
        <ele>47.032366</ele>
        <time>2023-09-05T19:44:13.645Z</time>
      </trkpt>
      <trkpt lat="48.851851" lon="2.219914">
        <ele>49.226805</ele>
        <time>2023-09-05T19:44:32.352Z</time>
      </trkpt>
      <trkpt lat="48.851797" lon="2.219909">
        <ele>49.603504</ele>
        <time>2023-09-05T19:44:35.059Z</time>
      </trkpt>
      <trkpt lat="48.851286" lon="2.219849">
        <ele>53.434837</ele>
        <time>2023-09-05T19:45:06.024Z</time>
      </trkpt>
      <trkpt lat="48.850845" lon="2.219733">
        <ele>56.988281</ele>
        <time>2023-09-05T19:45:31.000Z</time>
      </trkpt>
      <trkpt lat="48.850119" lon="2.219298">
        <ele>63.184311</ele>
        <time>2023-09-05T19:46:19.306Z</time>
      </trkpt>
      <trkpt lat="48.849948" lon="2.219196">
        <ele>64.642830</ele>
        <time>2023-09-05T19:46:30.638Z</time>
      </trkpt>
      <trkpt lat="48.849577" lon="2.219046">
        <ele>66.850670</ele>
        <time>2023-09-05T19:46:52.670Z</time>
      </trkpt>
      <trkpt lat="48.849499" lon="2.219045">
        <ele>67.223428</ele>
        <time>2023-09-05T19:46:56.668Z</time>
      </trkpt>
      <trkpt lat="48.849447" lon="2.219049">
        <ele>67.472243</ele>
        <time>2023-09-05T19:46:59.254Z</time>
      </trkpt>
      <trkpt lat="48.849421" lon="2.218951">
        <ele>67.804522</ele>
        <time>2023-09-05T19:47:03.420Z</time>
      </trkpt>
      <trkpt lat="48.849110" lon="2.218826">
        <ele>69.341827</ele>
        <time>2023-09-05T19:47:18.773Z</time>
      </trkpt>
      <trkpt lat="48.848574" lon="2.218753">
        <ele>71.913522</ele>
        <time>2023-09-05T19:47:41.665Z</time>
      </trkpt>
      <trkpt lat="48.848609" lon="2.218618">
        <ele>72.369815</ele>
        <time>2023-09-05T19:47:45.030Z</time>
      </trkpt>
      <trkpt lat="48.848594" lon="2.218520">
        <ele>72.686221</ele>
        <time>2023-09-05T19:47:47.423Z</time>
      </trkpt>
      <trkpt lat="48.848534" lon="2.218424">
        <ele>73.102574</ele>
        <time>2023-09-05T19:47:50.827Z</time>
      </trkpt>
      <trkpt lat="48.848453" lon="2.218484">
        <ele>73.533193</ele>
        <time>2023-09-05T19:47:53.378Z</time>
      </trkpt>
      <trkpt lat="48.847969" lon="2.218605">
        <ele>74.241795</ele>
        <time>2023-09-05T19:48:05.847Z</time>
      </trkpt>
      <trkpt lat="48.847375" lon="2.218553">
        <ele>74.352281</ele>
        <time>2023-09-05T19:48:16.434Z</time>
      </trkpt>
      <trkpt lat="48.847056" lon="2.218544">
        <ele>74.411528</ele>
        <time>2023-09-05T19:48:22.239Z</time>
      </trkpt>
      <trkpt lat="48.846331" lon="2.218663">
        <ele>74.384812</ele>
        <time>2023-09-05T19:48:35.582Z</time>
      </trkpt>
      <trkpt lat="48.846105" lon="2.218700">
        <ele>74.243376</ele>
        <time>2023-09-05T19:48:39.750Z</time>
      </trkpt>
      <trkpt lat="48.845970" lon="2.218750">
        <ele>74.156917</ele>
        <time>2023-09-05T19:48:42.080Z</time>
      </trkpt>
      <trkpt lat="48.845899" lon="2.218754">
        <ele>74.112709</ele>
        <time>2023-09-05T19:48:43.346Z</time>
      </trkpt>
      <trkpt lat="48.845457" lon="2.218809">
        <ele>73.836767</ele>
        <time>2023-09-05T19:48:51.072Z</time>
      </trkpt>
      <trkpt lat="48.845364" lon="2.218774">
        <ele>73.777152</ele>
        <time>2023-09-05T19:48:52.713Z</time>
      </trkpt>
      <trkpt lat="48.844636" lon="2.218741">
        <ele>73.239717</ele>
        <time>2023-09-05T19:49:05.642Z</time>
      </trkpt>
      <trkpt lat="48.844492" lon="2.218708">
        <ele>73.034380</ele>
        <time>2023-09-05T19:49:08.100Z</time>
      </trkpt>
      <trkpt lat="48.844437" lon="2.218668">
        <ele>72.948404</ele>
        <time>2023-09-05T19:49:09.190Z</time>
      </trkpt>
      <trkpt lat="48.844359" lon="2.218590">
        <ele>72.816744</ele>
        <time>2023-09-05T19:49:10.859Z</time>
      </trkpt>
      <trkpt lat="48.844331" lon="2.218570">
        <ele>72.773119</ele>
        <time>2023-09-05T19:49:11.395Z</time>
      </trkpt>
      <trkpt lat="48.843933" lon="2.218332">
        <ele>72.170042</ele>
        <time>2023-09-05T19:49:18.285Z</time>
      </trkpt>
      <trkpt lat="48.843716" lon="2.218202">
        <ele>71.841148</ele>
        <time>2023-09-05T19:49:21.838Z</time>
      </trkpt>
      <trkpt lat="48.843578" lon="2.218126">
        <ele>71.634181</ele>
        <time>2023-09-05T19:49:24.118Z</time>
      </trkpt>
      <trkpt lat="48.842982" lon="2.218050">
        <ele>70.847529</ele>
        <time>2023-09-05T19:49:33.579Z</time>
      </trkpt>
      <trkpt lat="48.842596" lon="2.218034">
        <ele>70.788503</ele>
        <time>2023-09-05T19:49:39.747Z</time>
      </trkpt>
      <trkpt lat="48.841578" lon="2.217766">
        <ele>70.630572</ele>
        <time>2023-09-05T19:49:57.535Z</time>
      </trkpt>
      <trkpt lat="48.841324" lon="2.217640">
        <ele>70.589728</ele>
        <time>2023-09-05T19:50:05.455Z</time>
      </trkpt>
      <trkpt lat="48.840798" lon="2.217509">
        <ele>73.157129</ele>
        <time>2023-09-05T19:50:42.521Z</time>
      </trkpt>
      <trkpt lat="48.840749" lon="2.217497">
        <ele>73.431693</ele>
        <time>2023-09-05T19:50:44.493Z</time>
      </trkpt>
      <trkpt lat="48.840695" lon="2.217356">
        <ele>74.025646</ele>
        <time>2023-09-05T19:50:48.925Z</time>
      </trkpt>
      <trkpt lat="48.840624" lon="2.217287">
        <ele>74.491885</ele>
        <time>2023-09-05T19:50:52.587Z</time>
      </trkpt>
      <trkpt lat="48.840550" lon="2.217194">
        <ele>75.023139</ele>
        <time>2023-09-05T19:50:57.304Z</time>
      </trkpt>
      <trkpt lat="48.840102" lon="2.216752">
        <ele>77.978105</ele>
        <time>2023-09-05T19:51:24.007Z</time>
      </trkpt>
      <trkpt lat="48.840317" lon="2.216597">
        <ele>79.294570</ele>
        <time>2023-09-05T19:51:38.327Z</time>
      </trkpt>
      <trkpt lat="48.840119" lon="2.216495">
        <ele>80.451142</ele>
        <time>2023-09-05T19:51:50.378Z</time>
      </trkpt>
      <trkpt lat="48.839791" lon="2.216404">
        <ele>82.542253</ele>
        <time>2023-09-05T19:52:11.591Z</time>
      </trkpt>
      <trkpt lat="48.839732" lon="2.216304">
        <ele>83.099505</ele>
        <time>2023-09-05T19:52:19.123Z</time>
      </trkpt>
      <trkpt lat="48.839788" lon="2.216212">
        <ele>83.619478</ele>
        <time>2023-09-05T19:52:26.028Z</time>
      </trkpt>
      <trkpt lat="48.839965" lon="2.216230">
        <ele>84.737862</ele>
        <time>2023-09-05T19:52:36.472Z</time>
      </trkpt>
      <trkpt lat="48.839955" lon="2.215781">
        <ele>86.601993</ele>
        <time>2023-09-05T19:52:54.838Z</time>
      </trkpt>
      <trkpt lat="48.839936" lon="2.214987">
        <ele>89.898767</ele>
        <time>2023-09-05T19:53:20.447Z</time>
      </trkpt>
      <trkpt lat="48.839928" lon="2.214655">
        <ele>91.277280</ele>
        <time>2023-09-05T19:53:28.314Z</time>
      </trkpt>
      <trkpt lat="48.839917" lon="2.213757">
        <ele>91.219777</ele>
        <time>2023-09-05T19:53:45.792Z</time>
      </trkpt>
      <trkpt lat="48.839913" lon="2.213359">
        <ele>90.877786</ele>
        <time>2023-09-05T19:53:50.764Z</time>
      </trkpt>
      <trkpt lat="48.838153" lon="2.211806">
        <ele>87.334712</ele>
        <time>2023-09-05T19:54:42.312Z</time>
      </trkpt>
      <trkpt lat="48.838140" lon="2.211521">
        <ele>86.921932</ele>
        <time>2023-09-05T19:54:45.332Z</time>
      </trkpt>
      <trkpt lat="48.838094" lon="2.210498">
        <ele>85.746194</ele>
        <time>2023-09-05T19:54:57.837Z</time>
      </trkpt>
      <trkpt lat="48.837789" lon="2.211031">
        <ele>87.087428</ele>
        <time>2023-09-05T19:55:15.790Z</time>
      </trkpt>
      <trkpt lat="48.837638" lon="2.210699">
        <ele>87.853793</ele>
        <time>2023-09-05T19:55:25.960Z</time>
      </trkpt>
      <trkpt lat="48.837462" lon="2.210723">
        <ele>88.363635</ele>
        <time>2023-09-05T19:55:32.717Z</time>
      </trkpt>
      <trkpt lat="48.837351" lon="2.209130">
        <ele>91.779612</ele>
        <time>2023-09-05T19:56:15.881Z</time>
      </trkpt>
      <trkpt lat="48.837265" lon="2.207896">
        <ele>95.504855</ele>
        <time>2023-09-05T19:56:52.502Z</time>
      </trkpt>
      <trkpt lat="48.837342" lon="2.207779">
        <ele>96.001554</ele>
        <time>2023-09-05T19:56:57.005Z</time>
      </trkpt>
      <trkpt lat="48.837391" lon="2.207632">
        <ele>96.496220</ele>
        <time>2023-09-05T19:57:01.630Z</time>
      </trkpt>
      <trkpt lat="48.837407" lon="2.207434">
        <ele>97.095088</ele>
        <time>2023-09-05T19:57:07.168Z</time>
      </trkpt>
      <trkpt lat="48.837389" lon="2.207298">
        <ele>97.511539</ele>
        <time>2023-09-05T19:57:10.893Z</time>
      </trkpt>
      <trkpt lat="48.837287" lon="2.207069">
        <ele>98.341628</ele>
        <time>2023-09-05T19:57:18.521Z</time>
      </trkpt>
      <trkpt lat="48.837193" lon="2.206980">
        <ele>98.846802</ele>
        <time>2023-09-05T19:57:23.047Z</time>
      </trkpt>
      <trkpt lat="48.837045" lon="2.206940">
        <ele>99.500659</ele>
        <time>2023-09-05T19:57:29.132Z</time>
      </trkpt>
      <trkpt lat="48.836900" lon="2.206997">
        <ele>100.145493</ele>
        <time>2023-09-05T19:57:35.325Z</time>
      </trkpt>
      <trkpt lat="48.836800" lon="2.207114">
        <ele>100.688898</ele>
        <time>2023-09-05T19:57:40.317Z</time>
      </trkpt>
      <trkpt lat="48.835517" lon="2.205578">
        <ele>107.740020</ele>
        <time>2023-09-05T19:58:47.980Z</time>
      </trkpt>
      <trkpt lat="48.834626" lon="2.204521">
        <ele>112.695711</ele>
        <time>2023-09-05T19:59:36.021Z</time>
      </trkpt>
      <trkpt lat="48.834019" lon="2.203800">
        <ele>116.030346</ele>
        <time>2023-09-05T20:00:08.551Z</time>
      </trkpt>
      <trkpt lat="48.833282" lon="2.202899">
        <ele>120.056547</ele>
        <time>2023-09-05T20:00:47.809Z</time>
      </trkpt>
      <trkpt lat="48.832909" lon="2.202444">
        <ele>122.092482</ele>
        <time>2023-09-05T20:01:07.028Z</time>
      </trkpt>
      <trkpt lat="48.832713" lon="2.202204">
        <ele>123.040423</ele>
        <time>2023-09-05T20:01:17.055Z</time>
      </trkpt>
      <trkpt lat="48.832617" lon="2.202087">
        <ele>123.493511</ele>
        <time>2023-09-05T20:01:21.973Z</time>
      </trkpt>
      <trkpt lat="48.831809" lon="2.201105">
        <ele>127.302841</ele>
        <time>2023-09-05T20:02:02.517Z</time>
      </trkpt>
      <trkpt lat="48.830767" lon="2.199840">
        <ele>130.457333</ele>
        <time>2023-09-05T20:02:46.139Z</time>
      </trkpt>
      <trkpt lat="48.830799" lon="2.199676">
        <ele>130.654088</ele>
        <time>2023-09-05T20:02:49.183Z</time>
      </trkpt>
      <trkpt lat="48.831013" lon="2.199317">
        <ele>131.211178</ele>
        <time>2023-09-05T20:02:58.308Z</time>
      </trkpt>
      <trkpt lat="48.831914" lon="2.197909">
        <ele>131.441942</ele>
        <time>2023-09-05T20:03:26.193Z</time>
      </trkpt>
      <trkpt lat="48.831831" lon="2.197774">
        <ele>131.358509</ele>
        <time>2023-09-05T20:03:28.646Z</time>
      </trkpt>
      <trkpt lat="48.832039" lon="2.197442">
        <ele>131.151497</ele>
        <time>2023-09-05T20:03:33.883Z</time>
      </trkpt>
      <trkpt lat="48.832131" lon="2.197295">
        <ele>131.059884</ele>
        <time>2023-09-05T20:03:36.027Z</time>
      </trkpt>
      <trkpt lat="48.832131" lon="2.197295">
        <ele>131.059884</ele>
        <time>2023-09-05T20:03:36.111Z</time>
      </trkpt>
      <trkpt lat="48.832131" lon="2.197295">
        <ele>131.059884</ele>
        <time>2023-09-05T20:03:36.111Z</time>
      </trkpt>
      <trkpt lat="48.831818" lon="2.196876">
        <ele>130.746325</ele>
        <time>2023-09-05T20:03:53.955Z</time>
      </trkpt>
      <trkpt lat="48.831120" lon="2.195887">
        <ele>127.092464</ele>
        <time>2023-09-05T20:05:00.322Z</time>
      </trkpt>
      <trkpt lat="48.830880" lon="2.195586">
        <ele>125.901073</ele>
        <time>2023-09-05T20:05:21.953Z</time>
      </trkpt>
      <trkpt lat="48.830675" lon="2.195327">
        <ele>124.880377</ele>
        <time>2023-09-05T20:05:40.543Z</time>
      </trkpt>
      <trkpt lat="48.830646" lon="2.195053">
        <ele>124.181037</ele>
        <time>2023-09-05T20:05:53.259Z</time>
      </trkpt>
      <trkpt lat="48.830586" lon="2.194927">
        <ele>123.734116</ele>
        <time>2023-09-05T20:06:00.351Z</time>
      </trkpt>
      <trkpt lat="48.830334" lon="2.194760">
        <ele>122.130506</ele>
        <time>2023-09-05T20:06:19.511Z</time>
      </trkpt>
      <trkpt lat="48.830379" lon="2.194969">
        <ele>121.286196</ele>
        <time>2023-09-05T20:06:21.665Z</time>
      </trkpt>
      <trkpt lat="48.830328" lon="2.195020">
        <ele>120.930062</ele>
        <time>2023-09-05T20:06:22.441Z</time>
      </trkpt>
      <trkpt lat="48.829573" lon="2.194042">
        <ele>115.142701</ele>
        <time>2023-09-05T20:06:35.145Z</time>
      </trkpt>
      <trkpt lat="48.829453" lon="2.193886">
        <ele>114.221465</ele>
        <time>2023-09-05T20:06:37.227Z</time>
      </trkpt>
      <trkpt lat="48.829420" lon="2.193843">
        <ele>113.967875</ele>
        <time>2023-09-05T20:06:37.785Z</time>
      </trkpt>
      <trkpt lat="48.829259" lon="2.193664">
        <ele>113.170289</ele>
        <time>2023-09-05T20:06:40.598Z</time>
      </trkpt>
      <trkpt lat="48.829051" lon="2.193431">
        <ele>112.583966</ele>
        <time>2023-09-05T20:06:44.120Z</time>
      </trkpt>
      <trkpt lat="48.828831" lon="2.193106">
        <ele>111.887748</ele>
        <time>2023-09-05T20:06:48.481Z</time>
      </trkpt>
      <trkpt lat="48.828743" lon="2.192935">
        <ele>111.563583</ele>
        <time>2023-09-05T20:06:50.585Z</time>
      </trkpt>
      <trkpt lat="48.828648" lon="2.192658">
        <ele>111.097103</ele>
        <time>2023-09-05T20:06:53.761Z</time>
      </trkpt>
      <trkpt lat="48.828465" lon="2.191373">
        <ele>109.407878</ele>
        <time>2023-09-05T20:07:09.050Z</time>
      </trkpt>
      <trkpt lat="48.828279" lon="2.190010">
        <ele>110.343026</ele>
        <time>2023-09-05T20:07:28.197Z</time>
      </trkpt>
      <trkpt lat="48.828065" lon="2.189501">
        <ele>110.748767</ele>
        <time>2023-09-05T20:07:37.703Z</time>
      </trkpt>
      <trkpt lat="48.827950" lon="2.189313">
        <ele>110.921176</ele>
        <time>2023-09-05T20:07:42.385Z</time>
      </trkpt>
      <trkpt lat="48.827810" lon="2.189109">
        <ele>111.119153</ele>
        <time>2023-09-05T20:07:48.458Z</time>
      </trkpt>
      <trkpt lat="48.827737" lon="2.189004">
        <ele>111.546553</ele>
        <time>2023-09-05T20:07:51.702Z</time>
      </trkpt>
      <trkpt lat="48.827661" lon="2.188919">
        <ele>112.135748</ele>
        <time>2023-09-05T20:07:55.029Z</time>
      </trkpt>
      <trkpt lat="48.827520" lon="2.188849">
        <ele>113.061820</ele>
        <time>2023-09-05T20:08:00.655Z</time>
      </trkpt>
      <trkpt lat="48.827401" lon="2.188820">
        <ele>113.814228</ele>
        <time>2023-09-05T20:08:05.526Z</time>
      </trkpt>
      <trkpt lat="48.827077" lon="2.188746">
        <ele>115.859670</ele>
        <time>2023-09-05T20:08:20.503Z</time>
      </trkpt>
      <trkpt lat="48.826972" lon="2.188502">
        <ele>117.057727</ele>
        <time>2023-09-05T20:08:30.385Z</time>
      </trkpt>
      <trkpt lat="48.827053" lon="2.187386">
        <ele>121.672199</ele>
        <time>2023-09-05T20:09:12.666Z</time>
      </trkpt>
      <trkpt lat="48.827124" lon="2.186178">
        <ele>129.652500</ele>
        <time>2023-09-05T20:10:08.203Z</time>
      </trkpt>
      <trkpt lat="48.827169" lon="2.185516">
        <ele>134.306875</ele>
        <time>2023-09-05T20:10:41.926Z</time>
      </trkpt>
      <trkpt lat="48.827058" lon="2.185195">
        <ele>136.842665</ele>
        <time>2023-09-05T20:11:00.695Z</time>
      </trkpt>
      <trkpt lat="48.826914" lon="2.184900">
        <ele>139.411041</ele>
        <time>2023-09-05T20:11:19.410Z</time>
      </trkpt>
      <trkpt lat="48.826772" lon="2.184671">
        <ele>141.597187</ele>
        <time>2023-09-05T20:11:35.391Z</time>
      </trkpt>
      <trkpt lat="48.826717" lon="2.184580">
        <ele>142.357803</ele>
        <time>2023-09-05T20:11:41.431Z</time>
      </trkpt>
      <trkpt lat="48.826071" lon="2.183540">
        <ele>151.161650</ele>
        <time>2023-09-05T20:12:47.560Z</time>
      </trkpt>
      <trkpt lat="48.825520" lon="2.182632">
        <ele>158.517682</ele>
        <time>2023-09-05T20:13:36.783Z</time>
      </trkpt>
      <trkpt lat="48.825383" lon="2.181854">
        <ele>160.742144</ele>
        <time>2023-09-05T20:14:04.383Z</time>
      </trkpt>
      <trkpt lat="48.825327" lon="2.181222">
        <ele>162.503540</ele>
        <time>2023-09-05T20:14:22.532Z</time>
      </trkpt>
      <trkpt lat="48.825232" lon="2.180590">
        <ele>164.294122</ele>
        <time>2023-09-05T20:14:37.658Z</time>
      </trkpt>
      <trkpt lat="48.825082" lon="2.179591">
        <ele>165.937711</ele>
        <time>2023-09-05T20:14:54.328Z</time>
      </trkpt>
      <trkpt lat="48.824853" lon="2.179574">
        <ele>165.995042</ele>
        <time>2023-09-05T20:15:01.498Z</time>
      </trkpt>
      <trkpt lat="48.824688" lon="2.179491">
        <ele>166.038506</ele>
        <time>2023-09-05T20:15:07.168Z</time>
      </trkpt>
      <trkpt lat="48.824541" lon="2.178823">
        <ele>166.154458</ele>
        <time>2023-09-05T20:15:22.024Z</time>
      </trkpt>
      <trkpt lat="48.824416" lon="2.178460">
        <ele>166.221900</ele>
        <time>2023-09-05T20:15:30.689Z</time>
      </trkpt>
      <trkpt lat="48.824394" lon="2.178319">
        <ele>166.245755</ele>
        <time>2023-09-05T20:15:33.632Z</time>
      </trkpt>
      <trkpt lat="48.824381" lon="2.177774">
        <ele>166.294359</ele>
        <time>2023-09-05T20:15:44.863Z</time>
      </trkpt>
      <trkpt lat="48.824295" lon="2.177293">
        <ele>166.231216</ele>
        <time>2023-09-05T20:15:55.094Z</time>
      </trkpt>
      <trkpt lat="48.824167" lon="2.176835">
        <ele>166.168182</ele>
        <time>2023-09-05T20:16:05.541Z</time>
      </trkpt>
      <trkpt lat="48.824203" lon="2.176495">
        <ele>166.124555</ele>
        <time>2023-09-05T20:16:13.050Z</time>
      </trkpt>
      <trkpt lat="48.824175" lon="2.176112">
        <ele>166.075736</ele>
        <time>2023-09-05T20:16:21.484Z</time>
      </trkpt>
      <trkpt lat="48.824071" lon="2.175647">
        <ele>166.013520</ele>
        <time>2023-09-05T20:16:31.721Z</time>
      </trkpt>
      <trkpt lat="48.824117" lon="2.175207">
        <ele>165.872346</ele>
        <time>2023-09-05T20:16:40.751Z</time>
      </trkpt>
      <trkpt lat="48.823993" lon="2.174778">
        <ele>165.259356</ele>
        <time>2023-09-05T20:16:49.539Z</time>
      </trkpt>
      <trkpt lat="48.823918" lon="2.174214">
        <ele>164.506547</ele>
        <time>2023-09-05T20:16:59.874Z</time>
      </trkpt>
      <trkpt lat="48.823833" lon="2.174019">
        <ele>164.200569</ele>
        <time>2023-09-05T20:17:03.965Z</time>
      </trkpt>
      <trkpt lat="48.823602" lon="2.173926">
        <ele>163.725665</ele>
        <time>2023-09-05T20:17:10.257Z</time>
      </trkpt>
      <trkpt lat="48.823504" lon="2.173752">
        <ele>163.426076</ele>
        <time>2023-09-05T20:17:14.133Z</time>
      </trkpt>
      <trkpt lat="48.823446" lon="2.173504">
        <ele>163.081740</ele>
        <time>2023-09-05T20:17:18.626Z</time>
      </trkpt>
      <trkpt lat="48.823343" lon="2.173376">
        <ele>162.817273</ele>
        <time>2023-09-05T20:17:22.157Z</time>
      </trkpt>
      <trkpt lat="48.823298" lon="2.173163">
        <ele>162.524596</ele>
        <time>2023-09-05T20:17:26.015Z</time>
      </trkpt>
      <trkpt lat="48.823180" lon="2.172860">
        <ele>162.405165</ele>
        <time>2023-09-05T20:17:32.322Z</time>
      </trkpt>
      <trkpt lat="48.823191" lon="2.171866">
        <ele>162.458056</ele>
        <time>2023-09-05T20:17:51.581Z</time>
      </trkpt>
      <trkpt lat="48.823158" lon="2.171506">
        <ele>162.477394</ele>
        <time>2023-09-05T20:17:59.974Z</time>
      </trkpt>
      <trkpt lat="48.823164" lon="2.170495">
        <ele>162.531185</ele>
        <time>2023-09-05T20:18:25.627Z</time>
      </trkpt>
      <trkpt lat="48.823184" lon="2.170239">
        <ele>162.759391</ele>
        <time>2023-09-05T20:18:32.957Z</time>
      </trkpt>
      <trkpt lat="48.823273" lon="2.169824">
        <ele>163.427729</ele>
        <time>2023-09-05T20:18:45.047Z</time>
      </trkpt>
      <trkpt lat="48.823287" lon="2.169375">
        <ele>164.116037</ele>
        <time>2023-09-05T20:18:58.247Z</time>
      </trkpt>
      <trkpt lat="48.823235" lon="2.169206">
        <ele>164.401686</ele>
        <time>2023-09-05T20:19:04.272Z</time>
      </trkpt>
      <trkpt lat="48.823155" lon="2.169076">
        <ele>164.674168</ele>
        <time>2023-09-05T20:19:09.929Z</time>
      </trkpt>
      <trkpt lat="48.822908" lon="2.168941">
        <ele>165.284701</ele>
        <time>2023-09-05T20:19:22.869Z</time>
      </trkpt>
      <trkpt lat="48.822740" lon="2.168805">
        <ele>165.727468</ele>
        <time>2023-09-05T20:19:31.926Z</time>
      </trkpt>
      <trkpt lat="48.822652" lon="2.168684">
        <ele>166.003548</ele>
        <time>2023-09-05T20:19:37.548Z</time>
      </trkpt>
      <trkpt lat="48.822553" lon="2.168429">
        <ele>166.456857</ele>
        <time>2023-09-05T20:19:45.816Z</time>
      </trkpt>
      <trkpt lat="48.822555" lon="2.168148">
        <ele>166.613814</ele>
        <time>2023-09-05T20:19:53.602Z</time>
      </trkpt>
      <trkpt lat="48.822616" lon="2.167925">
        <ele>166.377302</ele>
        <time>2023-09-05T20:19:59.554Z</time>
      </trkpt>
      <trkpt lat="48.823027" lon="2.166900">
        <ele>165.201870</ele>
        <time>2023-09-05T20:20:23.113Z</time>
      </trkpt>
      <trkpt lat="48.823041" lon="2.166788">
        <ele>165.090216</ele>
        <time>2023-09-05T20:20:25.233Z</time>
      </trkpt>
      <trkpt lat="48.823000" lon="2.166453">
        <ele>164.756490</ele>
        <time>2023-09-05T20:20:31.126Z</time>
      </trkpt>
      <trkpt lat="48.823120" lon="2.166041">
        <ele>164.315249</ele>
        <time>2023-09-05T20:20:35.379Z</time>
      </trkpt>
      <trkpt lat="48.823246" lon="2.165876">
        <ele>164.067765</ele>
        <time>2023-09-05T20:20:37.754Z</time>
      </trkpt>
      <trkpt lat="48.822558" lon="2.165854">
        <ele>159.388020</ele>
        <time>2023-09-05T20:20:53.958Z</time>
      </trkpt>
      <trkpt lat="48.821823" lon="2.165926">
        <ele>154.289473</ele>
        <time>2023-09-05T20:21:10.290Z</time>
      </trkpt>
      <trkpt lat="48.821676" lon="2.165940">
        <ele>153.269879</ele>
        <time>2023-09-05T20:21:13.464Z</time>
      </trkpt>
      <trkpt lat="48.820142" lon="2.166071">
        <ele>143.642075</ele>
        <time>2023-09-05T20:21:47.912Z</time>
      </trkpt>
      <trkpt lat="48.818529" lon="2.166159">
        <ele>139.948221</ele>
        <time>2023-09-05T20:22:12.293Z</time>
      </trkpt>
      <trkpt lat="48.818437" lon="2.165874">
        <ele>139.836092</ele>
        <time>2023-09-05T20:22:18.085Z</time>
      </trkpt>
      <trkpt lat="48.818405" lon="2.165784">
        <ele>139.799958</ele>
        <time>2023-09-05T20:22:20.029Z</time>
      </trkpt>
      <trkpt lat="48.818345" lon="2.165850">
        <ele>139.760211</ele>
        <time>2023-09-05T20:22:22.201Z</time>
      </trkpt>
      <trkpt lat="48.818316" lon="2.166043">
        <ele>139.690277</ele>
        <time>2023-09-05T20:22:26.290Z</time>
      </trkpt>
      <trkpt lat="48.818267" lon="2.166114">
        <ele>139.653943</ele>
        <time>2023-09-05T20:22:28.627Z</time>
      </trkpt>
      <trkpt lat="48.818133" lon="2.166188">
        <ele>139.587853</ele>
        <time>2023-09-05T20:22:33.493Z</time>
      </trkpt>
      <trkpt lat="48.817797" lon="2.166188">
        <ele>141.039713</ele>
        <time>2023-09-05T20:22:46.188Z</time>
      </trkpt>
      <trkpt lat="48.817588" lon="2.166210">
        <ele>141.944970</ele>
        <time>2023-09-05T20:22:57.071Z</time>
      </trkpt>
      <trkpt lat="48.817503" lon="2.166219">
        <ele>142.313148</ele>
        <time>2023-09-05T20:23:01.661Z</time>
      </trkpt>
      <trkpt lat="48.817143" lon="2.166250">
        <ele>143.871210</ele>
        <time>2023-09-05T20:23:21.602Z</time>
      </trkpt>
      <trkpt lat="48.816780" lon="2.166272">
        <ele>145.440986</ele>
        <time>2023-09-05T20:23:42.027Z</time>
      </trkpt>
      <trkpt lat="48.816412" lon="2.166303">
        <ele>147.033562</ele>
        <time>2023-09-05T20:24:03.272Z</time>
      </trkpt>
      <trkpt lat="48.813955" lon="2.166423">
        <ele>158.297256</ele>
        <time>2023-09-05T20:26:23.194Z</time>
      </trkpt>
      <trkpt lat="48.812303" lon="2.166533">
        <ele>160.299272</ele>
        <time>2023-09-05T20:27:39.579Z</time>
      </trkpt>
      <trkpt lat="48.812079" lon="2.166545">
        <ele>159.227957</ele>
        <time>2023-09-05T20:27:45.251Z</time>
      </trkpt>
      <trkpt lat="48.811889" lon="2.166573">
        <ele>158.315551</ele>
        <time>2023-09-05T20:27:49.741Z</time>
      </trkpt>
      <trkpt lat="48.811726" lon="2.166586">
        <ele>157.535389</ele>
        <time>2023-09-05T20:27:53.562Z</time>
      </trkpt>
      <trkpt lat="48.811130" lon="2.166482">
        <ele>154.667952</ele>
        <time>2023-09-05T20:28:06.855Z</time>
      </trkpt>
      <trkpt lat="48.810422" lon="2.166329">
        <ele>148.538662</ele>
        <time>2023-09-05T20:28:21.970Z</time>
      </trkpt>
      <trkpt lat="48.810403" lon="2.166322">
        <ele>148.346298</ele>
        <time>2023-09-05T20:28:22.378Z</time>
      </trkpt>
      <trkpt lat="48.810365" lon="2.166314">
        <ele>147.968840</ele>
        <time>2023-09-05T20:28:22.827Z</time>
      </trkpt>
      <trkpt lat="48.809599" lon="2.166142">
        <ele>140.350227</ele>
        <time>2023-09-05T20:28:31.968Z</time>
      </trkpt>
      <trkpt lat="48.809548" lon="2.166131">
        <ele>139.843402</ele>
        <time>2023-09-05T20:28:32.597Z</time>
      </trkpt>
      <trkpt lat="48.809530" lon="2.166189">
        <ele>139.427947</ele>
        <time>2023-09-05T20:28:33.099Z</time>
      </trkpt>
      <trkpt lat="48.808171" lon="2.166963">
        <ele>128.376247</ele>
        <time>2023-09-05T20:28:51.373Z</time>
      </trkpt>
      <trkpt lat="48.808044" lon="2.167024">
        <ele>127.451546</ele>
        <time>2023-09-05T20:28:53.696Z</time>
      </trkpt>
      <trkpt lat="48.807927" lon="2.166790">
        <ele>126.108323</ele>
        <time>2023-09-05T20:28:56.217Z</time>
      </trkpt>
      <trkpt lat="48.807013" lon="2.167236">
        <ele>120.067958</ele>
        <time>2023-09-05T20:29:08.576Z</time>
      </trkpt>
      <trkpt lat="48.805981" lon="2.167710">
        <ele>113.699832</ele>
        <time>2023-09-05T20:29:22.556Z</time>
      </trkpt>
      <trkpt lat="48.805884" lon="2.167737">
        <ele>113.117369</ele>
        <time>2023-09-05T20:29:23.839Z</time>
      </trkpt>
      <trkpt lat="48.805842" lon="2.167707">
        <ele>112.912547</ele>
        <time>2023-09-05T20:29:24.446Z</time>
      </trkpt>
      <trkpt lat="48.805820" lon="2.167772">
        <ele>112.750347</ele>
        <time>2023-09-05T20:29:25.071Z</time>
      </trkpt>
      <trkpt lat="48.805721" lon="2.168142">
        <ele>111.863963</ele>
        <time>2023-09-05T20:29:28.558Z</time>
      </trkpt>
      <trkpt lat="48.805714" lon="2.168206">
        <ele>111.719972</ele>
        <time>2023-09-05T20:29:29.125Z</time>
      </trkpt>
      <trkpt lat="48.805720" lon="2.168435">
        <ele>111.211312</ele>
        <time>2023-09-05T20:29:31.155Z</time>
      </trkpt>
      <trkpt lat="48.805726" lon="2.168866">
        <ele>110.254507</ele>
        <time>2023-09-05T20:29:35.023Z</time>
      </trkpt>
      <trkpt lat="48.805740" lon="2.169068">
        <ele>109.803699</ele>
        <time>2023-09-05T20:29:36.918Z</time>
      </trkpt>
      <trkpt lat="48.805677" lon="2.169126">
        <ele>109.555417</ele>
        <time>2023-09-05T20:29:37.960Z</time>
      </trkpt>
      <trkpt lat="48.805649" lon="2.169151">
        <ele>109.445954</ele>
        <time>2023-09-05T20:29:38.428Z</time>
      </trkpt>
      <trkpt lat="48.805558" lon="2.169226">
        <ele>109.097026</ele>
        <time>2023-09-05T20:29:39.947Z</time>
      </trkpt>
      <trkpt lat="48.805459" lon="2.169307">
        <ele>108.718050</ele>
        <time>2023-09-05T20:29:41.627Z</time>
      </trkpt>
      <trkpt lat="48.805411" lon="2.169334">
        <ele>108.545551</ele>
        <time>2023-09-05T20:29:42.389Z</time>
      </trkpt>
      <trkpt lat="48.805334" lon="2.169375">
        <ele>108.270575</ele>
        <time>2023-09-05T20:29:43.607Z</time>
      </trkpt>
      <trkpt lat="48.805137" lon="2.169401">
        <ele>107.604200</ele>
        <time>2023-09-05T20:29:46.732Z</time>
      </trkpt>
      <trkpt lat="48.805072" lon="2.169401">
        <ele>107.385156</ele>
        <time>2023-09-05T20:29:47.789Z</time>
      </trkpt>
      <trkpt lat="48.804768" lon="2.169417">
        <ele>107.205328</ele>
        <time>2023-09-05T20:29:53.061Z</time>
      </trkpt>
      <trkpt lat="48.804644" lon="2.169441">
        <ele>107.394492</ele>
        <time>2023-09-05T20:29:55.370Z</time>
      </trkpt>
      <trkpt lat="48.804437" lon="2.169511">
        <ele>107.715415</ele>
        <time>2023-09-05T20:29:59.994Z</time>
      </trkpt>
      <trkpt lat="48.804117" lon="2.169608">
        <ele>108.209219</ele>
        <time>2023-09-05T20:30:08.155Z</time>
      </trkpt>
      <trkpt lat="48.803954" lon="2.169923">
        <ele>108.608485</ele>
        <time>2023-09-05T20:30:15.820Z</time>
      </trkpt>
      <trkpt lat="48.803882" lon="2.170106">
        <ele>108.820946</ele>
        <time>2023-09-05T20:30:20.370Z</time>
      </trkpt>
      <trkpt lat="48.803783" lon="2.170266">
        <ele>109.039750</ele>
        <time>2023-09-05T20:30:25.061Z</time>
      </trkpt>
      <trkpt lat="48.803580" lon="2.170444">
        <ele>109.394495</ele>
        <time>2023-09-05T20:30:33.441Z</time>
      </trkpt>
      <trkpt lat="48.803456" lon="2.170515">
        <ele>109.595041</ele>
        <time>2023-09-05T20:30:38.165Z</time>
      </trkpt>
      <trkpt lat="48.803137" lon="2.170633">
        <ele>110.641499</ele>
        <time>2023-09-05T20:30:50.631Z</time>
      </trkpt>
      <trkpt lat="48.802895" lon="2.170692">
        <ele>111.490175</ele>
        <time>2023-09-05T20:30:59.713Z</time>
      </trkpt>
      <trkpt lat="48.802583" lon="2.170749">
        <ele>112.578290</ele>
        <time>2023-09-05T20:31:11.013Z</time>
      </trkpt>
      <trkpt lat="48.802327" lon="2.170785">
        <ele>113.468502</ele>
        <time>2023-09-05T20:31:20.584Z</time>
      </trkpt>
      <trkpt lat="48.801920" lon="2.170837">
        <ele>114.882749</ele>
        <time>2023-09-05T20:31:36.604Z</time>
      </trkpt>
      <trkpt lat="48.801830" lon="2.170848">
        <ele>115.195388</ele>
        <time>2023-09-05T20:31:40.121Z</time>
      </trkpt>
      <trkpt lat="48.801744" lon="2.170858">
        <ele>115.494041</ele>
        <time>2023-09-05T20:31:43.169Z</time>
      </trkpt>
      <trkpt lat="48.801270" lon="2.170980">
        <ele>116.878863</ele>
        <time>2023-09-05T20:31:59.508Z</time>
      </trkpt>
      <trkpt lat="48.801154" lon="2.170974">
        <ele>117.191884</ele>
        <time>2023-09-05T20:32:03.369Z</time>
      </trkpt>
      <trkpt lat="48.800902" lon="2.171015">
        <ele>117.875391</ele>
        <time>2023-09-05T20:32:10.954Z</time>
      </trkpt>
      <trkpt lat="48.800584" lon="2.171080">
        <ele>118.740740</ele>
        <time>2023-09-05T20:32:20.579Z</time>
      </trkpt>
      <trkpt lat="48.800466" lon="2.171104">
        <ele>119.061816</ele>
        <time>2023-09-05T20:32:24.395Z</time>
      </trkpt>
      <trkpt lat="48.800429" lon="2.171114">
        <ele>119.163170</ele>
        <time>2023-09-05T20:32:25.645Z</time>
      </trkpt>
      <trkpt lat="48.800089" lon="2.171195">
        <ele>120.091333</ele>
        <time>2023-09-05T20:32:36.370Z</time>
      </trkpt>
      <trkpt lat="48.799993" lon="2.171264">
        <ele>120.377784</ele>
        <time>2023-09-05T20:32:39.696Z</time>
      </trkpt>
      <trkpt lat="48.799772" lon="2.171312">
        <ele>121.020290</ele>
        <time>2023-09-05T20:32:47.289Z</time>
      </trkpt>
      <trkpt lat="48.799596" lon="2.171392">
        <ele>121.600644</ele>
        <time>2023-09-05T20:32:53.617Z</time>
      </trkpt>
      <trkpt lat="48.799332" lon="2.171568">
        <ele>122.511464</ele>
        <time>2023-09-05T20:33:03.908Z</time>
      </trkpt>
      <trkpt lat="48.799300" lon="2.171397">
        <ele>122.881357</ele>
        <time>2023-09-05T20:33:07.971Z</time>
      </trkpt>
      <trkpt lat="48.799250" lon="2.170400">
        <ele>124.961893</ele>
        <time>2023-09-05T20:33:30.816Z</time>
      </trkpt>
      <trkpt lat="48.799233" lon="2.170048">
        <ele>125.696293</ele>
        <time>2023-09-05T20:33:39.126Z</time>
      </trkpt>
      <trkpt lat="48.799204" lon="2.169471">
        <ele>126.814718</ele>
        <time>2023-09-05T20:33:53.359Z</time>
      </trkpt>
      <trkpt lat="48.799137" lon="2.168798">
        <ele>127.975396</ele>
        <time>2023-09-05T20:34:09.768Z</time>
      </trkpt>
      <trkpt lat="48.799126" lon="2.168687">
        <ele>128.166811</ele>
        <time>2023-09-05T20:34:12.220Z</time>
      </trkpt>
      <trkpt lat="48.799112" lon="2.168560">
        <ele>128.386392</ele>
        <time>2023-09-05T20:34:14.882Z</time>
      </trkpt>
      <trkpt lat="48.799003" lon="2.167508">
        <ele>130.202395</ele>
        <time>2023-09-05T20:34:36.213Z</time>
      </trkpt>
      <trkpt lat="48.798922" lon="2.166690">
        <ele>131.415415</ele>
        <time>2023-09-05T20:34:52.263Z</time>
      </trkpt>
      <trkpt lat="48.798883" lon="2.166348">
        <ele>131.787047</ele>
        <time>2023-09-05T20:34:58.501Z</time>
      </trkpt>
      <trkpt lat="48.798830" lon="2.166058">
        <ele>132.109284</ele>
        <time>2023-09-05T20:35:03.533Z</time>
      </trkpt>
      <trkpt lat="48.798718" lon="2.165630">
        <ele>132.602390</ele>
        <time>2023-09-05T20:35:10.823Z</time>
      </trkpt>
      <trkpt lat="48.798686" lon="2.165817">
        <ele>132.809261</ele>
        <time>2023-09-05T20:35:13.785Z</time>
      </trkpt>
      <trkpt lat="48.798676" lon="2.166129">
        <ele>133.143721</ele>
        <time>2023-09-05T20:35:18.041Z</time>
      </trkpt>
      <trkpt lat="48.798572" lon="2.166101">
        <ele>133.315409</ele>
        <time>2023-09-05T20:35:20.319Z</time>
      </trkpt>
      <trkpt lat="48.798338" lon="2.166126">
        <ele>133.696715</ele>
        <time>2023-09-05T20:35:25.742Z</time>
      </trkpt>
      <trkpt lat="48.798291" lon="2.166064">
        <ele>133.797926</ele>
        <time>2023-09-05T20:35:28.342Z</time>
      </trkpt>
      <trkpt lat="48.798243" lon="2.165859">
        <ele>134.079345</ele>
        <time>2023-09-05T20:35:34.466Z</time>
      </trkpt>
      <trkpt lat="48.798209" lon="2.165389">
        <ele>135.561117</ele>
        <time>2023-09-05T20:35:49.857Z</time>
      </trkpt>
      <trkpt lat="48.798145" lon="2.165189">
        <ele>136.257935</ele>
        <time>2023-09-05T20:35:58.007Z</time>
      </trkpt>
      <trkpt lat="48.798072" lon="2.165057">
        <ele>136.798067</ele>
        <time>2023-09-05T20:36:04.493Z</time>
      </trkpt>
      <trkpt lat="48.797959" lon="2.164953">
        <ele>137.426752</ele>
        <time>2023-09-05T20:36:12.222Z</time>
      </trkpt>
      <trkpt lat="48.797782" lon="2.164842">
        <ele>138.337861</ele>
        <time>2023-09-05T20:36:23.598Z</time>
      </trkpt>
      <trkpt lat="48.797615" lon="2.164816">
        <ele>139.136540</ele>
        <time>2023-09-05T20:36:33.782Z</time>
      </trkpt>
      <trkpt lat="48.797475" lon="2.164840">
        <ele>139.806832</ele>
        <time>2023-09-05T20:36:42.578Z</time>
      </trkpt>
      <trkpt lat="48.797340" lon="2.164921">
        <ele>140.497448</ele>
        <time>2023-09-05T20:36:51.398Z</time>
      </trkpt>
      <trkpt lat="48.797078" lon="2.165350">
        <ele>142.330825</ele>
        <time>2023-09-05T20:37:14.009Z</time>
      </trkpt>
      <trkpt lat="48.796937" lon="2.165547">
        <ele>143.448179</ele>
        <time>2023-09-05T20:37:25.470Z</time>
      </trkpt>
      <trkpt lat="48.796791" lon="2.165603">
        <ele>144.381423</ele>
        <time>2023-09-05T20:37:34.161Z</time>
      </trkpt>
      <trkpt lat="48.796679" lon="2.165618">
        <ele>145.078220</ele>
        <time>2023-09-05T20:37:40.841Z</time>
      </trkpt>
      <trkpt lat="48.796362" lon="2.165575">
        <ele>147.050601</ele>
        <time>2023-09-05T20:38:00.713Z</time>
      </trkpt>
      <trkpt lat="48.796192" lon="2.165612">
        <ele>148.114920</ele>
        <time>2023-09-05T20:38:12.472Z</time>
      </trkpt>
      <trkpt lat="48.795867" lon="2.165724">
        <ele>150.180299</ele>
        <time>2023-09-05T20:38:35.899Z</time>
      </trkpt>
      <trkpt lat="48.795605" lon="2.165731">
        <ele>151.804251</ele>
        <time>2023-09-05T20:38:53.347Z</time>
      </trkpt>
      <trkpt lat="48.795482" lon="2.165610">
        <ele>152.712587</ele>
        <time>2023-09-05T20:39:03.167Z</time>
      </trkpt>
      <trkpt lat="48.795310" lon="2.165499">
        <ele>153.768650</ele>
        <time>2023-09-05T20:39:14.368Z</time>
      </trkpt>
      <trkpt lat="48.795130" lon="2.165488">
        <ele>154.177196</ele>
        <time>2023-09-05T20:39:24.957Z</time>
      </trkpt>
      <trkpt lat="48.794926" lon="2.165570">
        <ele>154.655784</ele>
        <time>2023-09-05T20:39:36.095Z</time>
      </trkpt>
      <trkpt lat="48.794711" lon="2.165815">
        <ele>155.265469</ele>
        <time>2023-09-05T20:39:48.457Z</time>
      </trkpt>
      <trkpt lat="48.794470" lon="2.166174">
        <ele>156.031223</ele>
        <time>2023-09-05T20:40:00.603Z</time>
      </trkpt>
      <trkpt lat="48.794305" lon="2.166282">
        <ele>156.438724</ele>
        <time>2023-09-05T20:40:07.135Z</time>
      </trkpt>
      <trkpt lat="48.794104" lon="2.166266">
        <ele>156.895190</ele>
        <time>2023-09-05T20:40:14.393Z</time>
      </trkpt>
      <trkpt lat="48.793975" lon="2.166194">
        <ele>157.206893</ele>
        <time>2023-09-05T20:40:19.493Z</time>
      </trkpt>
      <trkpt lat="48.793867" lon="2.166054">
        <ele>157.528976</ele>
        <time>2023-09-05T20:40:24.741Z</time>
      </trkpt>
      <trkpt lat="48.793818" lon="2.165906">
        <ele>157.776442</ele>
        <time>2023-09-05T20:40:28.532Z</time>
      </trkpt>
      <trkpt lat="48.793831" lon="2.165689">
        <ele>157.707323</ele>
        <time>2023-09-05T20:40:33.904Z</time>
      </trkpt>
      <trkpt lat="48.794017" lon="2.165196">
        <ele>157.486726</ele>
        <time>2023-09-05T20:40:45.654Z</time>
      </trkpt>
      <trkpt lat="48.794013" lon="2.164979">
        <ele>157.402434</ele>
        <time>2023-09-05T20:40:49.683Z</time>
      </trkpt>
      <trkpt lat="48.793939" lon="2.164821">
        <ele>157.327160</ele>
        <time>2023-09-05T20:40:53.133Z</time>
      </trkpt>
      <trkpt lat="48.793719" lon="2.164722">
        <ele>157.191911</ele>
        <time>2023-09-05T20:40:59.477Z</time>
      </trkpt>
      <trkpt lat="48.792941" lon="2.164689">
        <ele>156.733166</ele>
        <time>2023-09-05T20:41:21.867Z</time>
      </trkpt>
      <trkpt lat="48.792737" lon="2.164514">
        <ele>157.159562</ele>
        <time>2023-09-05T20:41:29.663Z</time>
      </trkpt>
      <trkpt lat="48.792619" lon="2.164520">
        <ele>157.384163</ele>
        <time>2023-09-05T20:41:34.218Z</time>
      </trkpt>
      <trkpt lat="48.792555" lon="2.164569">
        <ele>157.520522</ele>
        <time>2023-09-05T20:41:36.703Z</time>
      </trkpt>
      <trkpt lat="48.792410" lon="2.164689">
        <ele>157.834693</ele>
        <time>2023-09-05T20:41:43.829Z</time>
      </trkpt>
      <trkpt lat="48.792335" lon="2.164929">
        <ele>158.167593</ele>
        <time>2023-09-05T20:41:51.240Z</time>
      </trkpt>
      <trkpt lat="48.792340" lon="2.165128">
        <ele>158.417169</ele>
        <time>2023-09-05T20:41:56.429Z</time>
      </trkpt>
      <trkpt lat="48.792421" lon="2.165355">
        <ele>158.740703</ele>
        <time>2023-09-05T20:42:03.572Z</time>
      </trkpt>
      <trkpt lat="48.792425" lon="2.165521">
        <ele>158.948880</ele>
        <time>2023-09-05T20:42:07.848Z</time>
      </trkpt>
      <trkpt lat="48.792397" lon="2.165657">
        <ele>159.127449</ele>
        <time>2023-09-05T20:42:11.882Z</time>
      </trkpt>
      <trkpt lat="48.792289" lon="2.165926">
        <ele>159.522241</ele>
        <time>2023-09-05T20:42:21.306Z</time>
      </trkpt>
      <trkpt lat="48.792075" lon="2.166080">
        <ele>159.972772</ele>
        <time>2023-09-05T20:42:33.322Z</time>
      </trkpt>
      <trkpt lat="48.791951" lon="2.166076">
        <ele>160.229387</ele>
        <time>2023-09-05T20:42:39.722Z</time>
      </trkpt>
      <trkpt lat="48.791616" lon="2.165811">
        <ele>161.201913</ele>
        <time>2023-09-05T20:42:59.941Z</time>
      </trkpt>
      <trkpt lat="48.791495" lon="2.165791">
        <ele>161.515262</ele>
        <time>2023-09-05T20:43:06.033Z</time>
      </trkpt>
      <trkpt lat="48.791347" lon="2.165883">
        <ele>161.926993</ele>
        <time>2023-09-05T20:43:14.203Z</time>
      </trkpt>
      <trkpt lat="48.791252" lon="2.166040">
        <ele>162.288546</ele>
        <time>2023-09-05T20:43:19.986Z</time>
      </trkpt>
      <trkpt lat="48.791170" lon="2.166424">
        <ele>162.973191</ele>
        <time>2023-09-05T20:43:30.593Z</time>
      </trkpt>
      <trkpt lat="48.790980" lon="2.166837">
        <ele>163.827548</ele>
        <time>2023-09-05T20:43:43.174Z</time>
      </trkpt>
      <trkpt lat="48.790900" lon="2.166821">
        <ele>164.035283</ele>
        <time>2023-09-05T20:43:46.160Z</time>
      </trkpt>
      <trkpt lat="48.790721" lon="2.166666">
        <ele>164.565823</ele>
        <time>2023-09-05T20:43:54.194Z</time>
      </trkpt>
      <trkpt lat="48.790616" lon="2.166614">
        <ele>164.854957</ele>
        <time>2023-09-05T20:43:58.980Z</time>
      </trkpt>
      <trkpt lat="48.790388" lon="2.166663">
        <ele>165.488703</ele>
        <time>2023-09-05T20:44:08.918Z</time>
      </trkpt>
      <trkpt lat="48.790224" lon="2.166627">
        <ele>165.944749</ele>
        <time>2023-09-05T20:44:16.872Z</time>
      </trkpt>
      <trkpt lat="48.790037" lon="2.166477">
        <ele>166.526844</ele>
        <time>2023-09-05T20:44:26.889Z</time>
      </trkpt>
      <trkpt lat="48.789933" lon="2.166450">
        <ele>166.817223</ele>
        <time>2023-09-05T20:44:32.401Z</time>
      </trkpt>
      <trkpt lat="48.789824" lon="2.166465">
        <ele>167.118437</ele>
        <time>2023-09-05T20:44:37.786Z</time>
      </trkpt>
      <trkpt lat="48.789578" lon="2.166577">
        <ele>167.825264</ele>
        <time>2023-09-05T20:44:50.641Z</time>
      </trkpt>
      <trkpt lat="48.789097" lon="2.166734">
        <ele>169.179305</ele>
        <time>2023-09-05T20:45:12.211Z</time>
      </trkpt>
      <trkpt lat="48.788950" lon="2.166930">
        <ele>169.717796</ele>
        <time>2023-09-05T20:45:20.801Z</time>
      </trkpt>
      <trkpt lat="48.788853" lon="2.167174">
        <ele>170.182185</ele>
        <time>2023-09-05T20:45:28.881Z</time>
      </trkpt>
      <trkpt lat="48.788661" lon="2.167401">
        <ele>170.782391</ele>
        <time>2023-09-05T20:45:39.912Z</time>
      </trkpt>
      <trkpt lat="48.788496" lon="2.167505">
        <ele>171.223004</ele>
        <time>2023-09-05T20:45:48.456Z</time>
      </trkpt>
      <trkpt lat="48.788250" lon="2.167542">
        <ele>171.832657</ele>
        <time>2023-09-05T20:46:00.257Z</time>
      </trkpt>
      <trkpt lat="48.788138" lon="2.167394">
        <ele>172.198884</ele>
        <time>2023-09-05T20:46:07.164Z</time>
      </trkpt>
      <trkpt lat="48.787974" lon="2.167017">
        <ele>172.932926</ele>
        <time>2023-09-05T20:46:20.432Z</time>
      </trkpt>
      <trkpt lat="48.787948" lon="2.166777">
        <ele>173.328124</ele>
        <time>2023-09-05T20:46:27.364Z</time>
      </trkpt>
      <trkpt lat="48.787962" lon="2.166597">
        <ele>173.622626</ele>
        <time>2023-09-05T20:46:32.310Z</time>
      </trkpt>
      <trkpt lat="48.787914" lon="2.166431">
        <ele>173.917184</ele>
        <time>2023-09-05T20:46:37.203Z</time>
      </trkpt>
      <trkpt lat="48.787776" lon="2.166340">
        <ele>174.243315</ele>
        <time>2023-09-05T20:46:43.357Z</time>
      </trkpt>
      <trkpt lat="48.787562" lon="2.166327">
        <ele>174.576379</ele>
        <time>2023-09-05T20:46:51.712Z</time>
      </trkpt>
      <trkpt lat="48.787493" lon="2.166260">
        <ele>174.703763</ele>
        <time>2023-09-05T20:46:54.785Z</time>
      </trkpt>
      <trkpt lat="48.787413" lon="2.165717">
        <ele>175.273862</ele>
        <time>2023-09-05T20:47:08.843Z</time>
      </trkpt>
      <trkpt lat="48.787352" lon="2.165576">
        <ele>175.446693</ele>
        <time>2023-09-05T20:47:13.222Z</time>
      </trkpt>
      <trkpt lat="48.787166" lon="2.165390">
        <ele>175.793084</ele>
        <time>2023-09-05T20:47:22.013Z</time>
      </trkpt>
      <trkpt lat="48.787101" lon="2.165272">
        <ele>175.950677</ele>
        <time>2023-09-05T20:47:26.070Z</time>
      </trkpt>
      <trkpt lat="48.787065" lon="2.165184">
        <ele>176.056810</ele>
        <time>2023-09-05T20:47:28.676Z</time>
      </trkpt>
      <trkpt lat="48.787046" lon="2.164951">
        <ele>176.297366</ele>
        <time>2023-09-05T20:47:34.613Z</time>
      </trkpt>
      <trkpt lat="48.786962" lon="2.164642">
        <ele>176.639861</ele>
        <time>2023-09-05T20:47:43.402Z</time>
      </trkpt>
      <trkpt lat="48.786789" lon="2.164493">
        <ele>176.949197</ele>
        <time>2023-09-05T20:47:51.090Z</time>
      </trkpt>
      <trkpt lat="48.786294" lon="2.164311">
        <ele>177.714021</ele>
        <time>2023-09-05T20:48:11.289Z</time>
      </trkpt>
      <trkpt lat="48.786217" lon="2.164217">
        <ele>177.862313</ele>
        <time>2023-09-05T20:48:15.352Z</time>
      </trkpt>
      <trkpt lat="48.786165" lon="2.164028">
        <ele>178.064824</ele>
        <time>2023-09-05T20:48:21.129Z</time>
      </trkpt>
      <trkpt lat="48.786209" lon="2.163863">
        <ele>178.240823</ele>
        <time>2023-09-05T20:48:26.099Z</time>
      </trkpt>
      <trkpt lat="48.786477" lon="2.163536">
        <ele>178.756848</ele>
        <time>2023-09-05T20:48:40.225Z</time>
      </trkpt>
      <trkpt lat="48.786515" lon="2.163363">
        <ele>178.937155</ele>
        <time>2023-09-05T20:48:44.908Z</time>
      </trkpt>
      <trkpt lat="48.786515" lon="2.163182">
        <ele>179.116117</ele>
        <time>2023-09-05T20:48:49.610Z</time>
      </trkpt>
      <trkpt lat="48.786515" lon="2.163181">
        <ele>179.117106</ele>
        <time>2023-09-05T20:48:49.644Z</time>
      </trkpt>
      <trkpt lat="48.786472" lon="2.162815">
        <ele>179.484692</ele>
        <time>2023-09-05T20:48:58.935Z</time>
      </trkpt>
      <trkpt lat="48.786502" lon="2.162157">
        <ele>179.899949</ele>
        <time>2023-09-05T20:49:14.323Z</time>
      </trkpt>
      <trkpt lat="48.786418" lon="2.162008">
        <ele>179.996928</ele>
        <time>2023-09-05T20:49:18.863Z</time>
      </trkpt>
      <trkpt lat="48.786417" lon="2.162299">
        <ele>180.140842</ele>
        <time>2023-09-05T20:49:24.766Z</time>
      </trkpt>
      <trkpt lat="48.786349" lon="2.162576">
        <ele>180.287029</ele>
        <time>2023-09-05T20:49:31.362Z</time>
      </trkpt>
      <trkpt lat="48.786352" lon="2.163062">
        <ele>180.527386</ele>
        <time>2023-09-05T20:49:42.668Z</time>
      </trkpt>
      <trkpt lat="48.786352" lon="2.163063">
        <ele>180.527881</ele>
        <time>2023-09-05T20:49:42.694Z</time>
      </trkpt>
      <trkpt lat="48.786312" lon="2.163331">
        <ele>180.663776</ele>
        <time>2023-09-05T20:49:48.992Z</time>
      </trkpt>
      <trkpt lat="48.786270" lon="2.163447">
        <ele>180.729234</ele>
        <time>2023-09-05T20:49:52.212Z</time>
      </trkpt>
      <trkpt lat="48.786088" lon="2.163673">
        <ele>180.905737</ele>
        <time>2023-09-05T20:50:01.131Z</time>
      </trkpt>
      <trkpt lat="48.786020" lon="2.163827">
        <ele>180.997418</ele>
        <time>2023-09-05T20:50:05.533Z</time>
      </trkpt>
      <trkpt lat="48.785980" lon="2.164123">
        <ele>181.217906</ele>
        <time>2023-09-05T20:50:13.050Z</time>
      </trkpt>
      <trkpt lat="48.785981" lon="2.164314">
        <ele>181.362490</ele>
        <time>2023-09-05T20:50:17.459Z</time>
      </trkpt>
      <trkpt lat="48.786018" lon="2.164434">
        <ele>181.462780</ele>
        <time>2023-09-05T20:50:20.501Z</time>
      </trkpt>
      <trkpt lat="48.785846" lon="2.164406">
        <ele>181.661519</ele>
        <time>2023-09-05T20:50:26.952Z</time>
      </trkpt>
      <trkpt lat="48.785534" lon="2.164449">
        <ele>182.021442</ele>
        <time>2023-09-05T20:50:38.709Z</time>
      </trkpt>
      <trkpt lat="48.785392" lon="2.164425">
        <ele>182.185591</ele>
        <time>2023-09-05T20:50:44.136Z</time>
      </trkpt>
      <trkpt lat="48.785167" lon="2.164341">
        <ele>182.451793</ele>
        <time>2023-09-05T20:50:53.123Z</time>
      </trkpt>
      <trkpt lat="48.784591" lon="2.163964">
        <ele>183.114036</ele>
        <time>2023-09-05T20:51:17.325Z</time>
      </trkpt>
      <trkpt lat="48.783619" lon="2.163328">
        <ele>183.567029</ele>
        <time>2023-09-05T20:51:55.506Z</time>
      </trkpt>
      <trkpt lat="48.783315" lon="2.163021">
        <ele>183.723300</ele>
        <time>2023-09-05T20:52:07.069Z</time>
      </trkpt>
      <trkpt lat="48.783083" lon="2.162742">
        <ele>183.847903</ele>
        <time>2023-09-05T20:52:16.125Z</time>
      </trkpt>
      <trkpt lat="48.782802" lon="2.163100">
        <ele>183.631078</ele>
        <time>2023-09-05T20:52:26.771Z</time>
      </trkpt>
      <trkpt lat="48.782720" lon="2.163445">
        <ele>183.488258</ele>
        <time>2023-09-05T20:52:30.815Z</time>
      </trkpt>
      <trkpt lat="48.782637" lon="2.164700">
        <ele>182.997092</ele>
        <time>2023-09-05T20:52:45.444Z</time>
      </trkpt>
      <trkpt lat="48.782351" lon="2.164601">
        <ele>182.823729</ele>
        <time>2023-09-05T20:52:54.516Z</time>
      </trkpt>
      <trkpt lat="48.782206" lon="2.164556">
        <ele>182.786545</ele>
        <time>2023-09-05T20:52:58.974Z</time>
      </trkpt>
      <trkpt lat="48.781807" lon="2.164421">
        <ele>182.788543</ele>
        <time>2023-09-05T20:53:11.895Z</time>
      </trkpt>
      <trkpt lat="48.781371" lon="2.164356">
        <ele>182.790684</ele>
        <time>2023-09-05T20:53:26.114Z</time>
      </trkpt>
      <trkpt lat="48.781289" lon="2.164285">
        <ele>182.791145</ele>
        <time>2023-09-05T20:53:29.341Z</time>
      </trkpt>
      <trkpt lat="48.781242" lon="2.164131">
        <ele>182.791692</ele>
        <time>2023-09-05T20:53:32.875Z</time>
      </trkpt>
      <trkpt lat="48.781275" lon="2.162768">
        <ele>182.596022</ele>
        <time>2023-09-05T20:54:02.678Z</time>
      </trkpt>
      <trkpt lat="48.781236" lon="2.162533">
        <ele>182.462352</ele>
        <time>2023-09-05T20:54:07.579Z</time>
      </trkpt>
      <trkpt lat="48.781008" lon="2.162078">
        <ele>182.147055</ele>
        <time>2023-09-05T20:54:18.784Z</time>
      </trkpt>
      <trkpt lat="48.780932" lon="2.161746">
        <ele>181.953192</ele>
        <time>2023-09-05T20:54:25.445Z</time>
      </trkpt>
      <trkpt lat="48.780931" lon="2.160954">
        <ele>181.516334</ele>
        <time>2023-09-05T20:54:40.393Z</time>
      </trkpt>
      <trkpt lat="48.780728" lon="2.160648">
        <ele>181.269360</ele>
        <time>2023-09-05T20:54:48.581Z</time>
      </trkpt>
      <trkpt lat="48.779401" lon="2.159657">
        <ele>179.290874</ele>
        <time>2023-09-05T20:55:30.617Z</time>
      </trkpt>
      <trkpt lat="48.778971" lon="2.159326">
        <ele>178.659923</ele>
        <time>2023-09-05T20:55:44.584Z</time>
      </trkpt>
      <trkpt lat="48.777257" lon="2.158013">
        <ele>176.300830</ele>
        <time>2023-09-05T20:56:39.728Z</time>
      </trkpt>
      <trkpt lat="48.775289" lon="2.156505">
        <ele>173.670549</ele>
        <time>2023-09-05T20:57:44.181Z</time>
      </trkpt>
      <trkpt lat="48.774559" lon="2.155942">
        <ele>172.473364</ele>
        <time>2023-09-05T20:58:07.646Z</time>
      </trkpt>
      <trkpt lat="48.773110" lon="2.154823">
        <ele>167.894619</ele>
        <time>2023-09-05T20:58:50.480Z</time>
      </trkpt>
      <trkpt lat="48.771100" lon="2.153269">
        <ele>158.759921</ele>
        <time>2023-09-05T20:59:46.273Z</time>
      </trkpt>
      <trkpt lat="48.771113" lon="2.152916">
        <ele>157.029011</ele>
        <time>2023-09-05T20:59:50.133Z</time>
      </trkpt>
      <trkpt lat="48.771173" lon="2.151528">
        <ele>150.219061</ele>
        <time>2023-09-05T21:00:03.511Z</time>
      </trkpt>
      <trkpt lat="48.771197" lon="2.150619">
        <ele>145.765226</ele>
        <time>2023-09-05T21:00:16.290Z</time>
      </trkpt>
      <trkpt lat="48.770994" lon="2.150570">
        <ele>143.578516</ele>
        <time>2023-09-05T21:00:20.594Z</time>
      </trkpt>
      <trkpt lat="48.770750" lon="2.150627">
        <ele>140.761939</ele>
        <time>2023-09-05T21:00:25.833Z</time>
      </trkpt>
      <trkpt lat="48.770504" lon="2.150415">
        <ele>137.534229</ele>
        <time>2023-09-05T21:00:31.794Z</time>
      </trkpt>
      <trkpt lat="48.770260" lon="2.150480">
        <ele>134.707873</ele>
        <time>2023-09-05T21:00:36.922Z</time>
      </trkpt>
      <trkpt lat="48.770260" lon="2.150480">
        <ele>134.707873</ele>
        <time>2023-09-05T21:00:36.923Z</time>
      </trkpt>
      <trkpt lat="48.769993" lon="2.150328">
        <ele>131.454329</ele>
        <time>2023-09-05T21:00:42.795Z</time>
      </trkpt>
      <trkpt lat="48.770065" lon="2.149988">
        <ele>128.769001</ele>
        <time>2023-09-05T21:00:47.705Z</time>
      </trkpt>
      <trkpt lat="48.770223" lon="2.149565">
        <ele>125.113006</ele>
        <time>2023-09-05T21:00:54.353Z</time>
      </trkpt>
      <trkpt lat="48.770517" lon="2.148824">
        <ele>121.219362</ele>
        <time>2023-09-05T21:01:06.969Z</time>
      </trkpt>
      <trkpt lat="48.770786" lon="2.148239">
        <ele>118.063882</ele>
        <time>2023-09-05T21:01:18.103Z</time>
      </trkpt>
      <trkpt lat="48.770962" lon="2.147925">
        <ele>116.240439</ele>
        <time>2023-09-05T21:01:24.868Z</time>
      </trkpt>
      <trkpt lat="48.771064" lon="2.147825">
        <ele>115.425331</ele>
        <time>2023-09-05T21:01:27.738Z</time>
      </trkpt>
      <trkpt lat="48.771189" lon="2.147756">
        <ele>114.532530</ele>
        <time>2023-09-05T21:01:30.951Z</time>
      </trkpt>
      <trkpt lat="48.771280" lon="2.147759">
        <ele>113.921593</ele>
        <time>2023-09-05T21:01:33.152Z</time>
      </trkpt>
      <trkpt lat="48.771503" lon="2.147838">
        <ele>112.498141</ele>
        <time>2023-09-05T21:01:38.509Z</time>
      </trkpt>
      <trkpt lat="48.771545" lon="2.147828">
        <ele>112.278672</ele>
        <time>2023-09-05T21:01:39.584Z</time>
      </trkpt>
      <trkpt lat="48.771606" lon="2.147645">
        <ele>111.580954</ele>
        <time>2023-09-05T21:01:42.802Z</time>
      </trkpt>
      <trkpt lat="48.771639" lon="2.147594">
        <ele>111.337790</ele>
        <time>2023-09-05T21:01:43.894Z</time>
      </trkpt>
      <trkpt lat="48.771442" lon="2.147465">
        <ele>110.230156</ele>
        <time>2023-09-05T21:01:46.748Z</time>
      </trkpt>
      <trkpt lat="48.771223" lon="2.147331">
        <ele>109.011152</ele>
        <time>2023-09-05T21:01:49.837Z</time>
      </trkpt>
      <trkpt lat="48.771190" lon="2.147319">
        <ele>108.835972</ele>
        <time>2023-09-05T21:01:50.289Z</time>
      </trkpt>
      <trkpt lat="48.771171" lon="2.147314">
        <ele>108.736424</ele>
        <time>2023-09-05T21:01:50.546Z</time>
      </trkpt>
      <trkpt lat="48.771121" lon="2.147332">
        <ele>108.471145</ele>
        <time>2023-09-05T21:01:51.266Z</time>
      </trkpt>
      <trkpt lat="48.771021" lon="2.147324">
        <ele>107.954199</ele>
        <time>2023-09-05T21:01:52.610Z</time>
      </trkpt>
      <trkpt lat="48.771031" lon="2.147232">
        <ele>107.636959</ele>
        <time>2023-09-05T21:01:53.416Z</time>
      </trkpt>
      <trkpt lat="48.770935" lon="2.147081">
        <ele>106.923141</ele>
        <time>2023-09-05T21:01:55.229Z</time>
      </trkpt>
      <trkpt lat="48.770837" lon="2.146905">
        <ele>106.139235</ele>
        <time>2023-09-05T21:01:57.305Z</time>
      </trkpt>
      <trkpt lat="48.770702" lon="2.146676">
        <ele>105.093899</ele>
        <time>2023-09-05T21:01:59.918Z</time>
      </trkpt>
      <trkpt lat="48.770590" lon="2.146478">
        <ele>104.206145</ele>
        <time>2023-09-05T21:02:02.188Z</time>
      </trkpt>
      <trkpt lat="48.770577" lon="2.146453">
        <ele>104.097800</ele>
        <time>2023-09-05T21:02:02.456Z</time>
      </trkpt>
      <trkpt lat="48.770227" lon="2.145808">
        <ele>102.667580</ele>
        <time>2023-09-05T21:02:09.788Z</time>
      </trkpt>
      <trkpt lat="48.770139" lon="2.145637">
        <ele>102.375690</ele>
        <time>2023-09-05T21:02:11.906Z</time>
      </trkpt>
      <trkpt lat="48.770031" lon="2.145433">
        <ele>102.023645</ele>
        <time>2023-09-05T21:02:14.401Z</time>
      </trkpt>
      <trkpt lat="48.770006" lon="2.145395">
        <ele>101.951407</ele>
        <time>2023-09-05T21:02:14.920Z</time>
      </trkpt>
      <trkpt lat="48.769713" lon="2.145018">
        <ele>101.167179</ele>
        <time>2023-09-05T21:02:21.226Z</time>
      </trkpt>
      <trkpt lat="48.769755" lon="2.144971">
        <ele>101.060645</ele>
        <time>2023-09-05T21:02:22.823Z</time>
      </trkpt>
      <trkpt lat="48.769963" lon="2.144329">
        <ele>100.098168</ele>
        <time>2023-09-05T21:02:37.507Z</time>
      </trkpt>
      <trkpt lat="48.771214" lon="2.141183">
        <ele>104.082396</ele>
        <time>2023-09-05T21:04:10.761Z</time>
      </trkpt>
      <trkpt lat="48.771234" lon="2.141029">
        <ele>104.474183</ele>
        <time>2023-09-05T21:04:15.309Z</time>
      </trkpt>
      <trkpt lat="48.771183" lon="2.141064">
        <ele>104.686172</ele>
        <time>2023-09-05T21:04:17.967Z</time>
      </trkpt>
      <trkpt lat="48.771139" lon="2.141086">
        <ele>104.861627</ele>
        <time>2023-09-05T21:04:19.601Z</time>
      </trkpt>
      <trkpt lat="48.770956" lon="2.141175">
        <ele>105.589431</ele>
        <time>2023-09-05T21:04:27.075Z</time>
      </trkpt>
      <trkpt lat="48.770876" lon="2.141168">
        <ele>105.892916</ele>
        <time>2023-09-05T21:04:30.224Z</time>
      </trkpt>
      <trkpt lat="48.770781" lon="2.141099">
        <ele>106.291805</ele>
        <time>2023-09-05T21:04:34.689Z</time>
      </trkpt>
      <trkpt lat="48.770164" lon="2.140301">
        <ele>109.621888</ele>
        <time>2023-09-05T21:05:14.578Z</time>
      </trkpt>
      <trkpt lat="48.770077" lon="2.140145">
        <ele>110.398772</ele>
        <time>2023-09-05T21:05:21.615Z</time>
      </trkpt>
      <trkpt lat="48.769928" lon="2.139877">
        <ele>111.731702</ele>
        <time>2023-09-05T21:05:33.564Z</time>
      </trkpt>
      <trkpt lat="48.769577" lon="2.139249">
        <ele>114.862038</ele>
        <time>2023-09-05T21:06:04.163Z</time>
      </trkpt>
      <trkpt lat="48.769587" lon="2.139011">
        <ele>115.768680</ele>
        <time>2023-09-05T21:06:11.373Z</time>
      </trkpt>
      <trkpt lat="48.769535" lon="2.138715">
        <ele>116.933272</ele>
        <time>2023-09-05T21:06:22.006Z</time>
      </trkpt>
      <trkpt lat="48.769538" lon="2.138632">
        <ele>117.249287</ele>
        <time>2023-09-05T21:06:24.689Z</time>
      </trkpt>
      <trkpt lat="48.769760" lon="2.137917">
        <ele>119.655224</ele>
        <time>2023-09-05T21:06:47.712Z</time>
      </trkpt>
      <trkpt lat="48.769826" lon="2.137626">
        <ele>120.133755</ele>
        <time>2023-09-05T21:06:56.455Z</time>
      </trkpt>
      <trkpt lat="48.769999" lon="2.137281">
        <ele>120.807825</ele>
        <time>2023-09-05T21:07:07.079Z</time>
      </trkpt>
      <trkpt lat="48.770170" lon="2.137215">
        <ele>121.224105</ele>
        <time>2023-09-05T21:07:12.617Z</time>
      </trkpt>
      <trkpt lat="48.770383" lon="2.137220">
        <ele>121.726684</ele>
        <time>2023-09-05T21:07:19.155Z</time>
      </trkpt>
      <trkpt lat="48.770496" lon="2.137002">
        <ele>122.157934</ele>
        <time>2023-09-05T21:07:23.181Z</time>
      </trkpt>
      <trkpt lat="48.770578" lon="2.136744">
        <ele>122.603314</ele>
        <time>2023-09-05T21:07:27.940Z</time>
      </trkpt>
      <trkpt lat="48.770719" lon="2.136091">
        <ele>123.764709</ele>
        <time>2023-09-05T21:07:39.568Z</time>
      </trkpt>
      <trkpt lat="48.770747" lon="2.135446">
        <ele>125.267858</ele>
        <time>2023-09-05T21:07:51.655Z</time>
      </trkpt>
      <trkpt lat="48.770780" lon="2.135118">
        <ele>126.039433</ele>
        <time>2023-09-05T21:07:59.189Z</time>
      </trkpt>
      <trkpt lat="48.770852" lon="2.134752">
        <ele>126.927642</ele>
        <time>2023-09-05T21:08:09.060Z</time>
      </trkpt>
      <trkpt lat="48.767906" lon="2.131088">
        <ele>144.404315</ele>
        <time>2023-09-05T21:11:52.292Z</time>
      </trkpt>
      <trkpt lat="48.767938" lon="2.130823">
        <ele>145.136355</ele>
        <time>2023-09-05T21:11:57.955Z</time>
      </trkpt>
      <trkpt lat="48.768041" lon="2.130458">
        <ele>146.215205</ele>
        <time>2023-09-05T21:12:06.765Z</time>
      </trkpt>
      <trkpt lat="48.767971" lon="2.130432">
        <ele>146.512303</ele>
        <time>2023-09-05T21:12:08.737Z</time>
      </trkpt>
      <trkpt lat="48.767967" lon="2.130109">
        <ele>147.064416</ele>
        <time>2023-09-05T21:12:15.060Z</time>
      </trkpt>
      <trkpt lat="48.767923" lon="2.129733">
        <ele>147.380162</ele>
        <time>2023-09-05T21:12:21.234Z</time>
      </trkpt>
      <trkpt lat="48.767881" lon="2.129745">
        <ele>147.433775</ele>
        <time>2023-09-05T21:12:22.468Z</time>
      </trkpt>
      <trkpt lat="48.767816" lon="2.129760">
        <ele>147.516252</ele>
        <time>2023-09-05T21:12:24.321Z</time>
      </trkpt>
      <trkpt lat="48.767707" lon="2.129682">
        <ele>147.667432</ele>
        <time>2023-09-05T21:12:26.921Z</time>
      </trkpt>
      <trkpt lat="48.767398" lon="2.129618">
        <ele>148.058651</ele>
        <time>2023-09-05T21:12:34.047Z</time>
      </trkpt>
      <trkpt lat="48.767189" lon="2.129492">
        <ele>148.340771</ele>
        <time>2023-09-05T21:12:38.440Z</time>
      </trkpt>
      <trkpt lat="48.765285" lon="2.128173">
        <ele>151.202021</ele>
        <time>2023-09-05T21:13:33.828Z</time>
      </trkpt>
      <trkpt lat="48.764983" lon="2.127953">
        <ele>151.677637</ele>
        <time>2023-09-05T21:13:42.924Z</time>
      </trkpt>
      <trkpt lat="48.761041" lon="2.125067">
        <ele>155.995578</ele>
        <time>2023-09-05T21:15:31.416Z</time>
      </trkpt>
      <trkpt lat="48.760964" lon="2.125014">
        <ele>156.010802</ele>
        <time>2023-09-05T21:15:33.181Z</time>
      </trkpt>
      <trkpt lat="48.760913" lon="2.125017">
        <ele>156.019991</ele>
        <time>2023-09-05T21:15:34.192Z</time>
      </trkpt>
      <trkpt lat="48.760815" lon="2.125040">
        <ele>156.037845</ele>
        <time>2023-09-05T21:15:36.134Z</time>
      </trkpt>
      <trkpt lat="48.760767" lon="2.125107">
        <ele>156.049589</ele>
        <time>2023-09-05T21:15:37.347Z</time>
      </trkpt>
      <trkpt lat="48.760739" lon="2.125072">
        <ele>156.056121</ele>
        <time>2023-09-05T21:15:38.035Z</time>
      </trkpt>
      <trkpt lat="48.760697" lon="2.125018">
        <ele>156.066034</ele>
        <time>2023-09-05T21:15:39.077Z</time>
      </trkpt>
      <trkpt lat="48.760678" lon="2.124995">
        <ele>156.070410</ele>
        <time>2023-09-05T21:15:39.540Z</time>
      </trkpt>
      <trkpt lat="48.760653" lon="2.124952">
        <ele>156.077215</ele>
        <time>2023-09-05T21:15:40.262Z</time>
      </trkpt>
      <trkpt lat="48.760624" lon="2.124774">
        <ele>156.098977</ele>
        <time>2023-09-05T21:15:42.502Z</time>
      </trkpt>
      <trkpt lat="48.759875" lon="2.124218">
        <ele>155.650103</ele>
        <time>2023-09-05T21:15:56.920Z</time>
      </trkpt>
      <trkpt lat="48.759005" lon="2.123584">
        <ele>154.177272</ele>
        <time>2023-09-05T21:16:12.200Z</time>
      </trkpt>
      <trkpt lat="48.758830" lon="2.123353">
        <ele>153.823280</ele>
        <time>2023-09-05T21:16:15.760Z</time>
      </trkpt>
      <trkpt lat="48.757434" lon="2.122328">
        <ele>151.096619</ele>
        <time>2023-09-05T21:16:39.989Z</time>
      </trkpt>
      <trkpt lat="48.755715" lon="2.121095">
        <ele>148.004778</ele>
        <time>2023-09-05T21:17:10.293Z</time>
      </trkpt>
      <trkpt lat="48.755483" lon="2.120955">
        <ele>147.614451</ele>
        <time>2023-09-05T21:17:14.324Z</time>
      </trkpt>
      <trkpt lat="48.755127" lon="2.120796">
        <ele>147.311604</ele>
        <time>2023-09-05T21:17:20.428Z</time>
      </trkpt>
      <trkpt lat="48.754569" lon="2.120659">
        <ele>147.122776</ele>
        <time>2023-09-05T21:17:29.919Z</time>
      </trkpt>
      <trkpt lat="48.750931" lon="2.120140">
        <ele>148.353972</ele>
        <time>2023-09-05T21:18:47.073Z</time>
      </trkpt>
      <trkpt lat="48.750869" lon="2.120129">
        <ele>148.418619</ele>
        <time>2023-09-05T21:18:48.550Z</time>
      </trkpt>
      <trkpt lat="48.750846" lon="2.120125">
        <ele>148.442594</ele>
        <time>2023-09-05T21:18:49.083Z</time>
      </trkpt>
      <trkpt lat="48.750544" lon="2.120086">
        <ele>148.756485</ele>
        <time>2023-09-05T21:18:56.879Z</time>
      </trkpt>
      <trkpt lat="48.750420" lon="2.120154">
        <ele>148.893039</ele>
        <time>2023-09-05T21:19:00.175Z</time>
      </trkpt>
      <trkpt lat="48.750395" lon="2.120132">
        <ele>148.922972</ele>
        <time>2023-09-05T21:19:01.028Z</time>
      </trkpt>
      <trkpt lat="48.750350" lon="2.119985">
        <ele>149.033640</ele>
        <time>2023-09-05T21:19:04.121Z</time>
      </trkpt>
      <trkpt lat="48.750324" lon="2.119927">
        <ele>149.081530</ele>
        <time>2023-09-05T21:19:05.437Z</time>
      </trkpt>
      <trkpt lat="48.750230" lon="2.119849">
        <ele>149.192497</ele>
        <time>2023-09-05T21:19:08.332Z</time>
      </trkpt>
      <trkpt lat="48.750140" lon="2.119794">
        <ele>149.292985</ele>
        <time>2023-09-05T21:19:11.030Z</time>
      </trkpt>
      <trkpt lat="48.749992" lon="2.119765">
        <ele>149.543233</ele>
        <time>2023-09-05T21:19:15.541Z</time>
      </trkpt>
      <trkpt lat="48.749908" lon="2.119751">
        <ele>149.707829</ele>
        <time>2023-09-05T21:19:17.892Z</time>
      </trkpt>
      <trkpt lat="48.749828" lon="2.119811">
        <ele>149.881660</ele>
        <time>2023-09-05T21:19:20.349Z</time>
      </trkpt>
      <trkpt lat="48.749244" lon="2.119667">
        <ele>151.034080</ele>
        <time>2023-09-05T21:19:38.241Z</time>
      </trkpt>
      <trkpt lat="48.748929" lon="2.119518">
        <ele>151.676769</ele>
        <time>2023-09-05T21:19:48.140Z</time>
      </trkpt>
      <trkpt lat="48.748649" lon="2.119305">
        <ele>152.286898</ele>
        <time>2023-09-05T21:19:57.240Z</time>
      </trkpt>
      <trkpt lat="48.748150" lon="2.118742">
        <ele>153.212789</ele>
        <time>2023-09-05T21:20:14.510Z</time>
      </trkpt>
      <trkpt lat="48.747953" lon="2.118403">
        <ele>153.540599</ele>
        <time>2023-09-05T21:20:22.337Z</time>
      </trkpt>
      <trkpt lat="48.747698" lon="2.117860">
        <ele>154.024221</ele>
        <time>2023-09-05T21:20:33.051Z</time>
      </trkpt>
      <trkpt lat="48.747687" lon="2.117796">
        <ele>154.072202</ele>
        <time>2023-09-05T21:20:34.045Z</time>
      </trkpt>
      <trkpt lat="48.747711" lon="2.117653">
        <ele>154.179251</ele>
        <time>2023-09-05T21:20:36.316Z</time>
      </trkpt>
      <trkpt lat="48.747682" lon="2.117525">
        <ele>154.277439</ele>
        <time>2023-09-05T21:20:38.402Z</time>
      </trkpt>
      <trkpt lat="48.747617" lon="2.117442">
        <ele>154.370927</ele>
        <time>2023-09-05T21:20:40.317Z</time>
      </trkpt>
      <trkpt lat="48.747527" lon="2.117407">
        <ele>154.473151</ele>
        <time>2023-09-05T21:20:42.294Z</time>
      </trkpt>
      <trkpt lat="48.747469" lon="2.117284">
        <ele>154.582853</ele>
        <time>2023-09-05T21:20:44.513Z</time>
      </trkpt>
      <trkpt lat="48.747336" lon="2.117019">
        <ele>154.824191</ele>
        <time>2023-09-05T21:20:49.275Z</time>
      </trkpt>
      <trkpt lat="48.747226" lon="2.116921">
        <ele>154.953507</ele>
        <time>2023-09-05T21:20:51.948Z</time>
      </trkpt>
      <trkpt lat="48.747014" lon="2.116364">
        <ele>155.383360</ele>
        <time>2023-09-05T21:21:01.011Z</time>
      </trkpt>
      <trkpt lat="48.746886" lon="2.115926">
        <ele>155.703573</ele>
        <time>2023-09-05T21:21:08.616Z</time>
      </trkpt>
      <trkpt lat="48.746804" lon="2.115705">
        <ele>155.873064</ele>
        <time>2023-09-05T21:21:12.989Z</time>
      </trkpt>
      <trkpt lat="48.746762" lon="2.115594">
        <ele>155.958601</ele>
        <time>2023-09-05T21:21:15.344Z</time>
      </trkpt>
      <trkpt lat="48.746384" lon="2.114782">
        <ele>156.622950</ele>
        <time>2023-09-05T21:21:32.335Z</time>
      </trkpt>
      <trkpt lat="48.746174" lon="2.114447">
        <ele>156.952617</ele>
        <time>2023-09-05T21:21:40.104Z</time>
      </trkpt>
      <trkpt lat="48.746142" lon="2.114383">
        <ele>157.010169</ele>
        <time>2023-09-05T21:21:41.680Z</time>
      </trkpt>
      <trkpt lat="48.746136" lon="2.114249">
        <ele>157.106407</ele>
        <time>2023-09-05T21:21:44.361Z</time>
      </trkpt>
      <trkpt lat="48.746150" lon="2.114180">
        <ele>157.158136</ele>
        <time>2023-09-05T21:21:45.682Z</time>
      </trkpt>
      <trkpt lat="48.746140" lon="2.113938">
        <ele>157.331880</ele>
        <time>2023-09-05T21:21:49.027Z</time>
      </trkpt>
      <trkpt lat="48.746087" lon="2.113769">
        <ele>157.465974</ele>
        <time>2023-09-05T21:21:52.628Z</time>
      </trkpt>
      <trkpt lat="48.746060" lon="2.113657">
        <ele>157.551422</ele>
        <time>2023-09-05T21:21:54.786Z</time>
      </trkpt>
      <trkpt lat="48.746061" lon="2.113578">
        <ele>157.608039</ele>
        <time>2023-09-05T21:21:56.135Z</time>
      </trkpt>
      <trkpt lat="48.746063" lon="2.113220">
        <ele>157.864572</ele>
        <time>2023-09-05T21:22:01.573Z</time>
      </trkpt>
      <trkpt lat="48.746064" lon="2.113124">
        <ele>157.933369</ele>
        <time>2023-09-05T21:22:03.282Z</time>
      </trkpt>
      <trkpt lat="48.746060" lon="2.113120">
        <ele>157.938575</ele>
        <time>2023-09-05T21:22:03.401Z</time>
      </trkpt>
      <trkpt lat="48.746044" lon="2.113102">
        <ele>157.960223</ele>
        <time>2023-09-05T21:22:03.900Z</time>
      </trkpt>
      <trkpt lat="48.745907" lon="2.113107">
        <ele>158.109140</ele>
        <time>2023-09-05T21:22:07.453Z</time>
      </trkpt>
      <trkpt lat="48.745907" lon="2.113107">
        <ele>158.109140</ele>
        <time>2023-09-05T21:22:07.532Z</time>
      </trkpt>
      <trkpt lat="48.745907" lon="2.113107">
        <ele>158.109140</ele>
        <time>2023-09-05T21:22:07.532Z</time>
      </trkpt>
      <trkpt lat="48.745955" lon="2.112278">
        <ele>158.621600</ele>
        <time>2023-09-05T21:22:31.002Z</time>
      </trkpt>
      <trkpt lat="48.745962" lon="2.112140">
        <ele>158.642817</ele>
        <time>2023-09-05T21:22:33.196Z</time>
      </trkpt>
      <trkpt lat="48.746004" lon="2.111914">
        <ele>158.678810</ele>
        <time>2023-09-05T21:22:36.060Z</time>
      </trkpt>
      <trkpt lat="48.746026" lon="2.111818">
        <ele>158.694389</ele>
        <time>2023-09-05T21:22:37.689Z</time>
      </trkpt>
      <trkpt lat="48.746016" lon="2.111782">
        <ele>158.700377</ele>
        <time>2023-09-05T21:22:38.306Z</time>
      </trkpt>
      <trkpt lat="48.746069" lon="2.111648">
        <ele>158.724330</ele>
        <time>2023-09-05T21:22:40.519Z</time>
      </trkpt>
      <trkpt lat="48.746065" lon="2.111569">
        <ele>158.736475</ele>
        <time>2023-09-05T21:22:41.677Z</time>
      </trkpt>
      <trkpt lat="48.746113" lon="2.111541">
        <ele>158.748431</ele>
        <time>2023-09-05T21:22:42.514Z</time>
      </trkpt>
      <trkpt lat="48.746150" lon="2.111050">
        <ele>158.824186</ele>
        <time>2023-09-05T21:22:50.238Z</time>
      </trkpt>
      <trkpt lat="48.746118" lon="2.109084">
        <ele>159.141202</ele>
        <time>2023-09-05T21:23:17.865Z</time>
      </trkpt>
      <trkpt lat="48.746187" lon="2.108731">
        <ele>159.205715</ele>
        <time>2023-09-05T21:23:23.497Z</time>
      </trkpt>
      <trkpt lat="48.746178" lon="2.108647">
        <ele>159.220627</ele>
        <time>2023-09-05T21:23:24.788Z</time>
      </trkpt>
      <trkpt lat="48.746111" lon="2.108518">
        <ele>159.249400</ele>
        <time>2023-09-05T21:23:27.286Z</time>
      </trkpt>
      <trkpt lat="48.746064" lon="2.107947">
        <ele>159.350229</ele>
        <time>2023-09-05T21:23:36.227Z</time>
      </trkpt>
      <trkpt lat="48.745948" lon="2.107593">
        <ele>159.419494</ele>
        <time>2023-09-05T21:23:42.373Z</time>
      </trkpt>
      <trkpt lat="48.745782" lon="2.107297">
        <ele>159.487581</ele>
        <time>2023-09-05T21:23:48.296Z</time>
      </trkpt>
      <trkpt lat="48.745130" lon="2.106414">
        <ele>159.638510</ele>
        <time>2023-09-05T21:24:08.318Z</time>
      </trkpt>
      <trkpt lat="48.745072" lon="2.106413">
        <ele>159.648351</ele>
        <time>2023-09-05T21:24:09.575Z</time>
      </trkpt>
      <trkpt lat="48.745488" lon="2.101263">
        <ele>159.793343</ele>
        <time>2023-09-05T21:25:15.497Z</time>
      </trkpt>
      <trkpt lat="48.745559" lon="2.100947">
        <ele>159.790223</ele>
        <time>2023-09-05T21:25:19.864Z</time>
      </trkpt>
      <trkpt lat="48.746231" lon="2.098947">
        <ele>159.586759</ele>
        <time>2023-09-05T21:25:47.732Z</time>
      </trkpt>
      <trkpt lat="48.746255" lon="2.098826">
        <ele>159.561460</ele>
        <time>2023-09-05T21:25:49.247Z</time>
      </trkpt>
      <trkpt lat="48.746184" lon="2.098794">
        <ele>159.538970</ele>
        <time>2023-09-05T21:25:50.608Z</time>
      </trkpt>
      <trkpt lat="48.745903" lon="2.098540">
        <ele>159.439640</ele>
        <time>2023-09-05T21:25:56.597Z</time>
      </trkpt>
      <trkpt lat="48.745619" lon="2.098354">
        <ele>159.345708</ele>
        <time>2023-09-05T21:26:02.242Z</time>
      </trkpt>
      <trkpt lat="48.745252" lon="2.098221">
        <ele>159.230391</ele>
        <time>2023-09-05T21:26:09.039Z</time>
      </trkpt>
      <trkpt lat="48.742728" lon="2.097869">
        <ele>157.819804</ele>
        <time>2023-09-05T21:26:54.003Z</time>
      </trkpt>
      <trkpt lat="48.742455" lon="2.097901">
        <ele>157.665467</ele>
        <time>2023-09-05T21:26:58.779Z</time>
      </trkpt>
      <trkpt lat="48.742019" lon="2.098052">
        <ele>157.413385</ele>
        <time>2023-09-05T21:27:06.684Z</time>
      </trkpt>
      <trkpt lat="48.741731" lon="2.098035">
        <ele>157.250930</ele>
        <time>2023-09-05T21:27:11.800Z</time>
      </trkpt>
      <trkpt lat="48.741394" lon="2.097959">
        <ele>157.119477</ele>
        <time>2023-09-05T21:27:17.936Z</time>
      </trkpt>
      <trkpt lat="48.740820" lon="2.097768">
        <ele>156.910891</ele>
        <time>2023-09-05T21:27:28.537Z</time>
      </trkpt>
      <trkpt lat="48.740668" lon="2.097415">
        <ele>156.812208</ele>
        <time>2023-09-05T21:27:33.887Z</time>
      </trkpt>
      <trkpt lat="48.740604" lon="2.097194">
        <ele>156.755709</ele>
        <time>2023-09-05T21:27:36.990Z</time>
      </trkpt>
      <trkpt lat="48.740638" lon="2.097100">
        <ele>156.730614</ele>
        <time>2023-09-05T21:27:38.287Z</time>
      </trkpt>
      <trkpt lat="48.740666" lon="2.096891">
        <ele>156.680693</ele>
        <time>2023-09-05T21:27:40.977Z</time>
      </trkpt>
      <trkpt lat="48.740627" lon="2.096692">
        <ele>156.632099</ele>
        <time>2023-09-05T21:27:43.582Z</time>
      </trkpt>
      <trkpt lat="48.740568" lon="2.096544">
        <ele>156.591618</ele>
        <time>2023-09-05T21:27:45.688Z</time>
      </trkpt>
      <trkpt lat="48.740547" lon="2.096489">
        <ele>156.577027</ele>
        <time>2023-09-05T21:27:46.485Z</time>
      </trkpt>
      <trkpt lat="48.740445" lon="2.096393">
        <ele>156.536072</ele>
        <time>2023-09-05T21:27:48.753Z</time>
      </trkpt>
      <trkpt lat="48.740242" lon="2.096364">
        <ele>156.466512</ele>
        <time>2023-09-05T21:27:52.495Z</time>
      </trkpt>
      <trkpt lat="48.740124" lon="2.096452">
        <ele>156.421651</ele>
        <time>2023-09-05T21:27:54.901Z</time>
      </trkpt>
      <trkpt lat="48.739989" lon="2.096373">
        <ele>156.372285</ele>
        <time>2023-09-05T21:27:57.532Z</time>
      </trkpt>
      <trkpt lat="48.739702" lon="2.095912">
        <ele>156.229655</ele>
        <time>2023-09-05T21:28:05.073Z</time>
      </trkpt>
      <trkpt lat="48.739505" lon="2.095604">
        <ele>156.133123</ele>
        <time>2023-09-05T21:28:10.268Z</time>
      </trkpt>
      <trkpt lat="48.739142" lon="2.094965">
        <ele>155.893993</ele>
        <time>2023-09-05T21:28:20.228Z</time>
      </trkpt>
      <trkpt lat="48.739006" lon="2.094787">
        <ele>155.721082</ele>
        <time>2023-09-05T21:28:23.488Z</time>
      </trkpt>
      <trkpt lat="48.738829" lon="2.094614">
        <ele>155.518403</ele>
        <time>2023-09-05T21:28:27.303Z</time>
      </trkpt>
      <trkpt lat="48.738667" lon="2.094473">
        <ele>155.338625</ele>
        <time>2023-09-05T21:28:30.837Z</time>
      </trkpt>
      <trkpt lat="48.738316" lon="2.094161">
        <ele>154.947034</ele>
        <time>2023-09-05T21:28:38.356Z</time>
      </trkpt>
      <trkpt lat="48.738156" lon="2.094019">
        <ele>154.768602</ele>
        <time>2023-09-05T21:28:41.639Z</time>
      </trkpt>
      <trkpt lat="48.738135" lon="2.093999">
        <ele>154.744734</ele>
        <time>2023-09-05T21:28:42.085Z</time>
      </trkpt>
      <trkpt lat="48.738112" lon="2.093976">
        <ele>154.718217</ele>
        <time>2023-09-05T21:28:42.597Z</time>
      </trkpt>
      <trkpt lat="48.738097" lon="2.093963">
        <ele>154.701589</ele>
        <time>2023-09-05T21:28:42.869Z</time>
      </trkpt>
      <trkpt lat="48.738005" lon="2.093883">
        <ele>154.599515</ele>
        <time>2023-09-05T21:28:44.509Z</time>
      </trkpt>
      <trkpt lat="48.737851" lon="2.093752">
        <ele>154.429566</ele>
        <time>2023-09-05T21:28:47.243Z</time>
      </trkpt>
      <trkpt lat="48.737709" lon="2.093596">
        <ele>154.260795</ele>
        <time>2023-09-05T21:28:49.877Z</time>
      </trkpt>
      <trkpt lat="48.737328" lon="2.092888">
        <ele>153.054183</ele>
        <time>2023-09-05T21:28:58.715Z</time>
      </trkpt>
      <trkpt lat="48.737074" lon="2.092501">
        <ele>152.318877</ele>
        <time>2023-09-05T21:29:04.309Z</time>
      </trkpt>
      <trkpt lat="48.736798" lon="2.092064">
        <ele>151.503999</ele>
        <time>2023-09-05T21:29:10.865Z</time>
      </trkpt>
      <trkpt lat="48.736488" lon="2.091575">
        <ele>150.590516</ele>
        <time>2023-09-05T21:29:18.317Z</time>
      </trkpt>
      <trkpt lat="48.736437" lon="2.091458">
        <ele>150.176848</ele>
        <time>2023-09-05T21:29:19.688Z</time>
      </trkpt>
      <trkpt lat="48.736373" lon="2.091328">
        <ele>149.660393</ele>
        <time>2023-09-05T21:29:21.243Z</time>
      </trkpt>
      <trkpt lat="48.736393" lon="2.091146">
        <ele>149.072992</ele>
        <time>2023-09-05T21:29:23.075Z</time>
      </trkpt>
      <trkpt lat="48.736439" lon="2.090495">
        <ele>146.988614</ele>
        <time>2023-09-05T21:29:29.052Z</time>
      </trkpt>
      <trkpt lat="48.736375" lon="2.089554">
        <ele>143.976969</ele>
        <time>2023-09-05T21:29:37.481Z</time>
      </trkpt>
      <trkpt lat="48.736221" lon="2.089294">
        <ele>142.864427</ele>
        <time>2023-09-05T21:29:40.449Z</time>
      </trkpt>
      <trkpt lat="48.736096" lon="2.089277">
        <ele>142.258617</ele>
        <time>2023-09-05T21:29:42.093Z</time>
      </trkpt>
      <trkpt lat="48.735596" lon="2.089240">
        <ele>137.193738</ele>
        <time>2023-09-05T21:29:53.052Z</time>
      </trkpt>
      <trkpt lat="48.735095" lon="2.089317">
        <ele>131.610324</ele>
        <time>2023-09-05T21:30:03.509Z</time>
      </trkpt>
      <trkpt lat="48.735401" lon="2.088320">
        <ele>123.568691</ele>
        <time>2023-09-05T21:30:11.869Z</time>
      </trkpt>
      <trkpt lat="48.735403" lon="2.088243">
        <ele>123.005172</ele>
        <time>2023-09-05T21:30:12.458Z</time>
      </trkpt>
      <trkpt lat="48.735362" lon="2.088088">
        <ele>121.866493</ele>
        <time>2023-09-05T21:30:13.751Z</time>
      </trkpt>
      <trkpt lat="48.734991" lon="2.087456">
        <ele>118.923944</ele>
        <time>2023-09-05T21:30:20.409Z</time>
      </trkpt>
      <trkpt lat="48.734681" lon="2.087042">
        <ele>116.745556</ele>
        <time>2023-09-05T21:30:25.570Z</time>
      </trkpt>
      <trkpt lat="48.734645" lon="2.086993">
        <ele>116.490450</ele>
        <time>2023-09-05T21:30:26.217Z</time>
      </trkpt>
      <trkpt lat="48.734524" lon="2.086792">
        <ele>115.543982</ele>
        <time>2023-09-05T21:30:28.689Z</time>
      </trkpt>
      <trkpt lat="48.734334" lon="2.086655">
        <ele>114.434548</ele>
        <time>2023-09-05T21:30:31.764Z</time>
      </trkpt>
      <trkpt lat="48.734088" lon="2.086610">
        <ele>113.127937</ele>
        <time>2023-09-05T21:30:36.037Z</time>
      </trkpt>
      <trkpt lat="48.734121" lon="2.086467">
        <ele>112.601026</ele>
        <time>2023-09-05T21:30:39.057Z</time>
      </trkpt>
      <trkpt lat="48.734133" lon="2.086408">
        <ele>112.582545</ele>
        <time>2023-09-05T21:30:40.962Z</time>
      </trkpt>
      <trkpt lat="48.734174" lon="2.086206">
        <ele>113.893657</ele>
        <time>2023-09-05T21:30:46.036Z</time>
      </trkpt>
      <trkpt lat="48.734158" lon="2.085970">
        <ele>115.365407</ele>
        <time>2023-09-05T21:30:53.168Z</time>
      </trkpt>
      <trkpt lat="48.733779" lon="2.084681">
        <ele>124.120397</ele>
        <time>2023-09-05T21:31:58.009Z</time>
      </trkpt>
      <trkpt lat="48.733689" lon="2.084596">
        <ele>125.117710</ele>
        <time>2023-09-05T21:32:08.161Z</time>
      </trkpt>
      <trkpt lat="48.733070" lon="2.083360">
        <ele>137.143576</ele>
        <time>2023-09-05T21:33:57.626Z</time>
      </trkpt>
      <trkpt lat="48.732383" lon="2.082359">
        <ele>150.107200</ele>
        <time>2023-09-05T21:35:38.679Z</time>
      </trkpt>
      <trkpt lat="48.732342" lon="2.082297">
        <ele>150.895061</ele>
        <time>2023-09-05T21:35:43.817Z</time>
      </trkpt>
      <trkpt lat="48.731469" lon="2.081567">
        <ele>158.232397</ele>
        <time>2023-09-05T21:36:48.102Z</time>
      </trkpt>
      <trkpt lat="48.731193" lon="2.082111">
        <ele>160.777978</ele>
        <time>2023-09-05T21:37:11.886Z</time>
      </trkpt>
      <trkpt lat="48.731105" lon="2.082028">
        <ele>161.360770</ele>
        <time>2023-09-05T21:37:15.848Z</time>
      </trkpt>
      <trkpt lat="48.730583" lon="2.081540">
        <ele>163.935376</ele>
        <time>2023-09-05T21:37:38.791Z</time>
      </trkpt>
      <trkpt lat="48.730201" lon="2.081278">
        <ele>163.867432</ele>
        <time>2023-09-05T21:37:52.725Z</time>
      </trkpt>
      <trkpt lat="48.730045" lon="2.081406">
        <ele>163.838686</ele>
        <time>2023-09-05T21:37:58.163Z</time>
      </trkpt>
      <trkpt lat="48.729967" lon="2.081373">
        <ele>163.825563</ele>
        <time>2023-09-05T21:38:00.778Z</time>
      </trkpt>
      <trkpt lat="48.729765" lon="2.081088">
        <ele>163.780846</ele>
        <time>2023-09-05T21:38:08.792Z</time>
      </trkpt>
      <trkpt lat="48.728912" lon="2.081396">
        <ele>163.685193</ele>
        <time>2023-09-05T21:38:25.903Z</time>
      </trkpt>
      <trkpt lat="48.728881" lon="2.081317">
        <ele>163.690768</ele>
        <time>2023-09-05T21:38:27.135Z</time>
      </trkpt>
      <trkpt lat="48.728862" lon="2.081256">
        <ele>163.694859</ele>
        <time>2023-09-05T21:38:27.946Z</time>
      </trkpt>
      <trkpt lat="48.728773" lon="2.081251">
        <ele>163.703048</ele>
        <time>2023-09-05T21:38:29.601Z</time>
      </trkpt>
      <trkpt lat="48.728715" lon="2.081196">
        <ele>163.709338</ele>
        <time>2023-09-05T21:38:31.009Z</time>
      </trkpt>
      <trkpt lat="48.728627" lon="2.081031">
        <ele>163.722206</ele>
        <time>2023-09-05T21:38:33.774Z</time>
      </trkpt>
      <trkpt lat="48.728609" lon="2.080899">
        <ele>163.730381</ele>
        <time>2023-09-05T21:38:35.515Z</time>
      </trkpt>
      <trkpt lat="48.728621" lon="2.080814">
        <ele>163.735653</ele>
        <time>2023-09-05T21:38:36.669Z</time>
      </trkpt>
      <trkpt lat="48.728701" lon="2.080617">
        <ele>163.749683</ele>
        <time>2023-09-05T21:38:40.017Z</time>
      </trkpt>
      <trkpt lat="48.728938" lon="2.080043">
        <ele>163.790752</ele>
        <time>2023-09-05T21:38:49.536Z</time>
      </trkpt>
      <trkpt lat="48.729081" lon="2.079663">
        <ele>163.817285</ele>
        <time>2023-09-05T21:38:55.620Z</time>
      </trkpt>
      <trkpt lat="48.729140" lon="2.079398">
        <ele>163.834543</ele>
        <time>2023-09-05T21:38:59.441Z</time>
      </trkpt>
      <trkpt lat="48.729172" lon="2.079038">
        <ele>163.869780</ele>
        <time>2023-09-05T21:39:04.314Z</time>
      </trkpt>
      <trkpt lat="48.729155" lon="2.078676">
        <ele>163.904983</ele>
        <time>2023-09-05T21:39:09.149Z</time>
      </trkpt>
      <trkpt lat="48.729167" lon="2.078561">
        <ele>163.916277</ele>
        <time>2023-09-05T21:39:10.641Z</time>
      </trkpt>
      <trkpt lat="48.729091" lon="2.078282">
        <ele>163.945558</ele>
        <time>2023-09-05T21:39:14.674Z</time>
      </trkpt>
      <trkpt lat="48.729028" lon="2.078128">
        <ele>163.963136</ele>
        <time>2023-09-05T21:39:17.081Z</time>
      </trkpt>
      <trkpt lat="48.728723" lon="2.077959">
        <ele>164.010891</ele>
        <time>2023-09-05T21:39:23.750Z</time>
      </trkpt>
      <trkpt lat="48.728194" lon="2.077514">
        <ele>164.087804</ele>
        <time>2023-09-05T21:39:35.658Z</time>
      </trkpt>
      <trkpt lat="48.727556" lon="2.076960">
        <ele>163.381660</ele>
        <time>2023-09-05T21:39:50.882Z</time>
      </trkpt>
      <trkpt lat="48.726048" lon="2.075602">
        <ele>160.931090</ele>
        <time>2023-09-05T21:40:40.381Z</time>
      </trkpt>
      <trkpt lat="48.725729" lon="2.075289">
        <ele>160.151211</ele>
        <time>2023-09-05T21:40:50.525Z</time>
      </trkpt>
      <trkpt lat="48.724918" lon="2.074660">
        <ele>158.382502</ele>
        <time>2023-09-05T21:41:14.834Z</time>
      </trkpt>
      <trkpt lat="48.724052" lon="2.073845">
        <ele>156.821450</ele>
        <time>2023-09-05T21:41:43.025Z</time>
      </trkpt>
      <trkpt lat="48.723984" lon="2.073639">
        <ele>156.588730</ele>
        <time>2023-09-05T21:41:47.469Z</time>
      </trkpt>
      <trkpt lat="48.723960" lon="2.073241">
        <ele>156.184959</ele>
        <time>2023-09-05T21:41:55.222Z</time>
      </trkpt>
      <trkpt lat="48.723984" lon="2.073088">
        <ele>156.026075</ele>
        <time>2023-09-05T21:41:58.409Z</time>
      </trkpt>
      <trkpt lat="48.723834" lon="2.072847">
        <ele>155.782615</ele>
        <time>2023-09-05T21:42:05.089Z</time>
      </trkpt>
      <trkpt lat="48.723245" lon="2.072309">
        <ele>155.141281</ele>
        <time>2023-09-05T21:42:26.812Z</time>
      </trkpt>
      <trkpt lat="48.723180" lon="2.072037">
        <ele>154.963293</ele>
        <time>2023-09-05T21:42:33.002Z</time>
      </trkpt>
      <trkpt lat="48.722695" lon="2.071381">
        <ele>154.357082</ele>
        <time>2023-09-05T21:42:52.062Z</time>
      </trkpt>
      <trkpt lat="48.722449" lon="2.070994">
        <ele>152.692250</ele>
        <time>2023-09-05T21:43:01.510Z</time>
      </trkpt>
      <trkpt lat="48.722076" lon="2.070597">
        <ele>149.699841</ele>
        <time>2023-09-05T21:43:12.680Z</time>
      </trkpt>
      <trkpt lat="48.721691" lon="2.070308">
        <ele>146.879086</ele>
        <time>2023-09-05T21:43:22.585Z</time>
      </trkpt>
      <trkpt lat="48.721197" lon="2.069764">
        <ele>142.870070</ele>
        <time>2023-09-05T21:43:35.947Z</time>
      </trkpt>
      <trkpt lat="48.720979" lon="2.069564">
        <ele>139.961556</ele>
        <time>2023-09-05T21:43:41.323Z</time>
      </trkpt>
      <trkpt lat="48.720537" lon="2.069351">
        <ele>133.884951</ele>
        <time>2023-09-05T21:43:50.962Z</time>
      </trkpt>
      <trkpt lat="48.720152" lon="2.069409">
        <ele>128.815914</ele>
        <time>2023-09-05T21:43:58.827Z</time>
      </trkpt>
      <trkpt lat="48.719780" lon="2.069381">
        <ele>123.936048</ele>
        <time>2023-09-05T21:44:06.337Z</time>
      </trkpt>
      <trkpt lat="48.719780" lon="2.069381">
        <ele>123.936048</ele>
        <time>2023-09-05T21:44:06.347Z</time>
      </trkpt>
      <trkpt lat="48.719404" lon="2.069305">
        <ele>118.966171</ele>
        <time>2023-09-05T21:44:14.074Z</time>
      </trkpt>
      <trkpt lat="48.718978" lon="2.068982">
        <ele>114.071331</ele>
        <time>2023-09-05T21:44:23.945Z</time>
      </trkpt>
      <trkpt lat="48.718727" lon="2.068467">
        <ele>109.748513</ele>
        <time>2023-09-05T21:44:32.819Z</time>
      </trkpt>
      <trkpt lat="48.718772" lon="2.068283">
        <ele>108.423647</ele>
        <time>2023-09-05T21:44:35.564Z</time>
      </trkpt>
      <trkpt lat="48.719101" lon="2.067396">
        <ele>101.553647</ele>
        <time>2023-09-05T21:44:50.266Z</time>
      </trkpt>
      <trkpt lat="48.719315" lon="2.067023">
        <ele>99.741385</ele>
        <time>2023-09-05T21:44:57.986Z</time>
      </trkpt>
      <trkpt lat="48.719454" lon="2.066782">
        <ele>99.044799</ele>
        <time>2023-09-05T21:45:03.243Z</time>
      </trkpt>
      <trkpt lat="48.719404" lon="2.066453">
        <ele>98.310118</ele>
        <time>2023-09-05T21:45:09.083Z</time>
      </trkpt>
      <trkpt lat="48.719411" lon="2.066217">
        <ele>97.796043</ele>
        <time>2023-09-05T21:45:13.348Z</time>
      </trkpt>
      <trkpt lat="48.719709" lon="2.066082">
        <ele>96.770169</ele>
        <time>2023-09-05T21:45:21.935Z</time>
      </trkpt>
      <trkpt lat="48.720129" lon="2.066027">
        <ele>95.379696</ele>
        <time>2023-09-05T21:45:33.414Z</time>
      </trkpt>
      <trkpt lat="48.720488" lon="2.065926">
        <ele>94.305006</ele>
        <time>2023-09-05T21:45:43.208Z</time>
      </trkpt>
      <trkpt lat="48.720789" lon="2.065705">
        <ele>93.600497</ele>
        <time>2023-09-05T21:45:52.250Z</time>
      </trkpt>
      <trkpt lat="48.720968" lon="2.065527">
        <ele>93.149544</ele>
        <time>2023-09-05T21:45:58.427Z</time>
      </trkpt>
      <trkpt lat="48.721082" lon="2.065334">
        <ele>92.789543</ele>
        <time>2023-09-05T21:46:03.328Z</time>
      </trkpt>
      <trkpt lat="48.721257" lon="2.064811">
        <ele>91.974604</ele>
        <time>2023-09-05T21:46:13.769Z</time>
      </trkpt>
      <trkpt lat="48.721437" lon="2.064369">
        <ele>91.252769</ele>
        <time>2023-09-05T21:46:22.860Z</time>
      </trkpt>
      <trkpt lat="48.721711" lon="2.063943">
        <ele>90.786628</ele>
        <time>2023-09-05T21:46:33.315Z</time>
      </trkpt>
      <trkpt lat="48.721804" lon="2.063758">
        <ele>90.828373</ele>
        <time>2023-09-05T21:46:37.504Z</time>
      </trkpt>
      <trkpt lat="48.721816" lon="2.063630">
        <ele>90.851577</ele>
        <time>2023-09-05T21:46:39.843Z</time>
      </trkpt>
      <trkpt lat="48.721613" lon="2.063255">
        <ele>90.938640</ele>
        <time>2023-09-05T21:46:49.062Z</time>
      </trkpt>
      <trkpt lat="48.721556" lon="2.063155">
        <ele>90.962359</ele>
        <time>2023-09-05T21:46:51.654Z</time>
      </trkpt>
      <trkpt lat="48.721053" lon="2.062277">
        <ele>91.171067</ele>
        <time>2023-09-05T21:47:18.344Z</time>
      </trkpt>
      <trkpt lat="48.720462" lon="2.060684">
        <ele>97.939418</ele>
        <time>2023-09-05T21:48:23.592Z</time>
      </trkpt>
      <trkpt lat="48.720276" lon="2.060080">
        <ele>100.973375</ele>
        <time>2023-09-05T21:48:54.433Z</time>
      </trkpt>
      <trkpt lat="48.719757" lon="2.058064">
        <ele>116.014210</ele>
        <time>2023-09-05T21:50:53.450Z</time>
      </trkpt>
      <trkpt lat="48.719696" lon="2.057893">
        <ele>117.538780</ele>
        <time>2023-09-05T21:51:04.088Z</time>
      </trkpt>
      <trkpt lat="48.719609" lon="2.057473">
        <ele>120.991215</ele>
        <time>2023-09-05T21:51:32.281Z</time>
      </trkpt>
      <trkpt lat="48.719638" lon="2.057294">
        <ele>122.436749</ele>
        <time>2023-09-05T21:51:43.460Z</time>
      </trkpt>
      <trkpt lat="48.719575" lon="2.057107">
        <ele>124.083466</ele>
        <time>2023-09-05T21:51:56.166Z</time>
      </trkpt>
      <trkpt lat="48.719274" lon="2.056970">
        <ele>127.099009</ele>
        <time>2023-09-05T21:52:23.028Z</time>
      </trkpt>
      <trkpt lat="48.719096" lon="2.056912">
        <ele>128.705336</ele>
        <time>2023-09-05T21:52:37.341Z</time>
      </trkpt>
      <trkpt lat="48.718910" lon="2.056747">
        <ele>130.606762</ele>
        <time>2023-09-05T21:52:55.481Z</time>
      </trkpt>
      <trkpt lat="48.718770" lon="2.056623">
        <ele>132.037376</ele>
        <time>2023-09-05T21:53:07.587Z</time>
      </trkpt>
      <trkpt lat="48.718671" lon="2.056306">
        <ele>134.078878</ele>
        <time>2023-09-05T21:53:26.176Z</time>
      </trkpt>
      <trkpt lat="48.718635" lon="2.055965">
        <ele>136.089046</ele>
        <time>2023-09-05T21:53:42.634Z</time>
      </trkpt>
      <trkpt lat="48.718491" lon="2.055732">
        <ele>137.947422</ele>
        <time>2023-09-05T21:53:56.036Z</time>
      </trkpt>
      <trkpt lat="48.718404" lon="2.055302">
        <ele>140.565457</ele>
        <time>2023-09-05T21:54:14.763Z</time>
      </trkpt>
      <trkpt lat="48.718360" lon="2.054793">
        <ele>143.104203</ele>
        <time>2023-09-05T21:54:36.425Z</time>
      </trkpt>
      <trkpt lat="48.718317" lon="2.054504">
        <ele>144.537288</ele>
        <time>2023-09-05T21:54:49.751Z</time>
      </trkpt>
      <trkpt lat="48.718297" lon="2.054021">
        <ele>146.878296</ele>
        <time>2023-09-05T21:55:11.095Z</time>
      </trkpt>
      <trkpt lat="48.718271" lon="2.053489">
        <ele>149.458786</ele>
        <time>2023-09-05T21:55:34.881Z</time>
      </trkpt>
      <trkpt lat="48.718007" lon="2.052405">
        <ele>155.002278</ele>
        <time>2023-09-05T21:56:30.381Z</time>
      </trkpt>
      <trkpt lat="48.716809" lon="2.052586">
        <ele>163.409454</ele>
        <time>2023-09-05T21:57:54.978Z</time>
      </trkpt>
      <trkpt lat="48.716296" lon="2.052849">
        <ele>166.881435</ele>
        <time>2023-09-05T21:58:27.371Z</time>
      </trkpt>
      <trkpt lat="48.715567" lon="2.053419">
        <ele>169.381757</ele>
        <time>2023-09-05T21:59:09.642Z</time>
      </trkpt>
      <trkpt lat="48.714946" lon="2.053498">
        <ele>171.281277</ele>
        <time>2023-09-05T21:59:36.718Z</time>
      </trkpt>
      <trkpt lat="48.714249" lon="2.053385">
        <ele>172.185543</ele>
        <time>2023-09-05T22:00:01.081Z</time>
      </trkpt>
      <trkpt lat="48.713279" lon="2.053053">
        <ele>172.329830</ele>
        <time>2023-09-05T22:00:32.636Z</time>
      </trkpt>
      <trkpt lat="48.712978" lon="2.052849">
        <ele>172.377671</ele>
        <time>2023-09-05T22:00:38.639Z</time>
      </trkpt>
      <trkpt lat="48.712741" lon="2.052511">
        <ele>172.193946</ele>
        <time>2023-09-05T22:00:44.470Z</time>
      </trkpt>
      <trkpt lat="48.712560" lon="2.051824">
        <ele>171.855549</ele>
        <time>2023-09-05T22:00:53.118Z</time>
      </trkpt>
      <trkpt lat="48.712479" lon="2.051513">
        <ele>171.702599</ele>
        <time>2023-09-05T22:00:57.047Z</time>
      </trkpt>
      <trkpt lat="48.712302" lon="2.050762">
        <ele>171.337792</ele>
        <time>2023-09-05T22:01:06.267Z</time>
      </trkpt>
      <trkpt lat="48.711809" lon="2.048973">
        <ele>168.729404</ele>
        <time>2023-09-05T22:01:27.270Z</time>
      </trkpt>
      <trkpt lat="48.711706" lon="2.047352">
        <ele>165.645771</ele>
        <time>2023-09-05T22:01:42.298Z</time>
      </trkpt>
      <trkpt lat="48.711686" lon="2.047112">
        <ele>164.975557</ele>
        <time>2023-09-05T22:01:44.445Z</time>
      </trkpt>
      <trkpt lat="48.711644" lon="2.046958">
        <ele>164.513884</ele>
        <time>2023-09-05T22:01:45.945Z</time>
      </trkpt>
      <trkpt lat="48.711564" lon="2.046667">
        <ele>163.640477</ele>
        <time>2023-09-05T22:01:48.756Z</time>
      </trkpt>
      <trkpt lat="48.711555" lon="2.046291">
        <ele>162.598063</ele>
        <time>2023-09-05T22:01:52.114Z</time>
      </trkpt>
      <trkpt lat="48.711583" lon="2.045541">
        <ele>160.516821</ele>
        <time>2023-09-05T22:01:58.807Z</time>
      </trkpt>
      <trkpt lat="48.711587" lon="2.045484">
        <ele>160.358009</ele>
        <time>2023-09-05T22:01:59.303Z</time>
      </trkpt>
      <trkpt lat="48.711654" lon="2.043307">
        <ele>155.043328</ele>
        <time>2023-09-05T22:02:19.754Z</time>
      </trkpt>
      <trkpt lat="48.711537" lon="2.042985">
        <ele>154.175411</ele>
        <time>2023-09-05T22:02:23.551Z</time>
      </trkpt>
      <trkpt lat="48.711550" lon="2.042816">
        <ele>153.773684</ele>
        <time>2023-09-05T22:02:25.248Z</time>
      </trkpt>
      <trkpt lat="48.711511" lon="2.042377">
        <ele>152.652226</ele>
        <time>2023-09-05T22:02:29.408Z</time>
      </trkpt>
      <trkpt lat="48.711427" lon="2.042079">
        <ele>150.747088</ele>
        <time>2023-09-05T22:02:32.315Z</time>
      </trkpt>
      <trkpt lat="48.711310" lon="2.041701">
        <ele>148.292431</ele>
        <time>2023-09-05T22:02:35.881Z</time>
      </trkpt>
      <trkpt lat="48.711298" lon="2.041482">
        <ele>147.000469</ele>
        <time>2023-09-05T22:02:37.666Z</time>
      </trkpt>
      <trkpt lat="48.711152" lon="2.041442">
        <ele>145.678559</ele>
        <time>2023-09-05T22:02:39.464Z</time>
      </trkpt>
      <trkpt lat="48.711092" lon="2.041444">
        <ele>145.143844</ele>
        <time>2023-09-05T22:02:40.185Z</time>
      </trkpt>
      <trkpt lat="48.710848" lon="2.041323">
        <ele>142.856432</ele>
        <time>2023-09-05T22:02:43.656Z</time>
      </trkpt>
      <trkpt lat="48.710487" lon="2.041100">
        <ele>139.383068</ele>
        <time>2023-09-05T22:02:48.883Z</time>
      </trkpt>
      <trkpt lat="48.710434" lon="2.041145">
        <ele>138.841789</ele>
        <time>2023-09-05T22:02:49.702Z</time>
      </trkpt>
      <trkpt lat="48.710121" lon="2.041433">
        <ele>135.049967</ele>
        <time>2023-09-05T22:03:15.264Z</time>
      </trkpt>
      <trkpt lat="48.710073" lon="2.041490">
        <ele>134.261650</ele>
        <time>2023-09-05T22:03:19.588Z</time>
      </trkpt>
      <trkpt lat="48.710017" lon="2.041556">
        <ele>133.344570</ele>
        <time>2023-09-05T22:03:24.554Z</time>
      </trkpt>
      <trkpt lat="48.709776" lon="2.041591">
        <ele>130.214835</ele>
        <time>2023-09-05T22:03:41.461Z</time>
      </trkpt>
      <trkpt lat="48.709667" lon="2.041674">
        <ele>128.637888</ele>
        <time>2023-09-05T22:03:50.034Z</time>
      </trkpt>
      <trkpt lat="48.709613" lon="2.041793">
        <ele>127.405916</ele>
        <time>2023-09-05T22:03:56.699Z</time>
      </trkpt>
      <trkpt lat="48.709521" lon="2.042234">
        <ele>123.460503</ele>
        <time>2023-09-05T22:04:18.065Z</time>
      </trkpt>
      <trkpt lat="48.709484" lon="2.042207">
        <ele>122.929630</ele>
        <time>2023-09-05T22:04:20.924Z</time>
      </trkpt>
      <trkpt lat="48.709465" lon="2.041942">
        <ele>120.655774</ele>
        <time>2023-09-05T22:04:33.257Z</time>
      </trkpt>
      <trkpt lat="48.709474" lon="2.041656">
        <ele>118.213311</ele>
        <time>2023-09-05T22:04:46.440Z</time>
      </trkpt>
      <trkpt lat="48.709451" lon="2.041622">
        <ele>117.797953</ele>
        <time>2023-09-05T22:04:48.730Z</time>
      </trkpt>
      <trkpt lat="48.709423" lon="2.041634">
        <ele>117.421794</ele>
        <time>2023-09-05T22:04:50.737Z</time>
      </trkpt>
      <trkpt lat="48.709308" lon="2.041889">
        <ele>114.787065</ele>
        <time>2023-09-05T22:05:05.006Z</time>
      </trkpt>
      <trkpt lat="48.709218" lon="2.042331">
        <ele>111.710291</ele>
        <time>2023-09-05T22:05:26.324Z</time>
      </trkpt>
      <trkpt lat="48.709185" lon="2.042316">
        <ele>111.410410</ele>
        <time>2023-09-05T22:05:28.689Z</time>
      </trkpt>
      <trkpt lat="48.709095" lon="2.042058">
        <ele>109.734206</ele>
        <time>2023-09-05T22:05:42.142Z</time>
      </trkpt>
      <trkpt lat="48.709051" lon="2.041735">
        <ele>107.839859</ele>
        <time>2023-09-05T22:05:44.913Z</time>
      </trkpt>
      <trkpt lat="48.709028" lon="2.040934">
        <ele>103.234765</ele>
        <time>2023-09-05T22:05:51.822Z</time>
      </trkpt>
      <trkpt lat="48.709002" lon="2.040820">
        <ele>102.541971</ele>
        <time>2023-09-05T22:05:52.864Z</time>
      </trkpt>
      <trkpt lat="48.708928" lon="2.040734">
        <ele>101.730259</ele>
        <time>2023-09-05T22:05:54.047Z</time>
      </trkpt>
      <trkpt lat="48.709021" lon="2.040385">
        <ele>99.568414</ele>
        <time>2023-09-05T22:05:58.422Z</time>
      </trkpt>
      <trkpt lat="48.709035" lon="2.040241">
        <ele>98.732386</ele>
        <time>2023-09-05T22:06:00.053Z</time>
      </trkpt>
      <trkpt lat="48.708992" lon="2.040199">
        <ele>98.287098</ele>
        <time>2023-09-05T22:06:00.939Z</time>
      </trkpt>
      <trkpt lat="48.708811" lon="2.040208">
        <ele>97.255254</ele>
        <time>2023-09-05T22:06:04.317Z</time>
      </trkpt>
      <trkpt lat="48.708614" lon="2.040074">
        <ele>96.277271</ele>
        <time>2023-09-05T22:06:08.184Z</time>
      </trkpt>
      <trkpt lat="48.708665" lon="2.039907">
        <ele>95.727305</ele>
        <time>2023-09-05T22:06:09.958Z</time>
      </trkpt>
      <trkpt lat="48.708681" lon="2.039674">
        <ele>95.027184</ele>
        <time>2023-09-05T22:06:12.011Z</time>
      </trkpt>
      <trkpt lat="48.708669" lon="2.038916">
        <ele>92.761119</ele>
        <time>2023-09-05T22:06:18.846Z</time>
      </trkpt>
      <trkpt lat="48.708809" lon="2.038646">
        <ele>91.734865</ele>
        <time>2023-09-05T22:06:22.012Z</time>
      </trkpt>
      <trkpt lat="48.708847" lon="2.038598">
        <ele>91.510813</ele>
        <time>2023-09-05T22:06:22.674Z</time>
      </trkpt>
      <trkpt lat="48.709396" lon="2.037959">
        <ele>88.807134</ele>
        <time>2023-09-05T22:06:32.496Z</time>
      </trkpt>
      <trkpt lat="48.709365" lon="2.037968">
        <ele>88.710770</ele>
        <time>2023-09-05T22:06:32.938Z</time>
      </trkpt>
      <trkpt lat="48.709305" lon="2.037914">
        <ele>88.497720</ele>
        <time>2023-09-05T22:06:33.924Z</time>
      </trkpt>
      <trkpt lat="48.708982" lon="2.037005">
        <ele>86.417800</ele>
        <time>2023-09-05T22:06:44.036Z</time>
      </trkpt>
      <trkpt lat="48.708915" lon="2.036906">
        <ele>86.132106</ele>
        <time>2023-09-05T22:06:45.382Z</time>
      </trkpt>
      <trkpt lat="48.708744" lon="2.036821">
        <ele>85.582674</ele>
        <time>2023-09-05T22:06:48.056Z</time>
      </trkpt>
      <trkpt lat="48.708627" lon="2.036865">
        <ele>85.214637</ele>
        <time>2023-09-05T22:06:49.765Z</time>
      </trkpt>
      <trkpt lat="48.708276" lon="2.037101">
        <ele>84.132272</ele>
        <time>2023-09-05T22:06:55.252Z</time>
      </trkpt>
      <trkpt lat="48.707975" lon="2.037229">
        <ele>83.694732</ele>
        <time>2023-09-05T22:06:59.748Z</time>
      </trkpt>
      <trkpt lat="48.707806" lon="2.037253">
        <ele>83.457170</ele>
        <time>2023-09-05T22:07:02.283Z</time>
      </trkpt>
      <trkpt lat="48.707476" lon="2.037314">
        <ele>82.991892</ele>
        <time>2023-09-05T22:07:07.509Z</time>
      </trkpt>
      <trkpt lat="48.707425" lon="2.037354">
        <ele>82.911521</ele>
        <time>2023-09-05T22:07:08.452Z</time>
      </trkpt>
      <trkpt lat="48.707361" lon="2.037434">
        <ele>82.795407</ele>
        <time>2023-09-05T22:07:09.838Z</time>
      </trkpt>
      <trkpt lat="48.707271" lon="2.037234">
        <ele>82.571832</ele>
        <time>2023-09-05T22:07:12.559Z</time>
      </trkpt>
      <trkpt lat="48.706852" lon="2.036702">
        <ele>81.806781</ele>
        <time>2023-09-05T22:07:22.653Z</time>
      </trkpt>
      <trkpt lat="48.706644" lon="2.036357">
        <ele>82.176723</ele>
        <time>2023-09-05T22:07:28.906Z</time>
      </trkpt>
      <trkpt lat="48.706522" lon="2.035867">
        <ele>82.920152</ele>
        <time>2023-09-05T22:07:37.038Z</time>
      </trkpt>
      <trkpt lat="48.706473" lon="2.035508">
        <ele>83.440551</ele>
        <time>2023-09-05T22:07:43.613Z</time>
      </trkpt>
      <trkpt lat="48.706338" lon="2.034057">
        <ele>85.520667</ele>
        <time>2023-09-05T22:08:17.222Z</time>
      </trkpt>
      <trkpt lat="48.706468" lon="2.034007">
        <ele>86.095501</ele>
        <time>2023-09-05T22:08:22.603Z</time>
      </trkpt>
      <trkpt lat="48.707112" lon="2.033478">
        <ele>89.483034</ele>
        <time>2023-09-05T22:08:52.563Z</time>
      </trkpt>
      <trkpt lat="48.707767" lon="2.033019">
        <ele>92.820221</ele>
        <time>2023-09-05T22:09:23.133Z</time>
      </trkpt>
      <trkpt lat="48.707890" lon="2.032931">
        <ele>93.449232</ele>
        <time>2023-09-05T22:09:29.191Z</time>
      </trkpt>
      <trkpt lat="48.708174" lon="2.032772">
        <ele>95.649870</ele>
        <time>2023-09-05T22:09:42.493Z</time>
      </trkpt>
      <trkpt lat="48.707381" lon="2.031162">
        <ele>106.832683</ele>
        <time>2023-09-05T22:11:16.520Z</time>
      </trkpt>
      <trkpt lat="48.707574" lon="2.030848">
        <ele>109.373316</ele>
        <time>2023-09-05T22:11:38.655Z</time>
      </trkpt>
      <trkpt lat="48.707724" lon="2.030503">
        <ele>113.709532</ele>
        <time>2023-09-05T22:12:02.366Z</time>
      </trkpt>
      <trkpt lat="48.707951" lon="2.029609">
        <ele>123.763089</ele>
        <time>2023-09-05T22:13:05.064Z</time>
      </trkpt>
      <trkpt lat="48.707897" lon="2.029216">
        <ele>127.976259</ele>
        <time>2023-09-05T22:13:34.149Z</time>
      </trkpt>
      <trkpt lat="48.707466" lon="2.027986">
        <ele>141.644751</ele>
        <time>2023-09-05T22:15:16.151Z</time>
      </trkpt>
      <trkpt lat="48.707291" lon="2.027239">
        <ele>148.366568</ele>
        <time>2023-09-05T22:16:06.537Z</time>
      </trkpt>
      <trkpt lat="48.707259" lon="2.026486">
        <ele>154.765180</ele>
        <time>2023-09-05T22:16:45.964Z</time>
      </trkpt>
      <trkpt lat="48.707216" lon="2.026267">
        <ele>156.702746</ele>
        <time>2023-09-05T22:16:56.299Z</time>
      </trkpt>
      <trkpt lat="48.707116" lon="2.025676">
        <ele>161.069157</ele>
        <time>2023-09-05T22:17:20.929Z</time>
      </trkpt>
      <trkpt lat="48.706955" lon="2.025106">
        <ele>162.493513</ele>
        <time>2023-09-05T22:17:40.675Z</time>
      </trkpt>
      <trkpt lat="48.706881" lon="2.024700">
        <ele>163.461133</ele>
        <time>2023-09-05T22:17:51.494Z</time>
      </trkpt>
      <trkpt lat="48.706851" lon="2.024269">
        <ele>164.456758</ele>
        <time>2023-09-05T22:18:01.329Z</time>
      </trkpt>
      <trkpt lat="48.706988" lon="2.022566">
        <ele>167.190902</ele>
        <time>2023-09-05T22:18:32.164Z</time>
      </trkpt>
      <trkpt lat="48.707080" lon="2.021756">
        <ele>167.412231</ele>
        <time>2023-09-05T22:18:44.239Z</time>
      </trkpt>
      <trkpt lat="48.707039" lon="2.020656">
        <ele>167.708919</ele>
        <time>2023-09-05T22:19:00.329Z</time>
      </trkpt>
      <trkpt lat="48.707028" lon="2.019478">
        <ele>166.446753</ele>
        <time>2023-09-05T22:19:17.488Z</time>
      </trkpt>
      <trkpt lat="48.707365" lon="2.017601">
        <ele>163.170749</ele>
        <time>2023-09-05T22:19:39.083Z</time>
      </trkpt>
      <trkpt lat="48.705926" lon="2.016885">
        <ele>152.403313</ele>
        <time>2023-09-05T22:20:13.388Z</time>
      </trkpt>
      <trkpt lat="48.705763" lon="2.016628">
        <ele>150.477784</ele>
        <time>2023-09-05T22:20:18.375Z</time>
      </trkpt>
      <trkpt lat="48.705706" lon="2.016285">
        <ele>148.053100</ele>
        <time>2023-09-05T22:20:23.383Z</time>
      </trkpt>
      <trkpt lat="48.705756" lon="2.015652">
        <ele>143.682883</ele>
        <time>2023-09-05T22:20:32.325Z</time>
      </trkpt>
      <trkpt lat="48.705699" lon="2.015491">
        <ele>142.430428</ele>
        <time>2023-09-05T22:20:34.885Z</time>
      </trkpt>
      <trkpt lat="48.705621" lon="2.015480">
        <ele>141.616695</ele>
        <time>2023-09-05T22:20:36.563Z</time>
      </trkpt>
      <trkpt lat="48.705480" lon="2.015716">
        <ele>139.434388</ele>
        <time>2023-09-05T22:20:40.989Z</time>
      </trkpt>
      <trkpt lat="48.705267" lon="2.016424">
        <ele>134.100443</ele>
        <time>2023-09-05T22:20:51.860Z</time>
      </trkpt>
      <trkpt lat="48.705140" lon="2.017057">
        <ele>129.730825</ele>
        <time>2023-09-05T22:21:01.223Z</time>
      </trkpt>
      <trkpt lat="48.704835" lon="2.017432">
        <ele>125.873980</ele>
        <time>2023-09-05T22:21:09.659Z</time>
      </trkpt>
      <trkpt lat="48.704481" lon="2.018141">
        <ele>120.112612</ele>
        <time>2023-09-05T22:21:22.179Z</time>
      </trkpt>
      <trkpt lat="48.704396" lon="2.018913">
        <ele>115.040627</ele>
        <time>2023-09-05T22:21:33.376Z</time>
      </trkpt>
      <trkpt lat="48.704326" lon="2.019342">
        <ele>113.067830</ele>
        <time>2023-09-05T22:21:39.813Z</time>
      </trkpt>
      <trkpt lat="48.703927" lon="2.019841">
        <ele>109.628960</ele>
        <time>2023-09-05T22:21:51.633Z</time>
      </trkpt>
      <trkpt lat="48.703763" lon="2.019917">
        <ele>108.488991</ele>
        <time>2023-09-05T22:21:55.604Z</time>
      </trkpt>
      <trkpt lat="48.703707" lon="2.018516">
        <ele>102.582783</ele>
        <time>2023-09-05T22:22:07.766Z</time>
      </trkpt>
      <trkpt lat="48.703608" lon="2.017677">
        <ele>100.293866</ele>
        <time>2023-09-05T22:22:15.277Z</time>
      </trkpt>
      <trkpt lat="48.703500" lon="2.017196">
        <ele>98.929393</ele>
        <time>2023-09-05T22:22:19.988Z</time>
      </trkpt>
      <trkpt lat="48.703464" lon="2.017009">
        <ele>98.406261</ele>
        <time>2023-09-05T22:22:21.796Z</time>
      </trkpt>
      <trkpt lat="48.703432" lon="2.016666">
        <ele>97.475951</ele>
        <time>2023-09-05T22:22:24.958Z</time>
      </trkpt>
      <trkpt lat="48.703467" lon="2.015598">
        <ele>95.382750</ele>
        <time>2023-09-05T22:22:35.045Z</time>
      </trkpt>
      <trkpt lat="48.703457" lon="2.014446">
        <ele>94.570973</ele>
        <time>2023-09-05T22:22:47.094Z</time>
      </trkpt>
      <trkpt lat="48.703483" lon="2.014162">
        <ele>94.368949</ele>
        <time>2023-09-05T22:22:50.576Z</time>
      </trkpt>
      <trkpt lat="48.703629" lon="2.013732">
        <ele>94.028222</ele>
        <time>2023-09-05T22:22:57.106Z</time>
      </trkpt>
      <trkpt lat="48.703837" lon="2.013285">
        <ele>93.842956</ele>
        <time>2023-09-05T22:23:05.606Z</time>
      </trkpt>
      <trkpt lat="48.703898" lon="2.013017">
        <ele>94.057493</ele>
        <time>2023-09-05T22:23:10.507Z</time>
      </trkpt>
      <trkpt lat="48.703948" lon="2.012559">
        <ele>94.408803</ele>
        <time>2023-09-05T22:23:18.895Z</time>
      </trkpt>
      <trkpt lat="48.704115" lon="2.009418">
        <ele>96.585514</ele>
        <time>2023-09-05T22:24:10.517Z</time>
      </trkpt>
      <trkpt lat="48.704116" lon="2.009418">
        <ele>96.586420</ele>
        <time>2023-09-05T22:24:10.520Z</time>
      </trkpt>
      <trkpt lat="48.704205" lon="2.008869">
        <ele>96.924504</ele>
        <time>2023-09-05T22:24:19.201Z</time>
      </trkpt>
      <trkpt lat="48.704066" lon="2.008849">
        <ele>97.051032</ele>
        <time>2023-09-05T22:24:22.675Z</time>
      </trkpt>
      <trkpt lat="48.703732" lon="2.008814">
        <ele>97.354423</ele>
        <time>2023-09-05T22:24:32.347Z</time>
      </trkpt>
      <trkpt lat="48.704066" lon="2.008849">
        <ele>97.585805</ele>
        <time>2023-09-05T22:24:42.363Z</time>
      </trkpt>
      <trkpt lat="48.704205" lon="2.008869">
        <ele>97.672028</ele>
        <time>2023-09-05T22:24:47.073Z</time>
      </trkpt>
      <trkpt lat="48.705837" lon="2.000573">
        <ele>100.796814</ele>
        <time>2023-09-05T22:26:52.903Z</time>
      </trkpt>
      <trkpt lat="48.706020" lon="1.999871">
        <ele>100.877820</ele>
        <time>2023-09-05T22:27:02.032Z</time>
      </trkpt>
      <trkpt lat="48.707184" lon="1.995843">
        <ele>104.111183</ele>
        <time>2023-09-05T22:27:58.802Z</time>
      </trkpt>
      <trkpt lat="48.707209" lon="1.995668">
        <ele>104.757963</ele>
        <time>2023-09-05T22:28:03.209Z</time>
      </trkpt>
      <trkpt lat="48.707244" lon="1.995809">
        <ele>105.302126</ele>
        <time>2023-09-05T22:28:08.918Z</time>
      </trkpt>
      <trkpt lat="48.707250" lon="1.996308">
        <ele>107.104920</ele>
        <time>2023-09-05T22:28:28.908Z</time>
      </trkpt>
      <trkpt lat="48.707278" lon="1.996987">
        <ele>109.562396</ele>
        <time>2023-09-05T22:29:01.115Z</time>
      </trkpt>
      <trkpt lat="48.707380" lon="1.997285">
        <ele>110.775018</ele>
        <time>2023-09-05T22:29:19.519Z</time>
      </trkpt>
      <trkpt lat="48.707380" lon="1.997478">
        <ele>111.748081</ele>
        <time>2023-09-05T22:29:31.355Z</time>
      </trkpt>
      <trkpt lat="48.707514" lon="1.997811">
        <ele>114.452677</ele>
        <time>2023-09-05T22:29:53.957Z</time>
      </trkpt>
      <trkpt lat="48.707542" lon="1.998004">
        <ele>115.822966</ele>
        <time>2023-09-05T22:30:05.779Z</time>
      </trkpt>
      <trkpt lat="48.707638" lon="1.998291">
        <ele>118.054187</ele>
        <time>2023-09-05T22:30:24.289Z</time>
      </trkpt>
      <trkpt lat="48.707640" lon="1.998508">
        <ele>119.559082</ele>
        <time>2023-09-05T22:30:36.628Z</time>
      </trkpt>
      <trkpt lat="48.707579" lon="1.998777">
        <ele>121.531479</ele>
        <time>2023-09-05T22:30:52.593Z</time>
      </trkpt>
      <trkpt lat="48.707597" lon="1.999161">
        <ele>124.200972</ele>
        <time>2023-09-05T22:31:14.128Z</time>
      </trkpt>
      <trkpt lat="48.707648" lon="1.999354">
        <ele>125.642610</ele>
        <time>2023-09-05T22:31:25.096Z</time>
      </trkpt>
      <trkpt lat="48.707759" lon="1.999553">
        <ele>127.449457</ele>
        <time>2023-09-05T22:31:39.470Z</time>
      </trkpt>
      <trkpt lat="48.707765" lon="1.999664">
        <ele>128.221744</ele>
        <time>2023-09-05T22:31:45.723Z</time>
      </trkpt>
      <trkpt lat="48.707695" lon="1.999962">
        <ele>130.412577</ele>
        <time>2023-09-05T22:32:02.458Z</time>
      </trkpt>
      <trkpt lat="48.707574" lon="2.000204">
        <ele>132.501970</ele>
        <time>2023-09-05T22:32:19.165Z</time>
      </trkpt>
      <trkpt lat="48.707450" lon="2.000342">
        <ele>134.106329</ele>
        <time>2023-09-05T22:32:31.971Z</time>
      </trkpt>
      <trkpt lat="48.707397" lon="2.000457">
        <ele>135.071609</ele>
        <time>2023-09-05T22:32:40.349Z</time>
      </trkpt>
      <trkpt lat="48.707146" lon="2.001409">
        <ele>142.126478</ele>
        <time>2023-09-05T22:33:38.405Z</time>
      </trkpt>
      <trkpt lat="48.707134" lon="2.001516">
        <ele>142.873375</ele>
        <time>2023-09-05T22:33:44.530Z</time>
      </trkpt>
      <trkpt lat="48.707153" lon="2.001642">
        <ele>143.762815</ele>
        <time>2023-09-05T22:33:51.085Z</time>
      </trkpt>
      <trkpt lat="48.707249" lon="2.001761">
        <ele>145.056200</ele>
        <time>2023-09-05T22:34:00.501Z</time>
      </trkpt>
      <trkpt lat="48.707456" lon="2.001878">
        <ele>147.360112</ele>
        <time>2023-09-05T22:34:18.251Z</time>
      </trkpt>
      <trkpt lat="48.707596" lon="2.001881">
        <ele>148.820209</ele>
        <time>2023-09-05T22:34:30.319Z</time>
      </trkpt>
      <trkpt lat="48.707744" lon="2.001989">
        <ele>150.358501</ele>
        <time>2023-09-05T22:34:44.620Z</time>
      </trkpt>
      <trkpt lat="48.707901" lon="2.002236">
        <ele>152.476546</ele>
        <time>2023-09-05T22:35:04.495Z</time>
      </trkpt>
      <trkpt lat="48.707951" lon="2.002563">
        <ele>154.549604</ele>
        <time>2023-09-05T22:35:23.708Z</time>
      </trkpt>
      <trkpt lat="48.708020" lon="2.002693">
        <ele>155.579962</ele>
        <time>2023-09-05T22:35:32.886Z</time>
      </trkpt>
      <trkpt lat="48.708064" lon="2.002706">
        <ele>155.999514</ele>
        <time>2023-09-05T22:35:36.754Z</time>
      </trkpt>
      <trkpt lat="48.708186" lon="2.002616">
        <ele>157.269422</ele>
        <time>2023-09-05T22:35:48.190Z</time>
      </trkpt>
      <trkpt lat="48.708539" lon="2.002485">
        <ele>160.670780</ele>
        <time>2023-09-05T22:36:17.799Z</time>
      </trkpt>
      <trkpt lat="48.708971" lon="2.002498">
        <ele>164.714677</ele>
        <time>2023-09-05T22:36:50.211Z</time>
      </trkpt>
      <trkpt lat="48.709232" lon="2.002631">
        <ele>166.301674</ele>
        <time>2023-09-05T22:37:08.240Z</time>
      </trkpt>
      <trkpt lat="48.708861" lon="2.003795">
        <ele>169.432817</ele>
        <time>2023-09-05T22:37:43.431Z</time>
      </trkpt>
      <trkpt lat="48.708832" lon="2.004291">
        <ele>170.638957</ele>
        <time>2023-09-05T22:37:53.892Z</time>
      </trkpt>
      <trkpt lat="48.708909" lon="2.004927">
        <ele>172.205217</ele>
        <time>2023-09-05T22:38:05.054Z</time>
      </trkpt>
      <trkpt lat="48.709062" lon="2.005654">
        <ele>172.385248</ele>
        <time>2023-09-05T22:38:17.067Z</time>
      </trkpt>
      <trkpt lat="48.709260" lon="2.006265">
        <ele>172.496071</ele>
        <time>2023-09-05T22:38:26.711Z</time>
      </trkpt>
      <trkpt lat="48.709547" lon="2.006745">
        <ele>172.601526</ele>
        <time>2023-09-05T22:38:35.070Z</time>
      </trkpt>
      <trkpt lat="48.710043" lon="2.007272">
        <ele>172.600721</ele>
        <time>2023-09-05T22:38:46.867Z</time>
      </trkpt>
      <trkpt lat="48.710459" lon="2.007621">
        <ele>172.300157</ele>
        <time>2023-09-05T22:38:55.673Z</time>
      </trkpt>
      <trkpt lat="48.710626" lon="2.007642">
        <ele>172.194231</ele>
        <time>2023-09-05T22:38:58.601Z</time>
      </trkpt>
      <trkpt lat="48.711701" lon="2.008528">
        <ele>171.335016</ele>
        <time>2023-09-05T22:39:34.849Z</time>
      </trkpt>
      <trkpt lat="48.713466" lon="2.007553">
        <ele>169.350705</ele>
        <time>2023-09-05T22:40:29.671Z</time>
      </trkpt>
      <trkpt lat="48.714128" lon="2.008892">
        <ele>167.830004</ele>
        <time>2023-09-05T22:41:01.253Z</time>
      </trkpt>
      <trkpt lat="48.715320" lon="2.010235">
        <ele>164.937303</ele>
        <time>2023-09-05T22:41:42.527Z</time>
      </trkpt>
      <trkpt lat="48.715905" lon="2.010649">
        <ele>163.555302</ele>
        <time>2023-09-05T22:41:59.503Z</time>
      </trkpt>
      <trkpt lat="48.716478" lon="2.010861">
        <ele>161.800580</ele>
        <time>2023-09-05T22:42:15.047Z</time>
      </trkpt>
      <trkpt lat="48.716646" lon="2.011049">
        <ele>161.165499</ele>
        <time>2023-09-05T22:42:20.422Z</time>
      </trkpt>
      <trkpt lat="48.716835" lon="2.011550">
        <ele>160.007526</ele>
        <time>2023-09-05T22:42:30.180Z</time>
      </trkpt>
      <trkpt lat="48.717012" lon="2.012301">
        <ele>158.407398</ele>
        <time>2023-09-05T22:42:38.149Z</time>
      </trkpt>
      <trkpt lat="48.717643" lon="2.013263">
        <ele>156.662083</ele>
        <time>2023-09-05T22:42:52.300Z</time>
      </trkpt>
      <trkpt lat="48.717964" lon="2.012794">
        <ele>155.880082</ele>
        <time>2023-09-05T22:42:59.869Z</time>
      </trkpt>
      <trkpt lat="48.718108" lon="2.012703">
        <ele>155.606443</ele>
        <time>2023-09-05T22:43:02.568Z</time>
      </trkpt>
      <trkpt lat="48.718127" lon="2.012592">
        <ele>155.473743</ele>
        <time>2023-09-05T22:43:03.807Z</time>
      </trkpt>
      <trkpt lat="48.718212" lon="2.012025">
        <ele>154.848730</ele>
        <time>2023-09-05T22:43:10.309Z</time>
      </trkpt>
      <trkpt lat="48.718414" lon="2.010968">
        <ele>155.220444</ele>
        <time>2023-09-05T22:43:25.036Z</time>
      </trkpt>
      <trkpt lat="48.718547" lon="2.010360">
        <ele>155.436810</ele>
        <time>2023-09-05T22:43:35.929Z</time>
      </trkpt>
      <trkpt lat="48.718672" lon="2.009792">
        <ele>155.639062</ele>
        <time>2023-09-05T22:43:46.049Z</time>
      </trkpt>
      <trkpt lat="48.718911" lon="2.008349">
        <ele>155.890485</ele>
        <time>2023-09-05T22:44:07.804Z</time>
      </trkpt>
      <trkpt lat="48.721218" lon="2.008956">
        <ele>156.790839</ele>
        <time>2023-09-05T22:45:20.832Z</time>
      </trkpt>
      <trkpt lat="48.724029" lon="2.009882">
        <ele>162.168592</ele>
        <time>2023-09-05T22:47:25.291Z</time>
      </trkpt>
      <trkpt lat="48.724065" lon="2.009800">
        <ele>162.291356</ele>
        <time>2023-09-05T22:47:27.154Z</time>
      </trkpt>
      <trkpt lat="48.724899" lon="2.010586">
        <ele>164.146736</ele>
        <time>2023-09-05T22:48:07.729Z</time>
      </trkpt>
      <trkpt lat="48.726017" lon="2.011563">
        <ele>165.683699</ele>
        <time>2023-09-05T22:48:55.484Z</time>
      </trkpt>
      <trkpt lat="48.727492" lon="2.013008">
        <ele>167.039451</ele>
        <time>2023-09-05T22:49:59.498Z</time>
      </trkpt>
      <trkpt lat="48.727966" lon="2.013627">
        <ele>167.399128</ele>
        <time>2023-09-05T22:50:21.948Z</time>
      </trkpt>
      <trkpt lat="48.728518" lon="2.015750">
        <ele>164.462735</ele>
        <time>2023-09-05T22:51:05.574Z</time>
      </trkpt>
      <trkpt lat="48.728757" lon="2.016182">
        <ele>163.665527</ele>
        <time>2023-09-05T22:51:14.629Z</time>
      </trkpt>
      <trkpt lat="48.728995" lon="2.016455">
        <ele>161.198448</ele>
        <time>2023-09-05T22:51:18.480Z</time>
      </trkpt>
      <trkpt lat="48.729147" lon="2.016562">
        <ele>159.706045</ele>
        <time>2023-09-05T22:51:20.580Z</time>
      </trkpt>
      <trkpt lat="48.729280" lon="2.016642">
        <ele>158.431830</ele>
        <time>2023-09-05T22:51:22.359Z</time>
      </trkpt>
      <trkpt lat="48.729644" lon="2.016742">
        <ele>155.137532</ele>
        <time>2023-09-05T22:51:26.849Z</time>
      </trkpt>
      <trkpt lat="48.729785" lon="2.016820">
        <ele>153.800914</ele>
        <time>2023-09-05T22:51:28.640Z</time>
      </trkpt>
      <trkpt lat="48.730174" lon="2.017134">
        <ele>149.876357</ele>
        <time>2023-09-05T22:51:33.851Z</time>
      </trkpt>
      <trkpt lat="48.730564" lon="2.017248">
        <ele>146.129824</ele>
        <time>2023-09-05T22:51:38.515Z</time>
      </trkpt>
      <trkpt lat="48.730708" lon="2.017324">
        <ele>144.544092</ele>
        <time>2023-09-05T22:51:40.298Z</time>
      </trkpt>
      <trkpt lat="48.731137" lon="2.017667">
        <ele>139.500146</ele>
        <time>2023-09-05T22:51:45.972Z</time>
      </trkpt>
      <trkpt lat="48.731355" lon="2.017807">
        <ele>137.037964</ele>
        <time>2023-09-05T22:51:48.772Z</time>
      </trkpt>
      <trkpt lat="48.731464" lon="2.017922">
        <ele>135.656909</ele>
        <time>2023-09-05T22:51:50.363Z</time>
      </trkpt>
      <trkpt lat="48.731862" lon="2.018456">
        <ele>130.129675</ele>
        <time>2023-09-05T22:51:56.744Z</time>
      </trkpt>
      <trkpt lat="48.732174" lon="2.018815">
        <ele>127.108723</ele>
        <time>2023-09-05T22:52:01.536Z</time>
      </trkpt>
      <trkpt lat="48.732335" lon="2.018263">
        <ele>124.510550</ele>
        <time>2023-09-05T22:52:06.875Z</time>
      </trkpt>
      <trkpt lat="48.732376" lon="2.018197">
        <ele>124.120266</ele>
        <time>2023-09-05T22:52:07.699Z</time>
      </trkpt>
      <trkpt lat="48.732555" lon="2.018351">
        <ele>122.777037</ele>
        <time>2023-09-05T22:52:10.505Z</time>
      </trkpt>
      <trkpt lat="48.733225" lon="2.019558">
        <ele>116.390631</ele>
        <time>2023-09-05T22:52:25.131Z</time>
      </trkpt>
      <trkpt lat="48.733225" lon="2.019558">
        <ele>116.390631</ele>
        <time>2023-09-05T22:52:25.215Z</time>
      </trkpt>
      <trkpt lat="48.733225" lon="2.019558">
        <ele>116.390631</ele>
        <time>2023-09-05T22:52:25.215Z</time>
      </trkpt>
      <trkpt lat="48.733398" lon="2.020865">
        <ele>112.658326</ele>
        <time>2023-09-05T22:53:02.869Z</time>
      </trkpt>
      <trkpt lat="48.733727" lon="2.022045">
        <ele>109.653129</ele>
        <time>2023-09-05T22:53:39.015Z</time>
      </trkpt>
      <trkpt lat="48.733727" lon="2.022045">
        <ele>109.653129</ele>
        <time>2023-09-05T22:53:39.308Z</time>
      </trkpt>
      <trkpt lat="48.734065" lon="2.022408">
        <ele>110.236905</ele>
        <time>2023-09-05T22:53:47.058Z</time>
      </trkpt>
      <trkpt lat="48.734103" lon="2.022456">
        <ele>110.306613</ele>
        <time>2023-09-05T22:53:48.628Z</time>
      </trkpt>
      <trkpt lat="48.734455" lon="2.022887">
        <ele>110.944292</ele>
        <time>2023-09-05T22:54:01.190Z</time>
      </trkpt>
      <trkpt lat="48.734692" lon="2.022924">
        <ele>111.280083</ele>
        <time>2023-09-05T22:54:09.983Z</time>
      </trkpt>
      <trkpt lat="48.735262" lon="2.022943">
        <ele>112.205893</ele>
        <time>2023-09-05T22:54:40.287Z</time>
      </trkpt>
      <trkpt lat="48.735717" lon="2.022888">
        <ele>114.791989</ele>
        <time>2023-09-05T22:55:09.510Z</time>
      </trkpt>
      <trkpt lat="48.736452" lon="2.022902">
        <ele>118.956646</ele>
        <time>2023-09-05T22:55:56.670Z</time>
      </trkpt>
      <trkpt lat="48.737519" lon="2.022582">
        <ele>123.897278</ele>
        <time>2023-09-05T22:57:00.091Z</time>
      </trkpt>
      <trkpt lat="48.738214" lon="2.022503">
        <ele>126.173846</ele>
        <time>2023-09-05T22:57:31.202Z</time>
      </trkpt>
      <trkpt lat="48.739325" lon="2.022681">
        <ele>130.795162</ele>
        <time>2023-09-05T22:58:17.635Z</time>
      </trkpt>
      <trkpt lat="48.739922" lon="2.022963">
        <ele>133.996002</ele>
        <time>2023-09-05T22:58:52.230Z</time>
      </trkpt>
      <trkpt lat="48.739936" lon="2.023254">
        <ele>134.980974</ele>
        <time>2023-09-05T22:59:05.064Z</time>
      </trkpt>
      <trkpt lat="48.739864" lon="2.023787">
        <ele>136.817643</ele>
        <time>2023-09-05T22:59:30.336Z</time>
      </trkpt>
      <trkpt lat="48.739756" lon="2.024186">
        <ele>139.008922</ele>
        <time>2023-09-05T22:59:51.674Z</time>
      </trkpt>
      <trkpt lat="48.739600" lon="2.024607">
        <ele>141.890995</ele>
        <time>2023-09-05T23:00:16.414Z</time>
      </trkpt>
      <trkpt lat="48.739456" lon="2.025159">
        <ele>145.433838</ele>
        <time>2023-09-05T23:00:48.996Z</time>
      </trkpt>
      <trkpt lat="48.739432" lon="2.025335">
        <ele>146.506468</ele>
        <time>2023-09-05T23:00:59.354Z</time>
      </trkpt>
      <trkpt lat="48.739444" lon="2.025529">
        <ele>147.669387</ele>
        <time>2023-09-05T23:01:10.251Z</time>
      </trkpt>
      <trkpt lat="48.739556" lon="2.025848">
        <ele>149.826248</ele>
        <time>2023-09-05T23:01:29.921Z</time>
      </trkpt>
      <trkpt lat="48.739756" lon="2.026253">
        <ele>152.845930</ele>
        <time>2023-09-05T23:01:55.691Z</time>
      </trkpt>
      <trkpt lat="48.740016" lon="2.026531">
        <ele>154.646444</ele>
        <time>2023-09-05T23:02:18.049Z</time>
      </trkpt>
      <trkpt lat="48.740766" lon="2.027090">
        <ele>158.382290</ele>
        <time>2023-09-05T23:03:05.207Z</time>
      </trkpt>
      <trkpt lat="48.741146" lon="2.027529">
        <ele>160.517828</ele>
        <time>2023-09-05T23:03:26.497Z</time>
      </trkpt>
      <trkpt lat="48.741687" lon="2.028164">
        <ele>162.096238</ele>
        <time>2023-09-05T23:03:54.041Z</time>
      </trkpt>
      <trkpt lat="48.742297" lon="2.029116">
        <ele>163.027472</ele>
        <time>2023-09-05T23:04:25.856Z</time>
      </trkpt>
      <trkpt lat="48.741641" lon="2.030148">
        <ele>163.874700</ele>
        <time>2023-09-05T23:04:46.251Z</time>
      </trkpt>
      <trkpt lat="48.741455" lon="2.030509">
        <ele>164.091263</ele>
        <time>2023-09-05T23:04:52.853Z</time>
      </trkpt>
      <trkpt lat="48.741299" lon="2.030943">
        <ele>164.324921</ele>
        <time>2023-09-05T23:05:00.120Z</time>
      </trkpt>
      <trkpt lat="48.740871" lon="2.032334">
        <ele>164.969034</ele>
        <time>2023-09-05T23:05:24.273Z</time>
      </trkpt>
      <trkpt lat="48.740702" lon="2.032935">
        <ele>165.160077</ele>
        <time>2023-09-05T23:05:34.202Z</time>
      </trkpt>
      <trkpt lat="48.740508" lon="2.033756">
        <ele>165.415085</ele>
        <time>2023-09-05T23:05:46.480Z</time>
      </trkpt>
      <trkpt lat="48.740294" lon="2.034848">
        <ele>165.488996</ele>
        <time>2023-09-05T23:06:00.728Z</time>
      </trkpt>
      <trkpt lat="48.740021" lon="2.035401">
        <ele>165.230962</ele>
        <time>2023-09-05T23:06:09.115Z</time>
      </trkpt>
      <trkpt lat="48.739981" lon="2.035464">
        <ele>165.198295</ele>
        <time>2023-09-05T23:06:10.141Z</time>
      </trkpt>
      <trkpt lat="48.739788" lon="2.035965">
        <ele>164.981561</ele>
        <time>2023-09-05T23:06:16.861Z</time>
      </trkpt>
      <trkpt lat="48.739540" lon="2.036507">
        <ele>164.735141</ele>
        <time>2023-09-05T23:06:24.312Z</time>
      </trkpt>
      <trkpt lat="48.739007" lon="2.037165">
        <ele>164.366452</ele>
        <time>2023-09-05T23:06:35.842Z</time>
      </trkpt>
      <trkpt lat="48.738912" lon="2.037007">
        <ele>164.292688</ele>
        <time>2023-09-05T23:06:38.225Z</time>
      </trkpt>
      <trkpt lat="48.738701" lon="2.036747">
        <ele>164.150455</ele>
        <time>2023-09-05T23:06:42.954Z</time>
      </trkpt>
      <trkpt lat="48.738577" lon="2.036725">
        <ele>164.085145</ele>
        <time>2023-09-05T23:06:45.211Z</time>
      </trkpt>
      <trkpt lat="48.738425" lon="2.036776">
        <ele>164.003705</ele>
        <time>2023-09-05T23:06:48.037Z</time>
      </trkpt>
      <trkpt lat="48.737904" lon="2.037322">
        <ele>163.675345</ele>
        <time>2023-09-05T23:06:59.987Z</time>
      </trkpt>
      <trkpt lat="48.738117" lon="2.037805">
        <ele>163.734853</ele>
        <time>2023-09-05T23:07:07.559Z</time>
      </trkpt>
      <trkpt lat="48.738371" lon="2.038490">
        <ele>163.815338</ele>
        <time>2023-09-05T23:07:17.586Z</time>
      </trkpt>
      <trkpt lat="48.738883" lon="2.039509">
        <ele>163.946539</ele>
        <time>2023-09-05T23:07:35.043Z</time>
      </trkpt>
      <trkpt lat="48.739260" lon="2.040267">
        <ele>163.963395</ele>
        <time>2023-09-05T23:07:48.196Z</time>
      </trkpt>
      <trkpt lat="48.739973" lon="2.042090">
        <ele>163.906021</ele>
        <time>2023-09-05T23:08:14.408Z</time>
      </trkpt>
      <trkpt lat="48.740308" lon="2.042664">
        <ele>163.685784</ele>
        <time>2023-09-05T23:08:23.571Z</time>
      </trkpt>
      <trkpt lat="48.740420" lon="2.042614">
        <ele>163.634916</ele>
        <time>2023-09-05T23:08:25.791Z</time>
      </trkpt>
      <trkpt lat="48.740567" lon="2.042585">
        <ele>163.570329</ele>
        <time>2023-09-05T23:08:28.446Z</time>
      </trkpt>
      <trkpt lat="48.740707" lon="2.042613">
        <ele>163.508804</ele>
        <time>2023-09-05T23:08:30.974Z</time>
      </trkpt>
      <trkpt lat="48.741169" lon="2.042823">
        <ele>163.298665</ele>
        <time>2023-09-05T23:08:39.505Z</time>
      </trkpt>
      <trkpt lat="48.742956" lon="2.044326">
        <ele>162.360395</ele>
        <time>2023-09-05T23:09:16.031Z</time>
      </trkpt>
      <trkpt lat="48.743163" lon="2.044567">
        <ele>162.284322</ele>
        <time>2023-09-05T23:09:20.888Z</time>
      </trkpt>
      <trkpt lat="48.743341" lon="2.044903">
        <ele>162.201475</ele>
        <time>2023-09-05T23:09:26.168Z</time>
      </trkpt>
      <trkpt lat="48.743560" lon="2.045491">
        <ele>162.071665</ele>
        <time>2023-09-05T23:09:34.521Z</time>
      </trkpt>
      <trkpt lat="48.744317" lon="2.047167">
        <ele>161.403034</ele>
        <time>2023-09-05T23:09:59.114Z</time>
      </trkpt>
      <trkpt lat="48.744898" lon="2.048671">
        <ele>160.485525</ele>
        <time>2023-09-05T23:10:18.547Z</time>
      </trkpt>
      <trkpt lat="48.745075" lon="2.048983">
        <ele>159.913421</ele>
        <time>2023-09-05T23:10:23.100Z</time>
      </trkpt>
      <trkpt lat="48.745471" lon="2.049513">
        <ele>158.394232</ele>
        <time>2023-09-05T23:10:31.859Z</time>
      </trkpt>
      <trkpt lat="48.746383" lon="2.050900">
        <ele>153.904501</ele>
        <time>2023-09-05T23:10:50.095Z</time>
      </trkpt>
      <trkpt lat="48.746535" lon="2.050977">
        <ele>152.797532</ele>
        <time>2023-09-05T23:10:52.153Z</time>
      </trkpt>
      <trkpt lat="48.746745" lon="2.051020">
        <ele>151.333791</ele>
        <time>2023-09-05T23:10:54.831Z</time>
      </trkpt>
      <trkpt lat="48.747305" lon="2.050968">
        <ele>147.458337</ele>
        <time>2023-09-05T23:11:01.762Z</time>
      </trkpt>
      <trkpt lat="48.747481" lon="2.050874">
        <ele>146.169428</ele>
        <time>2023-09-05T23:11:04.045Z</time>
      </trkpt>
      <trkpt lat="48.747639" lon="2.050728">
        <ele>144.891411</ele>
        <time>2023-09-05T23:11:06.313Z</time>
      </trkpt>
      <trkpt lat="48.747769" lon="2.050530">
        <ele>143.618758</ele>
        <time>2023-09-05T23:11:08.589Z</time>
      </trkpt>
      <trkpt lat="48.748315" lon="2.049497">
        <ele>139.645812</ele>
        <time>2023-09-05T23:11:19.599Z</time>
      </trkpt>
      <trkpt lat="48.748346" lon="2.049440">
        <ele>139.441926</ele>
        <time>2023-09-05T23:11:20.244Z</time>
      </trkpt>
      <trkpt lat="48.748539" lon="2.049099">
        <ele>138.201857</ele>
        <time>2023-09-05T23:11:24.232Z</time>
      </trkpt>
      <trkpt lat="48.748657" lon="2.049084">
        <ele>137.706302</ele>
        <time>2023-09-05T23:11:25.916Z</time>
      </trkpt>
      <trkpt lat="48.748897" lon="2.049228">
        <ele>136.626173</ele>
        <time>2023-09-05T23:11:29.918Z</time>
      </trkpt>
      <trkpt lat="48.749178" lon="2.049466">
        <ele>135.280672</ele>
        <time>2023-09-05T23:11:36.610Z</time>
      </trkpt>
      <trkpt lat="48.749682" lon="2.050676">
        <ele>135.821429</ele>
        <time>2023-09-05T23:12:00.679Z</time>
      </trkpt>
      <trkpt lat="48.749874" lon="2.050994">
        <ele>135.984343</ele>
        <time>2023-09-05T23:12:07.101Z</time>
      </trkpt>
      <trkpt lat="48.749954" lon="2.051064">
        <ele>136.037267</ele>
        <time>2023-09-05T23:12:09.168Z</time>
      </trkpt>
      <trkpt lat="48.749966" lon="2.051530">
        <ele>136.213469</ele>
        <time>2023-09-05T23:12:19.570Z</time>
      </trkpt>
      <trkpt lat="48.749850" lon="2.051703">
        <ele>136.306694</ele>
        <time>2023-09-05T23:12:24.727Z</time>
      </trkpt>
      <trkpt lat="48.749608" lon="2.051816">
        <ele>136.132292</ele>
        <time>2023-09-05T23:12:32.896Z</time>
      </trkpt>
      <trkpt lat="48.749349" lon="2.052050">
        <ele>135.912511</ele>
        <time>2023-09-05T23:12:42.400Z</time>
      </trkpt>
      <trkpt lat="48.749221" lon="2.052248">
        <ele>135.779222</ele>
        <time>2023-09-05T23:12:48.002Z</time>
      </trkpt>
      <trkpt lat="48.749157" lon="2.052505">
        <ele>135.647168</ele>
        <time>2023-09-05T23:12:53.758Z</time>
      </trkpt>
      <trkpt lat="48.748871" lon="2.054082">
        <ele>134.749498</ele>
        <time>2023-09-05T23:13:24.347Z</time>
      </trkpt>
      <trkpt lat="48.748902" lon="2.054409">
        <ele>134.463300</ele>
        <time>2023-09-05T23:13:30.570Z</time>
      </trkpt>
      <trkpt lat="48.749035" lon="2.054939">
        <ele>133.972027</ele>
        <time>2023-09-05T23:13:41.215Z</time>
      </trkpt>
      <trkpt lat="48.749047" lon="2.055257">
        <ele>133.696089</ele>
        <time>2023-09-05T23:13:47.129Z</time>
      </trkpt>
      <trkpt lat="48.749062" lon="2.055606">
        <ele>133.393105</ele>
        <time>2023-09-05T23:13:53.798Z</time>
      </trkpt>
      <trkpt lat="48.749031" lon="2.055810">
        <ele>133.211745</ele>
        <time>2023-09-05T23:13:57.778Z</time>
      </trkpt>
      <trkpt lat="48.748884" lon="2.056358">
        <ele>132.699222</ele>
        <time>2023-09-05T23:14:09.313Z</time>
      </trkpt>
      <trkpt lat="48.748571" lon="2.057188">
        <ele>131.935752</ele>
        <time>2023-09-05T23:14:27.185Z</time>
      </trkpt>
      <trkpt lat="48.748490" lon="2.057810">
        <ele>131.433012</ele>
        <time>2023-09-05T23:14:38.682Z</time>
      </trkpt>
      <trkpt lat="48.748453" lon="2.058291">
        <ele>131.049018</ele>
        <time>2023-09-05T23:14:47.702Z</time>
      </trkpt>
      <trkpt lat="48.748342" lon="2.058579">
        <ele>130.784497</ele>
        <time>2023-09-05T23:14:54.192Z</time>
      </trkpt>
      <trkpt lat="48.748037" lon="2.059210">
        <ele>130.308406</ele>
        <time>2023-09-05T23:15:10.220Z</time>
      </trkpt>
      <trkpt lat="48.747964" lon="2.059378">
        <ele>130.223223</ele>
        <time>2023-09-05T23:15:14.395Z</time>
      </trkpt>
      <trkpt lat="48.747876" lon="2.059702">
        <ele>130.074866</ele>
        <time>2023-09-05T23:15:21.961Z</time>
      </trkpt>
      <trkpt lat="48.747572" lon="2.060267">
        <ele>129.766120</ele>
        <time>2023-09-05T23:15:36.253Z</time>
      </trkpt>
      <trkpt lat="48.747498" lon="2.060449">
        <ele>129.675592</ele>
        <time>2023-09-05T23:15:40.328Z</time>
      </trkpt>
      <trkpt lat="48.747388" lon="2.060822">
        <ele>129.502595</ele>
        <time>2023-09-05T23:15:48.041Z</time>
      </trkpt>
      <trkpt lat="48.747371" lon="2.060928">
        <ele>129.456407</ele>
        <time>2023-09-05T23:15:50.116Z</time>
      </trkpt>
      <trkpt lat="48.747384" lon="2.061086">
        <ele>129.388994</ele>
        <time>2023-09-05T23:15:53.228Z</time>
      </trkpt>
      <trkpt lat="48.747389" lon="2.061185">
        <ele>129.346956</ele>
        <time>2023-09-05T23:15:55.165Z</time>
      </trkpt>
      <trkpt lat="48.747346" lon="2.061390">
        <ele>129.191103</ele>
        <time>2023-09-05T23:15:59.460Z</time>
      </trkpt>
      <trkpt lat="48.747294" lon="2.061499">
        <ele>129.075521</ele>
        <time>2023-09-05T23:16:02.183Z</time>
      </trkpt>
      <trkpt lat="48.747281" lon="2.061626">
        <ele>128.965107</ele>
        <time>2023-09-05T23:16:04.820Z</time>
      </trkpt>
      <trkpt lat="48.747205" lon="2.061796">
        <ele>128.788655</ele>
        <time>2023-09-05T23:16:09.067Z</time>
      </trkpt>
      <trkpt lat="48.747144" lon="2.062289">
        <ele>128.357721</ele>
        <time>2023-09-05T23:16:18.900Z</time>
      </trkpt>
      <trkpt lat="48.747016" lon="2.062448">
        <ele>128.142148</ele>
        <time>2023-09-05T23:16:23.605Z</time>
      </trkpt>
      <trkpt lat="48.746821" lon="2.062908">
        <ele>127.672332</ele>
        <time>2023-09-05T23:16:33.577Z</time>
      </trkpt>
      <trkpt lat="48.746770" lon="2.063095">
        <ele>127.498477</ele>
        <time>2023-09-05T23:16:37.208Z</time>
      </trkpt>
      <trkpt lat="48.746797" lon="2.063198">
        <ele>127.403252</ele>
        <time>2023-09-05T23:16:39.190Z</time>
      </trkpt>
      <trkpt lat="48.746778" lon="2.063450">
        <ele>127.185344</ele>
        <time>2023-09-05T23:16:43.619Z</time>
      </trkpt>
      <trkpt lat="48.746794" lon="2.063599">
        <ele>127.055649</ele>
        <time>2023-09-05T23:16:46.286Z</time>
      </trkpt>
      <trkpt lat="48.746741" lon="2.063848">
        <ele>126.982674</ele>
        <time>2023-09-05T23:16:51.196Z</time>
      </trkpt>
      <trkpt lat="48.746621" lon="2.064086">
        <ele>126.995699</ele>
        <time>2023-09-05T23:16:56.973Z</time>
      </trkpt>
      <trkpt lat="48.746401" lon="2.064659">
        <ele>127.024527</ele>
        <time>2023-09-05T23:17:10.170Z</time>
      </trkpt>
      <trkpt lat="48.746303" lon="2.065208">
        <ele>127.049255</ele>
        <time>2023-09-05T23:17:21.648Z</time>
      </trkpt>
      <trkpt lat="48.746239" lon="2.065257">
        <ele>127.053982</ele>
        <time>2023-09-05T23:17:23.873Z</time>
      </trkpt>
      <trkpt lat="48.746123" lon="2.065255">
        <ele>127.061631</ele>
        <time>2023-09-05T23:17:27.863Z</time>
      </trkpt>
      <trkpt lat="48.746081" lon="2.065296">
        <ele>127.064924</ele>
        <time>2023-09-05T23:17:29.645Z</time>
      </trkpt>
      <trkpt lat="48.746035" lon="2.065409">
        <ele>127.070698</ele>
        <time>2023-09-05T23:17:32.386Z</time>
      </trkpt>
      <trkpt lat="48.745928" lon="2.065805">
        <ele>127.089304</ele>
        <time>2023-09-05T23:17:43.012Z</time>
      </trkpt>
      <trkpt lat="48.745857" lon="2.065940">
        <ele>127.390210</ele>
        <time>2023-09-05T23:17:47.535Z</time>
      </trkpt>
      <trkpt lat="48.745590" lon="2.066290">
        <ele>129.802106</ele>
        <time>2023-09-05T23:18:04.478Z</time>
      </trkpt>
      <trkpt lat="48.745438" lon="2.066538">
        <ele>131.327913</ele>
        <time>2023-09-05T23:18:17.390Z</time>
      </trkpt>
      <trkpt lat="48.745363" lon="2.066825">
        <ele>132.719123</ele>
        <time>2023-09-05T23:18:30.282Z</time>
      </trkpt>
      <trkpt lat="48.745678" lon="2.067426">
        <ele>136.178824</ele>
        <time>2023-09-05T23:19:08.748Z</time>
      </trkpt>
      <trkpt lat="48.746077" lon="2.067646">
        <ele>139.080262</ele>
        <time>2023-09-05T23:19:43.280Z</time>
      </trkpt>
      <trkpt lat="48.746259" lon="2.068184">
        <ele>142.646755</ele>
        <time>2023-09-05T23:20:16.622Z</time>
      </trkpt>
      <trkpt lat="48.746375" lon="2.068433">
        <ele>144.498616</ele>
        <time>2023-09-05T23:20:34.342Z</time>
      </trkpt>
      <trkpt lat="48.746387" lon="2.068614">
        <ele>145.603583</ele>
        <time>2023-09-05T23:20:44.363Z</time>
      </trkpt>
      <trkpt lat="48.746896" lon="2.069044">
        <ele>150.970755</ele>
        <time>2023-09-05T23:21:33.058Z</time>
      </trkpt>
      <trkpt lat="48.747552" lon="2.069601">
        <ele>156.605587</ele>
        <time>2023-09-05T23:22:25.113Z</time>
      </trkpt>
      <trkpt lat="48.747797" lon="2.069808">
        <ele>157.471661</ele>
        <time>2023-09-05T23:22:41.267Z</time>
      </trkpt>
      <trkpt lat="48.748240" lon="2.070227">
        <ele>159.083931</ele>
        <time>2023-09-05T23:23:00.922Z</time>
      </trkpt>
      <trkpt lat="48.749181" lon="2.071317">
        <ele>161.389717</ele>
        <time>2023-09-05T23:23:29.193Z</time>
      </trkpt>
      <trkpt lat="48.750177" lon="2.068834">
        <ele>161.024871</ele>
        <time>2023-09-05T23:24:03.125Z</time>
      </trkpt>
      <trkpt lat="48.750261" lon="2.068596">
        <ele>161.043574</ele>
        <time>2023-09-05T23:24:06.722Z</time>
      </trkpt>
      <trkpt lat="48.750487" lon="2.067666">
        <ele>161.112244</ele>
        <time>2023-09-05T23:24:21.012Z</time>
      </trkpt>
      <trkpt lat="48.750527" lon="2.067742">
        <ele>161.118981</ele>
        <time>2023-09-05T23:24:22.354Z</time>
      </trkpt>
      <trkpt lat="48.750672" lon="2.067876">
        <ele>161.136823</ele>
        <time>2023-09-05T23:24:25.909Z</time>
      </trkpt>
      <trkpt lat="48.750876" lon="2.067911">
        <ele>161.158396</ele>
        <time>2023-09-05T23:24:30.282Z</time>
      </trkpt>
      <trkpt lat="48.750949" lon="2.067824">
        <ele>161.144798</ele>
        <time>2023-09-05T23:24:32.207Z</time>
      </trkpt>
      <trkpt lat="48.751112" lon="2.067649">
        <ele>161.108451</ele>
        <time>2023-09-05T23:24:36.388Z</time>
      </trkpt>
      <trkpt lat="48.751212" lon="2.067644">
        <ele>161.090240</ele>
        <time>2023-09-05T23:24:38.424Z</time>
      </trkpt>
      <trkpt lat="48.751425" lon="2.067768">
        <ele>161.048715</ele>
        <time>2023-09-05T23:24:43.378Z</time>
      </trkpt>
      <trkpt lat="48.751492" lon="2.067807">
        <ele>161.035653</ele>
        <time>2023-09-05T23:24:44.976Z</time>
      </trkpt>
      <trkpt lat="48.753764" lon="2.069593">
        <ele>160.342002</ele>
        <time>2023-09-05T23:25:33.239Z</time>
      </trkpt>
      <trkpt lat="48.754446" lon="2.070131">
        <ele>160.522745</ele>
        <time>2023-09-05T23:25:48.971Z</time>
      </trkpt>
      <trkpt lat="48.755189" lon="2.070717">
        <ele>161.137883</ele>
        <time>2023-09-05T23:26:11.002Z</time>
      </trkpt>
      <trkpt lat="48.755598" lon="2.071006">
        <ele>161.469311</ele>
        <time>2023-09-05T23:26:22.492Z</time>
      </trkpt>
      <trkpt lat="48.755586" lon="2.071118">
        <ele>161.524261</ele>
        <time>2023-09-05T23:26:24.054Z</time>
      </trkpt>
      <trkpt lat="48.755572" lon="2.071186">
        <ele>161.557565</ele>
        <time>2023-09-05T23:26:24.981Z</time>
      </trkpt>
      <trkpt lat="48.755646" lon="2.071246">
        <ele>161.614892</ele>
        <time>2023-09-05T23:26:26.850Z</time>
      </trkpt>
      <trkpt lat="48.755679" lon="2.071445">
        <ele>161.707317</ele>
        <time>2023-09-05T23:26:29.927Z</time>
      </trkpt>
      <trkpt lat="48.755739" lon="2.071579">
        <ele>161.780277</ele>
        <time>2023-09-05T23:26:31.996Z</time>
      </trkpt>
      <trkpt lat="48.755876" lon="2.071727">
        <ele>161.895188</ele>
        <time>2023-09-05T23:26:35.622Z</time>
      </trkpt>
      <trkpt lat="48.755952" lon="2.071761">
        <ele>161.949323</ele>
        <time>2023-09-05T23:26:37.446Z</time>
      </trkpt>
      <trkpt lat="48.756015" lon="2.071781">
        <ele>161.993297</ele>
        <time>2023-09-05T23:26:38.821Z</time>
      </trkpt>
      <trkpt lat="48.756296" lon="2.071676">
        <ele>162.191017</ele>
        <time>2023-09-05T23:26:45.271Z</time>
      </trkpt>
      <trkpt lat="48.757138" lon="2.072276">
        <ele>162.857656</ele>
        <time>2023-09-05T23:27:06.351Z</time>
      </trkpt>
      <trkpt lat="48.757942" lon="2.072914">
        <ele>163.821056</ele>
        <time>2023-09-05T23:27:27.188Z</time>
      </trkpt>
      <trkpt lat="48.758618" lon="2.073405">
        <ele>164.616837</ele>
        <time>2023-09-05T23:27:47.381Z</time>
      </trkpt>
      <trkpt lat="48.759226" lon="2.073707">
        <ele>164.991359</ele>
        <time>2023-09-05T23:28:03.705Z</time>
      </trkpt>
      <trkpt lat="48.759263" lon="2.073673">
        <ele>165.014562</ele>
        <time>2023-09-05T23:28:04.593Z</time>
      </trkpt>
      <trkpt lat="48.759314" lon="2.073641">
        <ele>165.044165</ele>
        <time>2023-09-05T23:28:05.737Z</time>
      </trkpt>
      <trkpt lat="48.759394" lon="2.073643">
        <ele>165.087081</ele>
        <time>2023-09-05T23:28:07.520Z</time>
      </trkpt>
      <trkpt lat="48.759465" lon="2.073700">
        <ele>165.130168</ele>
        <time>2023-09-05T23:28:09.508Z</time>
      </trkpt>
      <trkpt lat="48.759496" lon="2.073739">
        <ele>165.151769</ele>
        <time>2023-09-05T23:28:10.565Z</time>
      </trkpt>
      <trkpt lat="48.759565" lon="2.073699">
        <ele>165.191390</ele>
        <time>2023-09-05T23:28:12.108Z</time>
      </trkpt>
      <trkpt lat="48.760077" lon="2.073629">
        <ele>165.467126</ele>
        <time>2023-09-05T23:28:22.411Z</time>
      </trkpt>
      <trkpt lat="48.761525" lon="2.072885">
        <ele>165.081917</ele>
        <time>2023-09-05T23:28:50.287Z</time>
      </trkpt>
      <trkpt lat="48.761739" lon="2.073025">
        <ele>164.972312</ele>
        <time>2023-09-05T23:28:54.426Z</time>
      </trkpt>
      <trkpt lat="48.761939" lon="2.073034">
        <ele>164.878210</ele>
        <time>2023-09-05T23:28:57.891Z</time>
      </trkpt>
      <trkpt lat="48.762126" lon="2.073459">
        <ele>164.604509</ele>
        <time>2023-09-05T23:29:03.681Z</time>
      </trkpt>
      <trkpt lat="48.762401" lon="2.073734">
        <ele>164.224318</ele>
        <time>2023-09-05T23:29:09.252Z</time>
      </trkpt>
      <trkpt lat="48.762610" lon="2.074063">
        <ele>163.876661</ele>
        <time>2023-09-05T23:29:14.296Z</time>
      </trkpt>
      <trkpt lat="48.763434" lon="2.075680">
        <ele>162.334121</ele>
        <time>2023-09-05T23:29:36.171Z</time>
      </trkpt>
      <trkpt lat="48.765320" lon="2.079263">
        <ele>159.430330</ele>
        <time>2023-09-05T23:30:27.194Z</time>
      </trkpt>
      <trkpt lat="48.765667" lon="2.079951">
        <ele>159.311908</ele>
        <time>2023-09-05T23:30:38.047Z</time>
      </trkpt>
      <trkpt lat="48.765687" lon="2.080063">
        <ele>159.326772</ele>
        <time>2023-09-05T23:30:39.676Z</time>
      </trkpt>
      <trkpt lat="48.765638" lon="2.080624">
        <ele>159.399262</ele>
        <time>2023-09-05T23:30:47.571Z</time>
      </trkpt>
      <trkpt lat="48.765700" lon="2.080745">
        <ele>159.418894</ele>
        <time>2023-09-05T23:30:49.688Z</time>
      </trkpt>
      <trkpt lat="48.765774" lon="2.080877">
        <ele>159.441091</ele>
        <time>2023-09-05T23:30:52.226Z</time>
      </trkpt>
      <trkpt lat="48.766053" lon="2.080869">
        <ele>159.495321</ele>
        <time>2023-09-05T23:30:58.472Z</time>
      </trkpt>
      <trkpt lat="48.766168" lon="2.080827">
        <ele>159.518308</ele>
        <time>2023-09-05T23:31:01.211Z</time>
      </trkpt>
      <trkpt lat="48.766301" lon="2.080709">
        <ele>159.548250</ele>
        <time>2023-09-05T23:31:04.723Z</time>
      </trkpt>
      <trkpt lat="48.766394" lon="2.080687">
        <ele>159.566542</ele>
        <time>2023-09-05T23:31:06.842Z</time>
      </trkpt>
      <trkpt lat="48.770238" lon="2.082400">
        <ele>160.630637</ele>
        <time>2023-09-05T23:32:33.304Z</time>
      </trkpt>
      <trkpt lat="48.770286" lon="2.082422">
        <ele>160.639026</ele>
        <time>2023-09-05T23:32:34.335Z</time>
      </trkpt>
      <trkpt lat="48.770452" lon="2.082518">
        <ele>160.668747</ele>
        <time>2023-09-05T23:32:37.949Z</time>
      </trkpt>
      <trkpt lat="48.770550" lon="2.082573">
        <ele>160.686229</ele>
        <time>2023-09-05T23:32:40.008Z</time>
      </trkpt>
      <trkpt lat="48.770699" lon="2.082903">
        <ele>160.730337</ele>
        <time>2023-09-05T23:32:45.418Z</time>
      </trkpt>
      <trkpt lat="48.770710" lon="2.082982">
        <ele>160.739240</ele>
        <time>2023-09-05T23:32:46.498Z</time>
      </trkpt>
      <trkpt lat="48.770769" lon="2.083029">
        <ele>160.750389</ele>
        <time>2023-09-05T23:32:47.801Z</time>
      </trkpt>
      <trkpt lat="48.770883" lon="2.083079">
        <ele>160.770242</ele>
        <time>2023-09-05T23:32:50.279Z</time>
      </trkpt>
      <trkpt lat="48.770939" lon="2.083111">
        <ele>160.780254</ele>
        <time>2023-09-05T23:32:51.504Z</time>
      </trkpt>
      <trkpt lat="48.771165" lon="2.082951">
        <ele>160.821978</ele>
        <time>2023-09-05T23:32:56.672Z</time>
      </trkpt>
      <trkpt lat="48.771227" lon="2.082877">
        <ele>160.835175</ele>
        <time>2023-09-05T23:32:58.365Z</time>
      </trkpt>
      <trkpt lat="48.771300" lon="2.082852">
        <ele>160.847696</ele>
        <time>2023-09-05T23:33:00.016Z</time>
      </trkpt>
      <trkpt lat="48.772514" lon="2.083578">
        <ele>161.529681</ele>
        <time>2023-09-05T23:33:28.450Z</time>
      </trkpt>
      <trkpt lat="48.772839" lon="2.083964">
        <ele>161.777880</ele>
        <time>2023-09-05T23:33:38.166Z</time>
      </trkpt>
      <trkpt lat="48.773094" lon="2.084426">
        <ele>161.969817</ele>
        <time>2023-09-05T23:33:47.315Z</time>
      </trkpt>
      <trkpt lat="48.773317" lon="2.085027">
        <ele>161.974823</ele>
        <time>2023-09-05T23:33:57.375Z</time>
      </trkpt>
      <trkpt lat="48.774320" lon="2.089438">
        <ele>161.133649</ele>
        <time>2023-09-05T23:34:53.599Z</time>
      </trkpt>
      <trkpt lat="48.774595" lon="2.090408">
        <ele>159.763582</ele>
        <time>2023-09-05T23:35:04.896Z</time>
      </trkpt>
      <trkpt lat="48.774596" lon="2.090595">
        <ele>159.520946</ele>
        <time>2023-09-05T23:35:06.848Z</time>
      </trkpt>
      <trkpt lat="48.774665" lon="2.090568">
        <ele>159.380656</ele>
        <time>2023-09-05T23:35:07.974Z</time>
      </trkpt>
      <trkpt lat="48.774693" lon="2.090424">
        <ele>159.185857</ele>
        <time>2023-09-05T23:35:09.522Z</time>
      </trkpt>
      <trkpt lat="48.775207" lon="2.091598">
        <ele>156.901901</ele>
        <time>2023-09-05T23:35:23.530Z</time>
      </trkpt>
      <trkpt lat="48.775237" lon="2.091675">
        <ele>156.581657</ele>
        <time>2023-09-05T23:35:24.362Z</time>
      </trkpt>
      <trkpt lat="48.775299" lon="2.091838">
        <ele>155.907868</ele>
        <time>2023-09-05T23:35:26.112Z</time>
      </trkpt>
      <trkpt lat="48.775370" lon="2.092053">
        <ele>155.046907</ele>
        <time>2023-09-05T23:35:28.296Z</time>
      </trkpt>
      <trkpt lat="48.775492" lon="2.092919">
        <ele>151.876471</ele>
        <time>2023-09-05T23:35:36.048Z</time>
      </trkpt>
      <trkpt lat="48.775601" lon="2.093312">
        <ele>150.349956</ele>
        <time>2023-09-05T23:35:39.665Z</time>
      </trkpt>
      <trkpt lat="48.775664" lon="2.093451">
        <ele>149.745988</ele>
        <time>2023-09-05T23:35:41.076Z</time>
      </trkpt>
      <trkpt lat="48.776513" lon="2.094670">
        <ele>141.218447</ele>
        <time>2023-09-05T23:35:55.509Z</time>
      </trkpt>
      <trkpt lat="48.776728" lon="2.094889">
        <ele>139.122969</ele>
        <time>2023-09-05T23:35:58.629Z</time>
      </trkpt>
      <trkpt lat="48.777354" lon="2.095387">
        <ele>133.403260</ele>
        <time>2023-09-05T23:36:07.222Z</time>
      </trkpt>
      <trkpt lat="48.777798" lon="2.095791">
        <ele>131.377769</ele>
        <time>2023-09-05T23:36:13.889Z</time>
      </trkpt>
      <trkpt lat="48.777875" lon="2.095912">
        <ele>130.957025</ele>
        <time>2023-09-05T23:36:15.478Z</time>
      </trkpt>
      <trkpt lat="48.778058" lon="2.096046">
        <ele>130.185765</ele>
        <time>2023-09-05T23:36:18.507Z</time>
      </trkpt>
      <trkpt lat="48.778296" lon="2.096240">
        <ele>129.160301</ele>
        <time>2023-09-05T23:36:22.616Z</time>
      </trkpt>
      <trkpt lat="48.778310" lon="2.096410">
        <ele>128.731773</ele>
        <time>2023-09-05T23:36:24.478Z</time>
      </trkpt>
      <trkpt lat="48.778277" lon="2.096497">
        <ele>128.480685</ele>
        <time>2023-09-05T23:36:25.554Z</time>
      </trkpt>
      <trkpt lat="48.777995" lon="2.096695">
        <ele>127.301263</ele>
        <time>2023-09-05T23:36:30.518Z</time>
      </trkpt>
      <trkpt lat="48.777834" lon="2.096790">
        <ele>126.645575</ele>
        <time>2023-09-05T23:36:33.350Z</time>
      </trkpt>
      <trkpt lat="48.777800" lon="2.096811">
        <ele>126.506240</ele>
        <time>2023-09-05T23:36:33.980Z</time>
      </trkpt>
      <trkpt lat="48.777701" lon="2.096869">
        <ele>126.395330</ele>
        <time>2023-09-05T23:36:35.912Z</time>
      </trkpt>
      <trkpt lat="48.777382" lon="2.097077">
        <ele>126.149531</ele>
        <time>2023-09-05T23:36:42.190Z</time>
      </trkpt>
      <trkpt lat="48.777301" lon="2.097136">
        <ele>126.085923</ele>
        <time>2023-09-05T23:36:43.914Z</time>
      </trkpt>
      <trkpt lat="48.776704" lon="2.097532">
        <ele>125.624667</ele>
        <time>2023-09-05T23:36:58.078Z</time>
      </trkpt>
      <trkpt lat="48.776395" lon="2.098049">
        <ele>125.299045</ele>
        <time>2023-09-05T23:37:06.491Z</time>
      </trkpt>
      <trkpt lat="48.775704" lon="2.099597">
        <ele>121.952567</ele>
        <time>2023-09-05T23:37:24.109Z</time>
      </trkpt>
      <trkpt lat="48.775652" lon="2.099712">
        <ele>121.676270</ele>
        <time>2023-09-05T23:37:26.513Z</time>
      </trkpt>
      <trkpt lat="48.775948" lon="2.100188">
        <ele>120.379732</ele>
        <time>2023-09-05T23:37:37.475Z</time>
      </trkpt>
      <trkpt lat="48.776036" lon="2.100331">
        <ele>119.992128</ele>
        <time>2023-09-05T23:37:40.768Z</time>
      </trkpt>
      <trkpt lat="48.776292" lon="2.100542">
        <ele>119.413729</ele>
        <time>2023-09-05T23:37:48.312Z</time>
      </trkpt>
      <trkpt lat="48.776229" lon="2.101052">
        <ele>118.845067</ele>
        <time>2023-09-05T23:37:57.291Z</time>
      </trkpt>
      <trkpt lat="48.776166" lon="2.101928">
        <ele>117.879326</ele>
        <time>2023-09-05T23:38:13.107Z</time>
      </trkpt>
      <trkpt lat="48.776203" lon="2.102503">
        <ele>117.246165</ele>
        <time>2023-09-05T23:38:24.599Z</time>
      </trkpt>
      <trkpt lat="48.776266" lon="2.102982">
        <ele>116.791425</ele>
        <time>2023-09-05T23:38:35.435Z</time>
      </trkpt>
      <trkpt lat="48.776271" lon="2.103383">
        <ele>116.795215</ele>
        <time>2023-09-05T23:38:44.512Z</time>
      </trkpt>
      <trkpt lat="48.776151" lon="2.104613">
        <ele>116.806964</ele>
        <time>2023-09-05T23:39:11.168Z</time>
      </trkpt>
      <trkpt lat="48.775988" lon="2.105362">
        <ele>116.814418</ele>
        <time>2023-09-05T23:39:27.516Z</time>
      </trkpt>
      <trkpt lat="48.775726" lon="2.106023">
        <ele>116.625091</ele>
        <time>2023-09-05T23:39:43.425Z</time>
      </trkpt>
      <trkpt lat="48.775459" lon="2.106549">
        <ele>116.393215</ele>
        <time>2023-09-05T23:39:56.805Z</time>
      </trkpt>
      <trkpt lat="48.775413" lon="2.106741">
        <ele>116.321867</ele>
        <time>2023-09-05T23:40:00.904Z</time>
      </trkpt>
      <trkpt lat="48.775417" lon="2.107029">
        <ele>116.221263</ele>
        <time>2023-09-05T23:40:06.476Z</time>
      </trkpt>
      <trkpt lat="48.775681" lon="2.107809">
        <ele>115.915030</ele>
        <time>2023-09-05T23:40:23.727Z</time>
      </trkpt>
      <trkpt lat="48.775789" lon="2.108146">
        <ele>115.733687</ele>
        <time>2023-09-05T23:40:31.194Z</time>
      </trkpt>
      <trkpt lat="48.776505" lon="2.109898">
        <ele>114.554847</ele>
        <time>2023-09-05T23:41:11.216Z</time>
      </trkpt>
      <trkpt lat="48.776681" lon="2.110447">
        <ele>114.271617</ele>
        <time>2023-09-05T23:41:22.750Z</time>
      </trkpt>
      <trkpt lat="48.776877" lon="2.110987">
        <ele>114.158747</ele>
        <time>2023-09-05T23:41:34.837Z</time>
      </trkpt>
      <trkpt lat="48.776961" lon="2.111312">
        <ele>114.094831</ele>
        <time>2023-09-05T23:41:41.971Z</time>
      </trkpt>
      <trkpt lat="48.777080" lon="2.112136">
        <ele>113.940390</ele>
        <time>2023-09-05T23:41:59.432Z</time>
      </trkpt>
      <trkpt lat="48.777098" lon="2.112373">
        <ele>113.896711</ele>
        <time>2023-09-05T23:42:05.038Z</time>
      </trkpt>
      <trkpt lat="48.777109" lon="2.112807">
        <ele>113.817194</ele>
        <time>2023-09-05T23:42:14.519Z</time>
      </trkpt>
      <trkpt lat="48.777039" lon="2.113300">
        <ele>113.854118</ele>
        <time>2023-09-05T23:42:25.532Z</time>
      </trkpt>
      <trkpt lat="48.777051" lon="2.113771">
        <ele>113.910695</ele>
        <time>2023-09-05T23:42:35.485Z</time>
      </trkpt>
      <trkpt lat="48.777054" lon="2.113897">
        <ele>113.925828</ele>
        <time>2023-09-05T23:42:38.456Z</time>
      </trkpt>
      <trkpt lat="48.777037" lon="2.114040">
        <ele>113.943270</ele>
        <time>2023-09-05T23:42:41.691Z</time>
      </trkpt>
      <trkpt lat="48.776892" lon="2.114583">
        <ele>114.013594</ele>
        <time>2023-09-05T23:42:54.643Z</time>
      </trkpt>
      <trkpt lat="48.776898" lon="2.114995">
        <ele>114.063059</ele>
        <time>2023-09-05T23:43:03.715Z</time>
      </trkpt>
      <trkpt lat="48.776957" lon="2.115283">
        <ele>114.099259</ele>
        <time>2023-09-05T23:43:10.114Z</time>
      </trkpt>
      <trkpt lat="48.777065" lon="2.115679">
        <ele>114.064132</ele>
        <time>2023-09-05T23:43:18.976Z</time>
      </trkpt>
      <trkpt lat="48.777235" lon="2.116139">
        <ele>113.855566</ele>
        <time>2023-09-05T23:43:29.637Z</time>
      </trkpt>
      <trkpt lat="48.777320" lon="2.116437">
        <ele>113.727154</ele>
        <time>2023-09-05T23:43:35.927Z</time>
      </trkpt>
      <trkpt lat="48.777386" lon="2.117007">
        <ele>113.498289</ele>
        <time>2023-09-05T23:43:47.110Z</time>
      </trkpt>
      <trkpt lat="48.777455" lon="2.117613">
        <ele>113.255091</ele>
        <time>2023-09-05T23:43:58.890Z</time>
      </trkpt>
      <trkpt lat="48.777536" lon="2.117809">
        <ele>113.163600</ele>
        <time>2023-09-05T23:44:03.440Z</time>
      </trkpt>
      <trkpt lat="48.777604" lon="2.118059">
        <ele>113.056645</ele>
        <time>2023-09-05T23:44:08.835Z</time>
      </trkpt>
      <trkpt lat="48.777626" lon="2.118261">
        <ele>113.019331</ele>
        <time>2023-09-05T23:44:13.042Z</time>
      </trkpt>
      <trkpt lat="48.777659" lon="2.118938">
        <ele>112.906094</ele>
        <time>2023-09-05T23:44:27.209Z</time>
      </trkpt>
      <trkpt lat="48.777683" lon="2.119074">
        <ele>112.882609</ele>
        <time>2023-09-05T23:44:30.277Z</time>
      </trkpt>
      <trkpt lat="48.777679" lon="2.119359">
        <ele>112.835058</ele>
        <time>2023-09-05T23:44:36.279Z</time>
      </trkpt>
      <trkpt lat="48.777613" lon="2.119803">
        <ele>112.759135</ele>
        <time>2023-09-05T23:44:45.803Z</time>
      </trkpt>
      <trkpt lat="48.777635" lon="2.120520">
        <ele>112.639405</ele>
        <time>2023-09-05T23:45:00.597Z</time>
      </trkpt>
      <trkpt lat="48.777683" lon="2.121373">
        <ele>112.278497</ele>
        <time>2023-09-05T23:45:17.480Z</time>
      </trkpt>
      <trkpt lat="48.777656" lon="2.121943">
        <ele>111.973773</ele>
        <time>2023-09-05T23:45:28.694Z</time>
      </trkpt>
      <trkpt lat="48.777430" lon="2.122653">
        <ele>111.553327</ele>
        <time>2023-09-05T23:45:37.883Z</time>
      </trkpt>
      <trkpt lat="48.777182" lon="2.123292">
        <ele>111.157890</ele>
        <time>2023-09-05T23:45:46.367Z</time>
      </trkpt>
      <trkpt lat="48.777123" lon="2.123234">
        <ele>111.066855</ele>
        <time>2023-09-05T23:45:47.448Z</time>
      </trkpt>
      <trkpt lat="48.777058" lon="2.123278">
        <ele>110.959442</ele>
        <time>2023-09-05T23:45:48.572Z</time>
      </trkpt>
      <trkpt lat="48.777048" lon="2.123385">
        <ele>110.851963</ele>
        <time>2023-09-05T23:45:49.887Z</time>
      </trkpt>
      <trkpt lat="48.777079" lon="2.123442">
        <ele>110.778463</ele>
        <time>2023-09-05T23:45:50.809Z</time>
      </trkpt>
      <trkpt lat="48.777127" lon="2.123457">
        <ele>110.704503</ele>
        <time>2023-09-05T23:45:51.875Z</time>
      </trkpt>
      <trkpt lat="48.777022" lon="2.123870">
        <ele>110.264258</ele>
        <time>2023-09-05T23:45:56.592Z</time>
      </trkpt>
      <trkpt lat="48.776915" lon="2.124130">
        <ele>109.959401</ele>
        <time>2023-09-05T23:45:59.932Z</time>
      </trkpt>
      <trkpt lat="48.776659" lon="2.124507">
        <ele>109.421032</ele>
        <time>2023-09-05T23:46:05.908Z</time>
      </trkpt>
      <trkpt lat="48.776317" lon="2.124813">
        <ele>108.821859</ele>
        <time>2023-09-05T23:46:12.593Z</time>
      </trkpt>
      <trkpt lat="48.775921" lon="2.125047">
        <ele>108.366985</ele>
        <time>2023-09-05T23:46:20.303Z</time>
      </trkpt>
      <trkpt lat="48.775872" lon="2.125105">
        <ele>108.344426</ele>
        <time>2023-09-05T23:46:21.398Z</time>
      </trkpt>
      <trkpt lat="48.775823" lon="2.125163">
        <ele>108.321868</ele>
        <time>2023-09-05T23:46:22.480Z</time>
      </trkpt>
      <trkpt lat="48.775769" lon="2.125361">
        <ele>108.270607</ele>
        <time>2023-09-05T23:46:24.919Z</time>
      </trkpt>
      <trkpt lat="48.775799" lon="2.125841">
        <ele>108.155266</ele>
        <time>2023-09-05T23:46:30.380Z</time>
      </trkpt>
      <trkpt lat="48.775851" lon="2.126179">
        <ele>108.072236</ele>
        <time>2023-09-05T23:46:34.441Z</time>
      </trkpt>
      <trkpt lat="48.775961" lon="2.126552">
        <ele>107.974480</ele>
        <time>2023-09-05T23:46:39.566Z</time>
      </trkpt>
      <trkpt lat="48.775971" lon="2.126708">
        <ele>107.936986</ele>
        <time>2023-09-05T23:46:41.718Z</time>
      </trkpt>
      <trkpt lat="48.775931" lon="2.126961">
        <ele>107.874746</ele>
        <time>2023-09-05T23:46:45.581Z</time>
      </trkpt>
      <trkpt lat="48.775894" lon="2.127021">
        <ele>107.855089</ele>
        <time>2023-09-05T23:46:46.797Z</time>
      </trkpt>
      <trkpt lat="48.776048" lon="2.127327">
        <ele>107.859508</ele>
        <time>2023-09-05T23:46:53.258Z</time>
      </trkpt>
      <trkpt lat="48.776218" lon="2.127606">
        <ele>108.633013</ele>
        <time>2023-09-05T23:47:00.087Z</time>
      </trkpt>
      <trkpt lat="48.776374" lon="2.127801">
        <ele>109.257330</ele>
        <time>2023-09-05T23:47:06.064Z</time>
      </trkpt>
      <trkpt lat="48.776708" lon="2.127963">
        <ele>110.340461</ele>
        <time>2023-09-05T23:47:17.185Z</time>
      </trkpt>
      <trkpt lat="48.776775" lon="2.127944">
        <ele>110.551004</ele>
        <time>2023-09-05T23:47:19.469Z</time>
      </trkpt>
      <trkpt lat="48.777191" lon="2.128002">
        <ele>111.841421</ele>
        <time>2023-09-05T23:47:34.476Z</time>
      </trkpt>
      <trkpt lat="48.777647" lon="2.128143">
        <ele>113.278928</ele>
        <time>2023-09-05T23:47:53.514Z</time>
      </trkpt>
      <trkpt lat="48.778293" lon="2.128683">
        <ele>118.398660</ele>
        <time>2023-09-05T23:48:28.854Z</time>
      </trkpt>
      <trkpt lat="48.778768" lon="2.129253">
        <ele>122.654856</ele>
        <time>2023-09-05T23:49:05.952Z</time>
      </trkpt>
      <trkpt lat="48.778929" lon="2.129421">
        <ele>124.028140</ele>
        <time>2023-09-05T23:49:17.427Z</time>
      </trkpt>
      <trkpt lat="48.779400" lon="2.129928">
        <ele>127.942676</ele>
        <time>2023-09-05T23:49:53.327Z</time>
      </trkpt>
      <trkpt lat="48.779432" lon="2.130032">
        <ele>128.438066</ele>
        <time>2023-09-05T23:49:57.546Z</time>
      </trkpt>
      <trkpt lat="48.779443" lon="2.130178">
        <ele>129.072312</ele>
        <time>2023-09-05T23:50:03.082Z</time>
      </trkpt>
      <trkpt lat="48.779255" lon="2.130800">
        <ele>132.025820</ele>
        <time>2023-09-05T23:50:29.045Z</time>
      </trkpt>
      <trkpt lat="48.779249" lon="2.130819">
        <ele>132.116755</ele>
        <time>2023-09-05T23:50:30.125Z</time>
      </trkpt>
      <trkpt lat="48.780324" lon="2.131596">
        <ele>138.671305</ele>
        <time>2023-09-05T23:51:26.922Z</time>
      </trkpt>
      <trkpt lat="48.780746" lon="2.131533">
        <ele>139.851795</ele>
        <time>2023-09-05T23:51:41.238Z</time>
      </trkpt>
      <trkpt lat="48.781719" lon="2.132068">
        <ele>142.732872</ele>
        <time>2023-09-05T23:52:10.238Z</time>
      </trkpt>
      <trkpt lat="48.782765" lon="2.132303">
        <ele>145.275834</ele>
        <time>2023-09-05T23:52:43.078Z</time>
      </trkpt>
      <trkpt lat="48.784340" lon="2.132610">
        <ele>149.342817</ele>
        <time>2023-09-05T23:53:38.304Z</time>
      </trkpt>
      <trkpt lat="48.785260" lon="2.132805">
        <ele>151.854856</ele>
        <time>2023-09-05T23:54:09.029Z</time>
      </trkpt>
      <trkpt lat="48.785652" lon="2.132854">
        <ele>153.033622</ele>
        <time>2023-09-05T23:54:21.823Z</time>
      </trkpt>
      <trkpt lat="48.785818" lon="2.132835">
        <ele>153.536883</ele>
        <time>2023-09-05T23:54:26.867Z</time>
      </trkpt>
      <trkpt lat="48.785863" lon="2.132761">
        <ele>153.737464</ele>
        <time>2023-09-05T23:54:29.038Z</time>
      </trkpt>
      <trkpt lat="48.786123" lon="2.132801">
        <ele>154.527500</ele>
        <time>2023-09-05T23:54:37.341Z</time>
      </trkpt>
      <trkpt lat="48.786189" lon="2.132817">
        <ele>154.729555</ele>
        <time>2023-09-05T23:54:39.592Z</time>
      </trkpt>
      <trkpt lat="48.786216" lon="2.132916">
        <ele>154.942972</ele>
        <time>2023-09-05T23:54:42.167Z</time>
      </trkpt>
      <trkpt lat="48.786287" lon="2.132932">
        <ele>155.159966</ele>
        <time>2023-09-05T23:54:44.764Z</time>
      </trkpt>
      <trkpt lat="48.786351" lon="2.132942">
        <ele>155.354467</ele>
        <time>2023-09-05T23:54:47.307Z</time>
      </trkpt>
      <trkpt lat="48.786687" lon="2.132996">
        <ele>156.375911</ele>
        <time>2023-09-05T23:54:59.911Z</time>
      </trkpt>
      <trkpt lat="48.786947" lon="2.133176">
        <ele>157.239826</ele>
        <time>2023-09-05T23:55:10.735Z</time>
      </trkpt>
      <trkpt lat="48.787044" lon="2.133178">
        <ele>157.610484</ele>
        <time>2023-09-05T23:55:14.597Z</time>
      </trkpt>
      <trkpt lat="48.787123" lon="2.133120">
        <ele>158.009666</ele>
        <time>2023-09-05T23:55:17.908Z</time>
      </trkpt>
      <trkpt lat="48.787458" lon="2.133202">
        <ele>159.553177</ele>
        <time>2023-09-05T23:55:30.929Z</time>
      </trkpt>
      <trkpt lat="48.787602" lon="2.133245">
        <ele>160.220749</ele>
        <time>2023-09-05T23:55:37.112Z</time>
      </trkpt>
      <trkpt lat="48.787679" lon="2.133268">
        <ele>160.577719</ele>
        <time>2023-09-05T23:55:40.287Z</time>
      </trkpt>
      <trkpt lat="48.787787" lon="2.133467">
        <ele>161.350388</ele>
        <time>2023-09-05T23:55:47.622Z</time>
      </trkpt>
      <trkpt lat="48.787797" lon="2.133477">
        <ele>161.404860</ele>
        <time>2023-09-05T23:55:48.166Z</time>
      </trkpt>
      <trkpt lat="48.788417" lon="2.133794">
        <ele>164.380780</ele>
        <time>2023-09-05T23:56:16.862Z</time>
      </trkpt>
      <trkpt lat="48.788681" lon="2.133996">
        <ele>165.703248</ele>
        <time>2023-09-05T23:56:30.187Z</time>
      </trkpt>
      <trkpt lat="48.788728" lon="2.134032">
        <ele>165.910146</ele>
        <time>2023-09-05T23:56:32.660Z</time>
      </trkpt>
      <trkpt lat="48.788697" lon="2.134211">
        <ele>166.389365</ele>
        <time>2023-09-05T23:56:39.964Z</time>
      </trkpt>
      <trkpt lat="48.788762" lon="2.134381">
        <ele>166.898291</ele>
        <time>2023-09-05T23:56:47.143Z</time>
      </trkpt>
      <trkpt lat="48.788793" lon="2.134780">
        <ele>167.938556</ele>
        <time>2023-09-05T23:57:02.446Z</time>
      </trkpt>
      <trkpt lat="48.788833" lon="2.134929">
        <ele>168.355150</ele>
        <time>2023-09-05T23:57:08.134Z</time>
      </trkpt>
      <trkpt lat="48.789454" lon="2.135984">
        <ele>172.018210</ele>
        <time>2023-09-05T23:57:54.821Z</time>
      </trkpt>
      <trkpt lat="48.789475" lon="2.136115">
        <ele>172.367292</ele>
        <time>2023-09-05T23:57:58.929Z</time>
      </trkpt>
      <trkpt lat="48.789389" lon="2.136335">
        <ele>172.718953</ele>
        <time>2023-09-05T23:58:06.338Z</time>
      </trkpt>
      <trkpt lat="48.789075" lon="2.136698">
        <ele>173.064342</ele>
        <time>2023-09-05T23:58:22.339Z</time>
      </trkpt>
      <trkpt lat="48.788878" lon="2.136983">
        <ele>173.302488</ele>
        <time>2023-09-05T23:58:32.564Z</time>
      </trkpt>
      <trkpt lat="48.788768" lon="2.137289">
        <ele>173.503455</ele>
        <time>2023-09-05T23:58:40.607Z</time>
      </trkpt>
      <trkpt lat="48.788557" lon="2.137725">
        <ele>173.815343</ele>
        <time>2023-09-05T23:58:52.277Z</time>
      </trkpt>
      <trkpt lat="48.788505" lon="2.137940">
        <ele>173.947383</ele>
        <time>2023-09-05T23:58:57.021Z</time>
      </trkpt>
      <trkpt lat="48.788619" lon="2.138406">
        <ele>174.186112</ele>
        <time>2023-09-05T23:59:07.010Z</time>
      </trkpt>
      <trkpt lat="48.788636" lon="2.138572">
        <ele>174.128937</ele>
        <time>2023-09-05T23:59:10.346Z</time>
      </trkpt>
      <trkpt lat="48.788581" lon="2.138761">
        <ele>174.058618</ele>
        <time>2023-09-05T23:59:14.380Z</time>
      </trkpt>
      <trkpt lat="48.788473" lon="2.139000">
        <ele>173.959982</ele>
        <time>2023-09-05T23:59:20.033Z</time>
      </trkpt>
      <trkpt lat="48.788514" lon="2.139053">
        <ele>173.932163</ele>
        <time>2023-09-05T23:59:21.620Z</time>
      </trkpt>
      <trkpt lat="48.788772" lon="2.139155">
        <ele>173.794440</ele>
        <time>2023-09-05T23:59:29.532Z</time>
      </trkpt>
      <trkpt lat="48.788854" lon="2.139273">
        <ele>173.736069</ele>
        <time>2023-09-05T23:59:32.965Z</time>
      </trkpt>
      <trkpt lat="48.788753" lon="2.139783">
        <ele>173.554825</ele>
        <time>2023-09-05T23:59:43.893Z</time>
      </trkpt>
      <trkpt lat="48.788753" lon="2.139783">
        <ele>173.554825</ele>
        <time>2023-09-05T23:59:43.895Z</time>
      </trkpt>
      <trkpt lat="48.788745" lon="2.140088">
        <ele>173.450939</ele>
        <time>2023-09-05T23:59:50.030Z</time>
      </trkpt>
      <trkpt lat="48.788822" lon="2.140312">
        <ele>173.364951</ele>
        <time>2023-09-05T23:59:55.192Z</time>
      </trkpt>
      <trkpt lat="48.789223" lon="2.141024">
        <ele>172.230102</ele>
        <time>2023-09-06T00:00:13.799Z</time>
      </trkpt>
      <trkpt lat="48.789275" lon="2.141153">
        <ele>171.994886</ele>
        <time>2023-09-06T00:00:16.779Z</time>
      </trkpt>
      <trkpt lat="48.789322" lon="2.141421">
        <ele>171.563537</ele>
        <time>2023-09-06T00:00:22.147Z</time>
      </trkpt>
      <trkpt lat="48.789334" lon="2.141641">
        <ele>171.220189</ele>
        <time>2023-09-06T00:00:26.493Z</time>
      </trkpt>
      <trkpt lat="48.789311" lon="2.143805">
        <ele>165.432426</ele>
        <time>2023-09-06T00:01:02.406Z</time>
      </trkpt>
      <trkpt lat="48.790213" lon="2.145612">
        <ele>154.365817</ele>
        <time>2023-09-06T00:01:35.303Z</time>
      </trkpt>
      <trkpt lat="48.790465" lon="2.146264">
        <ele>150.065226</ele>
        <time>2023-09-06T00:01:46.053Z</time>
      </trkpt>
      <trkpt lat="48.790634" lon="2.146722">
        <ele>147.078708</ele>
        <time>2023-09-06T00:01:53.589Z</time>
      </trkpt>
      <trkpt lat="48.790874" lon="2.147144">
        <ele>143.907059</ele>
        <time>2023-09-06T00:02:19.177Z</time>
      </trkpt>
      <trkpt lat="48.790677" lon="2.147330">
        <ele>141.903604</ele>
        <time>2023-09-06T00:02:22.026Z</time>
      </trkpt>
      <trkpt lat="48.790237" lon="2.147774">
        <ele>138.581090</ele>
        <time>2023-09-06T00:02:28.636Z</time>
      </trkpt>
      <trkpt lat="48.790277" lon="2.147851">
        <ele>138.242499</ele>
        <time>2023-09-06T00:02:29.450Z</time>
      </trkpt>
      <trkpt lat="48.790307" lon="2.147904">
        <ele>138.001222</ele>
        <time>2023-09-06T00:02:30.035Z</time>
      </trkpt>
      <trkpt lat="48.790387" lon="2.148044">
        <ele>137.361301</ele>
        <time>2023-09-06T00:02:31.593Z</time>
      </trkpt>
      <trkpt lat="48.790815" lon="2.148780">
        <ele>133.971518</ele>
        <time>2023-09-06T00:02:40.351Z</time>
      </trkpt>
      <trkpt lat="48.790863" lon="2.148861">
        <ele>133.595332</ele>
        <time>2023-09-06T00:02:41.369Z</time>
      </trkpt>
      <trkpt lat="48.790910" lon="2.148942">
        <ele>133.222631</ele>
        <time>2023-09-06T00:02:42.377Z</time>
      </trkpt>
      <trkpt lat="48.791333" lon="2.149668">
        <ele>130.340638</ele>
        <time>2023-09-06T00:02:51.349Z</time>
      </trkpt>
      <trkpt lat="48.791672" lon="2.150255">
        <ele>128.694918</ele>
        <time>2023-09-06T00:02:58.624Z</time>
      </trkpt>
      <trkpt lat="48.791803" lon="2.150482">
        <ele>128.058701</ele>
        <time>2023-09-06T00:03:01.494Z</time>
      </trkpt>
      <trkpt lat="48.791951" lon="2.150735">
        <ele>127.345391</ele>
        <time>2023-09-06T00:03:04.759Z</time>
      </trkpt>
      <trkpt lat="48.792287" lon="2.151309">
        <ele>125.726584</ele>
        <time>2023-09-06T00:03:12.208Z</time>
      </trkpt>
      <trkpt lat="48.792467" lon="2.151628">
        <ele>124.909417</ele>
        <time>2023-09-06T00:03:16.270Z</time>
      </trkpt>
      <trkpt lat="48.792512" lon="2.151708">
        <ele>124.719746</ele>
        <time>2023-09-06T00:03:17.286Z</time>
      </trkpt>
      <trkpt lat="48.792720" lon="2.152059">
        <ele>123.868507</ele>
        <time>2023-09-06T00:03:21.819Z</time>
      </trkpt>
      <trkpt lat="48.793114" lon="2.152721">
        <ele>122.259920</ele>
        <time>2023-09-06T00:03:30.366Z</time>
      </trkpt>
      <trkpt lat="48.793579" lon="2.153513">
        <ele>120.354535</ele>
        <time>2023-09-06T00:03:40.799Z</time>
      </trkpt>
      <trkpt lat="48.794057" lon="2.154328">
        <ele>118.725251</ele>
        <time>2023-09-06T00:03:51.644Z</time>
      </trkpt>
      <trkpt lat="48.794397" lon="2.154890">
        <ele>117.585963</ele>
        <time>2023-09-06T00:03:59.274Z</time>
      </trkpt>
      <trkpt lat="48.794741" lon="2.155477">
        <ele>116.412906</ele>
        <time>2023-09-06T00:04:07.195Z</time>
      </trkpt>
      <trkpt lat="48.795034" lon="2.155977">
        <ele>115.999275</ele>
        <time>2023-09-06T00:04:14.055Z</time>
      </trkpt>
      <trkpt lat="48.795386" lon="2.155522">
        <ele>115.633189</ele>
        <time>2023-09-06T00:04:21.637Z</time>
      </trkpt>
      <trkpt lat="48.795612" lon="2.155235">
        <ele>115.399871</ele>
        <time>2023-09-06T00:04:26.871Z</time>
      </trkpt>
      <trkpt lat="48.795743" lon="2.155055">
        <ele>115.259958</ele>
        <time>2023-09-06T00:04:30.261Z</time>
      </trkpt>
      <trkpt lat="48.796089" lon="2.154603">
        <ele>114.898501</ele>
        <time>2023-09-06T00:04:39.281Z</time>
      </trkpt>
      <trkpt lat="48.796211" lon="2.154513">
        <ele>115.009083</ele>
        <time>2023-09-06T00:04:42.017Z</time>
      </trkpt>
      <trkpt lat="48.796412" lon="2.154383">
        <ele>115.219519</ele>
        <time>2023-09-06T00:04:46.839Z</time>
      </trkpt>
      <trkpt lat="48.796970" lon="2.154023">
        <ele>115.803493</ele>
        <time>2023-09-06T00:05:01.943Z</time>
      </trkpt>
      <trkpt lat="48.797140" lon="2.153926">
        <ele>115.978416</ele>
        <time>2023-09-06T00:05:06.735Z</time>
      </trkpt>
      <trkpt lat="48.797242" lon="2.153866">
        <ele>116.083778</ele>
        <time>2023-09-06T00:05:09.548Z</time>
      </trkpt>
      <trkpt lat="48.797452" lon="2.153743">
        <ele>116.300577</ele>
        <time>2023-09-06T00:05:15.455Z</time>
      </trkpt>
      <trkpt lat="48.797738" lon="2.153607">
        <ele>116.589243</ele>
        <time>2023-09-06T00:05:23.170Z</time>
      </trkpt>
      <trkpt lat="48.798017" lon="2.153526">
        <ele>116.637905</ele>
        <time>2023-09-06T00:05:30.237Z</time>
      </trkpt>
      <trkpt lat="48.798076" lon="2.153514">
        <ele>116.641724</ele>
        <time>2023-09-06T00:05:31.591Z</time>
      </trkpt>
      <trkpt lat="48.798147" lon="2.153557">
        <ele>116.646628</ele>
        <time>2023-09-06T00:05:33.330Z</time>
      </trkpt>
      <trkpt lat="48.798346" lon="2.153719">
        <ele>116.661115</ele>
        <time>2023-09-06T00:05:38.199Z</time>
      </trkpt>
      <trkpt lat="48.798350" lon="2.153823">
        <ele>116.665517</ele>
        <time>2023-09-06T00:05:39.561Z</time>
      </trkpt>
      <trkpt lat="48.798357" lon="2.153982">
        <ele>116.672252</ele>
        <time>2023-09-06T00:05:41.651Z</time>
      </trkpt>
      <trkpt lat="48.798387" lon="2.155377">
        <ele>116.731235</ele>
        <time>2023-09-06T00:05:58.530Z</time>
      </trkpt>
      <trkpt lat="48.798440" lon="2.157834">
        <ele>114.959044</ele>
        <time>2023-09-06T00:06:25.490Z</time>
      </trkpt>
      <trkpt lat="48.798461" lon="2.158049">
        <ele>114.792170</ele>
        <time>2023-09-06T00:06:27.642Z</time>
      </trkpt>
      <trkpt lat="48.798613" lon="2.158510">
        <ele>114.301046</ele>
        <time>2023-09-06T00:06:33.540Z</time>
      </trkpt>
      <trkpt lat="48.798613" lon="2.158510">
        <ele>114.301046</ele>
        <time>2023-09-06T00:06:33.563Z</time>
      </trkpt>
      <trkpt lat="48.798613" lon="2.158510">
        <ele>114.301046</ele>
        <time>2023-09-06T00:06:33.563Z</time>
      </trkpt>
      <trkpt lat="48.798847" lon="2.158704">
        <ele>113.869113</ele>
        <time>2023-09-06T00:06:44.981Z</time>
      </trkpt>
      <trkpt lat="48.798847" lon="2.158704">
        <ele>113.869113</ele>
        <time>2023-09-06T00:06:45.018Z</time>
      </trkpt>
      <trkpt lat="48.798847" lon="2.158704">
        <ele>113.869113</ele>
        <time>2023-09-06T00:06:45.018Z</time>
      </trkpt>
      <trkpt lat="48.799502" lon="2.159268">
        <ele>112.649192</ele>
        <time>2023-09-06T00:07:17.225Z</time>
      </trkpt>
      <trkpt lat="48.799502" lon="2.159268">
        <ele>112.649192</ele>
        <time>2023-09-06T00:07:17.236Z</time>
      </trkpt>
      <trkpt lat="48.799502" lon="2.159268">
        <ele>112.649192</ele>
        <time>2023-09-06T00:07:17.236Z</time>
      </trkpt>
      <trkpt lat="48.800164" lon="2.159914">
        <ele>111.282207</ele>
        <time>2023-09-06T00:07:50.896Z</time>
      </trkpt>
      <trkpt lat="48.800826" lon="2.160560">
        <ele>109.674443</ele>
        <time>2023-09-06T00:08:24.558Z</time>
      </trkpt>
      <trkpt lat="48.801488" lon="2.161206">
        <ele>108.066685</ele>
        <time>2023-09-06T00:08:58.221Z</time>
      </trkpt>
      <trkpt lat="48.801899" lon="2.161623">
        <ele>107.227452</ele>
        <time>2023-09-06T00:09:05.880Z</time>
      </trkpt>
      <trkpt lat="48.802213" lon="2.161945">
        <ele>106.586045</ele>
        <time>2023-09-06T00:09:11.812Z</time>
      </trkpt>
      <trkpt lat="48.802234" lon="2.161967">
        <ele>106.542856</ele>
        <time>2023-09-06T00:09:12.221Z</time>
      </trkpt>
      <trkpt lat="48.802555" lon="2.162297">
        <ele>105.886638</ele>
        <time>2023-09-06T00:09:18.310Z</time>
      </trkpt>
      <trkpt lat="48.803010" lon="2.162765">
        <ele>105.036530</ele>
        <time>2023-09-06T00:09:27.033Z</time>
      </trkpt>
      <trkpt lat="48.803354" lon="2.163107">
        <ele>105.427483</ele>
        <time>2023-09-06T00:09:34.083Z</time>
      </trkpt>
      <trkpt lat="48.803964" lon="2.163746">
        <ele>106.132112</ele>
        <time>2023-09-06T00:09:51.538Z</time>
      </trkpt>
      <trkpt lat="48.804151" lon="2.163943">
        <ele>106.348516</ele>
        <time>2023-09-06T00:09:58.274Z</time>
      </trkpt>
      <trkpt lat="48.804467" lon="2.164269">
        <ele>106.711758</ele>
        <time>2023-09-06T00:10:10.411Z</time>
      </trkpt>
      <trkpt lat="48.805078" lon="2.164888">
        <ele>110.213807</ele>
        <time>2023-09-06T00:10:37.541Z</time>
      </trkpt>
      <trkpt lat="48.805130" lon="2.164941">
        <ele>110.514499</ele>
        <time>2023-09-06T00:10:40.222Z</time>
      </trkpt>
      <trkpt lat="48.805157" lon="2.164948">
        <ele>110.646006</ele>
        <time>2023-09-06T00:10:41.449Z</time>
      </trkpt>
      <trkpt lat="48.805248" lon="2.164826">
        <ele>111.228849</ele>
        <time>2023-09-06T00:10:46.994Z</time>
      </trkpt>
      <trkpt lat="48.805371" lon="2.164815">
        <ele>111.820409</ele>
        <time>2023-09-06T00:10:52.421Z</time>
      </trkpt>
      <trkpt lat="48.805514" lon="2.164818">
        <ele>112.507034</ele>
        <time>2023-09-06T00:10:59.294Z</time>
      </trkpt>
      <trkpt lat="48.805625" lon="2.164818">
        <ele>113.039957</ele>
        <time>2023-09-06T00:11:04.709Z</time>
      </trkpt>
      <trkpt lat="48.805666" lon="2.164965">
        <ele>113.544746</ele>
        <time>2023-09-06T00:11:09.678Z</time>
      </trkpt>
      <trkpt lat="48.805695" lon="2.165075">
        <ele>113.919406</ele>
        <time>2023-09-06T00:11:13.606Z</time>
      </trkpt>
      <trkpt lat="48.805761" lon="2.165321">
        <ele>114.759343</ele>
        <time>2023-09-06T00:11:22.778Z</time>
      </trkpt>
      <trkpt lat="48.805777" lon="2.165375">
        <ele>114.946578</ele>
        <time>2023-09-06T00:11:24.708Z</time>
      </trkpt>
      <trkpt lat="48.805878" lon="2.165484">
        <ele>115.620540</ele>
        <time>2023-09-06T00:11:31.085Z</time>
      </trkpt>
      <trkpt lat="48.805995" lon="2.165529">
        <ele>116.443357</ele>
        <time>2023-09-06T00:11:37.562Z</time>
      </trkpt>
      <trkpt lat="48.807448" lon="2.165760">
        <ele>126.403052</ele>
        <time>2023-09-06T00:12:55.499Z</time>
      </trkpt>
      <trkpt lat="48.807569" lon="2.165648">
        <ele>127.369136</ele>
        <time>2023-09-06T00:13:03.374Z</time>
      </trkpt>
      <trkpt lat="48.809401" lon="2.164697">
        <ele>141.174071</ele>
        <time>2023-09-06T00:14:49.922Z</time>
      </trkpt>
      <trkpt lat="48.809513" lon="2.164635">
        <ele>142.022253</ele>
        <time>2023-09-06T00:14:58.268Z</time>
      </trkpt>
      <trkpt lat="48.809464" lon="2.164355">
        <ele>143.379775</ele>
        <time>2023-09-06T00:15:10.726Z</time>
      </trkpt>
      <trkpt lat="48.810238" lon="2.164261">
        <ele>148.904362</ele>
        <time>2023-09-06T00:16:02.790Z</time>
      </trkpt>
      <trkpt lat="48.810384" lon="2.164271">
        <ele>149.944207</ele>
        <time>2023-09-06T00:16:12.660Z</time>
      </trkpt>
      <trkpt lat="48.810591" lon="2.163884">
        <ele>152.280291</ele>
        <time>2023-09-06T00:16:34.364Z</time>
      </trkpt>
      <trkpt lat="48.810810" lon="2.163561">
        <ele>154.425696</ele>
        <time>2023-09-06T00:16:55.075Z</time>
      </trkpt>
      <trkpt lat="48.811073" lon="2.162974">
        <ele>157.678182</ele>
        <time>2023-09-06T00:17:28.795Z</time>
      </trkpt>
      <trkpt lat="48.811284" lon="2.162656">
        <ele>159.746207</ele>
        <time>2023-09-06T00:17:48.770Z</time>
      </trkpt>
      <trkpt lat="48.811370" lon="2.162423">
        <ele>160.969828</ele>
        <time>2023-09-06T00:18:00.028Z</time>
      </trkpt>
      <trkpt lat="48.811466" lon="2.162272">
        <ele>161.931335</ele>
        <time>2023-09-06T00:18:09.224Z</time>
      </trkpt>
      <trkpt lat="48.812154" lon="2.162059">
        <ele>166.496151</ele>
        <time>2023-09-06T00:18:54.482Z</time>
      </trkpt>
      <trkpt lat="48.812499" lon="2.161432">
        <ele>169.103306</ele>
        <time>2023-09-06T00:19:20.401Z</time>
      </trkpt>
      <trkpt lat="48.812534" lon="2.161272">
        <ele>169.641276</ele>
        <time>2023-09-06T00:19:25.362Z</time>
      </trkpt>
      <trkpt lat="48.812753" lon="2.161400">
        <ele>170.778321</ele>
        <time>2023-09-06T00:19:36.442Z</time>
      </trkpt>
      <trkpt lat="48.812933" lon="2.160910">
        <ele>172.568651</ele>
        <time>2023-09-06T00:19:51.994Z</time>
      </trkpt>
      <trkpt lat="48.813190" lon="2.160349">
        <ele>174.567543</ele>
        <time>2023-09-06T00:20:07.264Z</time>
      </trkpt>
      <trkpt lat="48.813193" lon="2.160343">
        <ele>174.575499</ele>
        <time>2023-09-06T00:20:07.393Z</time>
      </trkpt>
      <trkpt lat="48.813667" lon="2.159539">
        <ele>175.715167</ele>
        <time>2023-09-06T00:20:29.620Z</time>
      </trkpt>
      <trkpt lat="48.813873" lon="2.158847">
        <ele>176.517185</ele>
        <time>2023-09-06T00:20:42.050Z</time>
      </trkpt>
      <trkpt lat="48.813898" lon="2.158754">
        <ele>176.623270</ele>
        <time>2023-09-06T00:20:43.445Z</time>
      </trkpt>
      <trkpt lat="48.814473" lon="2.157661">
        <ele>177.683319</ele>
        <time>2023-09-06T00:21:03.027Z</time>
      </trkpt>
      <trkpt lat="48.814538" lon="2.157538">
        <ele>177.755738</ele>
        <time>2023-09-06T00:21:05.227Z</time>
      </trkpt>
      <trkpt lat="48.814599" lon="2.157405">
        <ele>177.830163</ele>
        <time>2023-09-06T00:21:07.293Z</time>
      </trkpt>
      <trkpt lat="48.814633" lon="2.157339">
        <ele>177.868642</ele>
        <time>2023-09-06T00:21:08.359Z</time>
      </trkpt>
      <trkpt lat="48.814678" lon="2.157245">
        <ele>177.922007</ele>
        <time>2023-09-06T00:21:10.052Z</time>
      </trkpt>
      <trkpt lat="48.814824" lon="2.156897">
        <ele>178.111480</ele>
        <time>2023-09-06T00:21:16.009Z</time>
      </trkpt>
      <trkpt lat="48.815444" lon="2.155620">
        <ele>178.993999</ele>
        <time>2023-09-06T00:21:41.630Z</time>
      </trkpt>
      <trkpt lat="48.815810" lon="2.154950">
        <ele>179.669090</ele>
        <time>2023-09-06T00:21:56.966Z</time>
      </trkpt>
      <trkpt lat="48.816073" lon="2.154395">
        <ele>180.199345</ele>
        <time>2023-09-06T00:22:09.140Z</time>
      </trkpt>
      <trkpt lat="48.816124" lon="2.154148">
        <ele>180.400085</ele>
        <time>2023-09-06T00:22:13.562Z</time>
      </trkpt>
      <trkpt lat="48.816101" lon="2.153836">
        <ele>180.643545</ele>
        <time>2023-09-06T00:22:18.790Z</time>
      </trkpt>
      <trkpt lat="48.816073" lon="2.153459">
        <ele>180.651791</ele>
        <time>2023-09-06T00:22:24.287Z</time>
      </trkpt>
      <trkpt lat="48.816118" lon="2.153184">
        <ele>180.562060</ele>
        <time>2023-09-06T00:22:27.909Z</time>
      </trkpt>
      <trkpt lat="48.816766" lon="2.152015">
        <ele>180.078181</ele>
        <time>2023-09-06T00:22:45.589Z</time>
      </trkpt>
      <trkpt lat="48.816966" lon="2.151636">
        <ele>179.924383</ele>
        <time>2023-09-06T00:22:50.866Z</time>
      </trkpt>
      <trkpt lat="48.817102" lon="2.151479">
        <ele>179.811853</ele>
        <time>2023-09-06T00:22:53.630Z</time>
      </trkpt>
      <trkpt lat="48.817527" lon="2.151293">
        <ele>179.364254</ele>
        <time>2023-09-06T00:23:00.773Z</time>
      </trkpt>
      <trkpt lat="48.817656" lon="2.151202">
        <ele>179.220311</ele>
        <time>2023-09-06T00:23:03.089Z</time>
      </trkpt>
      <trkpt lat="48.818012" lon="2.150759">
        <ele>178.754550</ele>
        <time>2023-09-06T00:23:10.641Z</time>
      </trkpt>
      <trkpt lat="48.818313" lon="2.150744">
        <ele>178.449776</ele>
        <time>2023-09-06T00:23:17.613Z</time>
      </trkpt>
      <trkpt lat="48.818809" lon="2.150683">
        <ele>178.036466</ele>
        <time>2023-09-06T00:23:26.541Z</time>
      </trkpt>
      <trkpt lat="48.818903" lon="2.150678">
        <ele>178.024439</ele>
        <time>2023-09-06T00:23:28.353Z</time>
      </trkpt>
      <trkpt lat="48.818977" lon="2.150742">
        <ele>178.013550</ele>
        <time>2023-09-06T00:23:29.887Z</time>
      </trkpt>
      <trkpt lat="48.819123" lon="2.150685">
        <ele>177.994274</ele>
        <time>2023-09-06T00:23:32.638Z</time>
      </trkpt>
      <trkpt lat="48.819156" lon="2.150560">
        <ele>177.982935</ele>
        <time>2023-09-06T00:23:34.349Z</time>
      </trkpt>
      <trkpt lat="48.819182" lon="2.150375">
        <ele>177.967009</ele>
        <time>2023-09-06T00:23:36.674Z</time>
      </trkpt>
      <trkpt lat="48.819185" lon="2.150250">
        <ele>177.956477</ele>
        <time>2023-09-06T00:23:38.200Z</time>
      </trkpt>
      <trkpt lat="48.819098" lon="2.150106">
        <ele>177.940023</ele>
        <time>2023-09-06T00:23:40.601Z</time>
      </trkpt>
      <trkpt lat="48.819106" lon="2.149985">
        <ele>177.929784</ele>
        <time>2023-09-06T00:23:42.224Z</time>
      </trkpt>
      <trkpt lat="48.819149" lon="2.149995">
        <ele>177.924222</ele>
        <time>2023-09-06T00:23:45.258Z</time>
      </trkpt>
      <trkpt lat="48.819339" lon="2.149963">
        <ele>177.899778</ele>
        <time>2023-09-06T00:23:49.277Z</time>
      </trkpt>
      <trkpt lat="48.819466" lon="2.150021">
        <ele>177.882820</ele>
        <time>2023-09-06T00:23:52.360Z</time>
      </trkpt>
      <trkpt lat="48.819655" lon="2.150301">
        <ele>177.849059</ele>
        <time>2023-09-06T00:23:58.153Z</time>
      </trkpt>
      <trkpt lat="48.820410" lon="2.150699">
        <ele>177.579614</ele>
        <time>2023-09-06T00:24:15.753Z</time>
      </trkpt>
      <trkpt lat="48.821127" lon="2.150832">
        <ele>177.274653</ele>
        <time>2023-09-06T00:24:29.940Z</time>
      </trkpt>
      <trkpt lat="48.821298" lon="2.150864">
        <ele>177.201912</ele>
        <time>2023-09-06T00:24:33.318Z</time>
      </trkpt>
      <trkpt lat="48.821681" lon="2.150830">
        <ele>177.043564</ele>
        <time>2023-09-06T00:24:40.688Z</time>
      </trkpt>
      <trkpt lat="48.823121" lon="2.150257">
        <ele>176.527831</ele>
        <time>2023-09-06T00:25:10.263Z</time>
      </trkpt>
      <trkpt lat="48.823437" lon="2.150098">
        <ele>176.478391</ele>
        <time>2023-09-06T00:25:18.391Z</time>
      </trkpt>
      <trkpt lat="48.824127" lon="2.149751">
        <ele>176.903540</ele>
        <time>2023-09-06T00:25:37.140Z</time>
      </trkpt>
      <trkpt lat="48.824692" lon="2.149536">
        <ele>177.244240</ele>
        <time>2023-09-06T00:25:52.645Z</time>
      </trkpt>
      <trkpt lat="48.825076" lon="2.149400">
        <ele>177.474879</ele>
        <time>2023-09-06T00:26:02.224Z</time>
      </trkpt>
      <trkpt lat="48.825947" lon="2.149045">
        <ele>176.528101</ele>
        <time>2023-09-06T00:26:20.268Z</time>
      </trkpt>
      <trkpt lat="48.827213" lon="2.148431">
        <ele>175.009375</ele>
        <time>2023-09-06T00:26:43.690Z</time>
      </trkpt>
      <trkpt lat="48.827386" lon="2.148219">
        <ele>174.731433</ele>
        <time>2023-09-06T00:26:47.614Z</time>
      </trkpt>
      <trkpt lat="48.828156" lon="2.146998">
        <ele>173.339576</ele>
        <time>2023-09-06T00:27:08.303Z</time>
      </trkpt>
      <trkpt lat="48.829261" lon="2.145093">
        <ele>173.820031</ele>
        <time>2023-09-06T00:27:47.905Z</time>
      </trkpt>
      <trkpt lat="48.830238" lon="2.143509">
        <ele>174.970469</ele>
        <time>2023-09-06T00:28:24.030Z</time>
      </trkpt>
      <trkpt lat="48.830609" lon="2.142806">
        <ele>175.505966</ele>
        <time>2023-09-06T00:28:39.874Z</time>
      </trkpt>
      <trkpt lat="48.830653" lon="2.142699">
        <ele>175.614227</ele>
        <time>2023-09-06T00:28:42.512Z</time>
      </trkpt>
      <trkpt lat="48.830714" lon="2.142552">
        <ele>175.763341</ele>
        <time>2023-09-06T00:28:45.885Z</time>
      </trkpt>
      <trkpt lat="48.830647" lon="2.142464">
        <ele>175.878799</ele>
        <time>2023-09-06T00:28:48.996Z</time>
      </trkpt>
      <trkpt lat="48.830333" lon="2.142316">
        <ele>176.307367</ele>
        <time>2023-09-06T00:29:01.722Z</time>
      </trkpt>
      <trkpt lat="48.830291" lon="2.142239">
        <ele>176.393177</ele>
        <time>2023-09-06T00:29:03.862Z</time>
      </trkpt>
      <trkpt lat="48.830678" lon="2.142293">
        <ele>176.899779</ele>
        <time>2023-09-06T00:29:13.478Z</time>
      </trkpt>
      <trkpt lat="48.830896" lon="2.142323">
        <ele>177.185119</ele>
        <time>2023-09-06T00:29:19.035Z</time>
      </trkpt>
      <trkpt lat="48.830987" lon="2.142339">
        <ele>177.304535</ele>
        <time>2023-09-06T00:29:20.953Z</time>
      </trkpt>
      <trkpt lat="48.831112" lon="2.142376">
        <ele>177.470544</ele>
        <time>2023-09-06T00:29:24.480Z</time>
      </trkpt>
      <trkpt lat="48.831425" lon="2.142468">
        <ele>177.918271</ele>
        <time>2023-09-06T00:29:32.386Z</time>
      </trkpt>
      <trkpt lat="48.831505" lon="2.142495">
        <ele>178.063805</ele>
        <time>2023-09-06T00:29:34.782Z</time>
      </trkpt>
      <trkpt lat="48.831942" lon="2.142612">
        <ele>178.851822</ele>
        <time>2023-09-06T00:29:49.151Z</time>
      </trkpt>
      <trkpt lat="48.832858" lon="2.142818">
        <ele>180.496251</ele>
        <time>2023-09-06T00:30:17.399Z</time>
      </trkpt>
      <trkpt lat="48.833039" lon="2.142841">
        <ele>180.818807</ele>
        <time>2023-09-06T00:30:21.347Z</time>
      </trkpt>
      <trkpt lat="48.833572" lon="2.142881">
        <ele>181.038896</ele>
        <time>2023-09-06T00:30:33.124Z</time>
      </trkpt>
      <trkpt lat="48.833787" lon="2.142903">
        <ele>181.062266</ele>
        <time>2023-09-06T00:30:37.785Z</time>
      </trkpt>
      <trkpt lat="48.833887" lon="2.142914">
        <ele>181.073140</ele>
        <time>2023-09-06T00:30:39.969Z</time>
      </trkpt>
      <trkpt lat="48.834260" lon="2.142191">
        <ele>181.138717</ele>
        <time>2023-09-06T00:30:51.979Z</time>
      </trkpt>
      <trkpt lat="48.834486" lon="2.141892">
        <ele>181.171219</ele>
        <time>2023-09-06T00:30:57.539Z</time>
      </trkpt>
      <trkpt lat="48.835847" lon="2.140121">
        <ele>178.770775</ele>
        <time>2023-09-06T00:31:26.481Z</time>
      </trkpt>
      <trkpt lat="48.836085" lon="2.139997">
        <ele>178.304319</ele>
        <time>2023-09-06T00:31:30.385Z</time>
      </trkpt>
      <trkpt lat="48.836153" lon="2.139983">
        <ele>178.138386</ele>
        <time>2023-09-06T00:31:31.437Z</time>
      </trkpt>
      <trkpt lat="48.836286" lon="2.139956">
        <ele>177.813922</ele>
        <time>2023-09-06T00:31:33.517Z</time>
      </trkpt>
      <trkpt lat="48.836349" lon="2.139942">
        <ele>177.659961</ele>
        <time>2023-09-06T00:31:34.473Z</time>
      </trkpt>
      <trkpt lat="48.836450" lon="2.139912">
        <ele>177.411110</ele>
        <time>2023-09-06T00:31:36.028Z</time>
      </trkpt>
      <trkpt lat="48.836499" lon="2.139850">
        <ele>177.256913</ele>
        <time>2023-09-06T00:31:36.971Z</time>
      </trkpt>
      <trkpt lat="48.836800" lon="2.141632">
        <ele>174.328769</ele>
        <time>2023-09-06T00:32:08.889Z</time>
      </trkpt>
      <trkpt lat="48.837424" lon="2.141698">
        <ele>173.352812</ele>
        <time>2023-09-06T00:32:25.788Z</time>
      </trkpt>
      <trkpt lat="48.838163" lon="2.141779">
        <ele>172.254152</ele>
        <time>2023-09-06T00:32:46.887Z</time>
      </trkpt>
      <trkpt lat="48.838278" lon="2.141792">
        <ele>172.083155</ele>
        <time>2023-09-06T00:32:50.293Z</time>
      </trkpt>
      <trkpt lat="48.838621" lon="2.141866">
        <ele>171.569442</ele>
        <time>2023-09-06T00:33:00.727Z</time>
      </trkpt>
      <trkpt lat="48.838500" lon="2.142501">
        <ele>171.321084</ele>
        <time>2023-09-06T00:33:14.296Z</time>
      </trkpt>
      <trkpt lat="48.838375" lon="2.143164">
        <ele>171.084281</ele>
        <time>2023-09-06T00:33:28.615Z</time>
      </trkpt>
      <trkpt lat="48.838269" lon="2.143766">
        <ele>170.870310</ele>
        <time>2023-09-06T00:33:41.189Z</time>
      </trkpt>
      <trkpt lat="48.838204" lon="2.144861">
        <ele>170.504646</ele>
        <time>2023-09-06T00:34:02.443Z</time>
      </trkpt>
      <trkpt lat="48.838572" lon="2.145219">
        <ele>170.302308</ele>
        <time>2023-09-06T00:34:10.618Z</time>
      </trkpt>
      <trkpt lat="48.839239" lon="2.144904">
        <ele>169.978882</ele>
        <time>2023-09-06T00:34:24.633Z</time>
      </trkpt>
      <trkpt lat="48.839696" lon="2.144703">
        <ele>169.779782</ele>
        <time>2023-09-06T00:34:34.773Z</time>
      </trkpt>
      <trkpt lat="48.840341" lon="2.145358">
        <ele>170.552441</ele>
        <time>2023-09-06T00:35:01.907Z</time>
      </trkpt>
      <trkpt lat="48.840752" lon="2.145686">
        <ele>171.014805</ele>
        <time>2023-09-06T00:35:19.970Z</time>
      </trkpt>
      <trkpt lat="48.840769" lon="2.145807">
        <ele>171.095906</ele>
        <time>2023-09-06T00:35:23.151Z</time>
      </trkpt>
      <trkpt lat="48.840876" lon="2.145811">
        <ele>171.202505</ele>
        <time>2023-09-06T00:35:26.021Z</time>
      </trkpt>
      <trkpt lat="48.841796" lon="2.145715">
        <ele>171.857053</ele>
        <time>2023-09-06T00:35:51.101Z</time>
      </trkpt>
      <trkpt lat="48.842342" lon="2.145674">
        <ele>172.146890</ele>
        <time>2023-09-06T00:36:02.660Z</time>
      </trkpt>
      <trkpt lat="48.842543" lon="2.145682">
        <ele>172.253494</ele>
        <time>2023-09-06T00:36:06.488Z</time>
      </trkpt>
      <trkpt lat="48.842740" lon="2.145753">
        <ele>172.360840</ele>
        <time>2023-09-06T00:36:10.302Z</time>
      </trkpt>
      <trkpt lat="48.843225" lon="2.146078">
        <ele>172.314617</ele>
        <time>2023-09-06T00:36:20.026Z</time>
      </trkpt>
      <trkpt lat="48.843992" lon="2.146635">
        <ele>171.644415</ele>
        <time>2023-09-06T00:36:34.768Z</time>
      </trkpt>
      <trkpt lat="48.844460" lon="2.146983">
        <ele>171.233641</ele>
        <time>2023-09-06T00:36:43.569Z</time>
      </trkpt>
      <trkpt lat="48.845842" lon="2.147989">
        <ele>169.276061</ele>
        <time>2023-09-06T00:37:08.647Z</time>
      </trkpt>
      <trkpt lat="48.846003" lon="2.148120">
        <ele>169.030923</ele>
        <time>2023-09-06T00:37:11.569Z</time>
      </trkpt>
      <trkpt lat="48.846684" lon="2.148595">
        <ele>168.268220</ele>
        <time>2023-09-06T00:37:23.679Z</time>
      </trkpt>
      <trkpt lat="48.846912" lon="2.148766">
        <ele>168.054013</ele>
        <time>2023-09-06T00:37:27.981Z</time>
      </trkpt>
      <trkpt lat="48.847009" lon="2.148840">
        <ele>167.962572</ele>
        <time>2023-09-06T00:37:29.856Z</time>
      </trkpt>
      <trkpt lat="48.847022" lon="2.148972">
        <ele>167.888575</ele>
        <time>2023-09-06T00:37:31.383Z</time>
      </trkpt>
      <trkpt lat="48.847420" lon="2.149476">
        <ele>167.452104</ele>
        <time>2023-09-06T00:37:40.659Z</time>
      </trkpt>
      <trkpt lat="48.847606" lon="2.149769">
        <ele>167.226400</ele>
        <time>2023-09-06T00:37:45.422Z</time>
      </trkpt>
      <trkpt lat="48.847750" lon="2.150025">
        <ele>167.134770</ele>
        <time>2023-09-06T00:37:49.389Z</time>
      </trkpt>
      <trkpt lat="48.847878" lon="2.150353">
        <ele>167.086823</ele>
        <time>2023-09-06T00:37:53.969Z</time>
      </trkpt>
      <trkpt lat="48.847978" lon="2.150726">
        <ele>167.036181</ele>
        <time>2023-09-06T00:37:58.881Z</time>
      </trkpt>
      <trkpt lat="48.847997" lon="2.150980">
        <ele>167.004039</ele>
        <time>2023-09-06T00:38:01.938Z</time>
      </trkpt>
      <trkpt lat="48.848021" lon="2.151264">
        <ele>166.968038</ele>
        <time>2023-09-06T00:38:05.515Z</time>
      </trkpt>
      <trkpt lat="48.848193" lon="2.151903">
        <ele>166.881233</ele>
        <time>2023-09-06T00:38:14.455Z</time>
      </trkpt>
      <trkpt lat="48.848348" lon="2.152432">
        <ele>166.814368</ele>
        <time>2023-09-06T00:38:21.865Z</time>
      </trkpt>
      <trkpt lat="48.848600" lon="2.152710">
        <ele>166.788321</ele>
        <time>2023-09-06T00:38:27.693Z</time>
      </trkpt>
      <trkpt lat="48.848723" lon="2.152918">
        <ele>166.772929</ele>
        <time>2023-09-06T00:38:30.994Z</time>
      </trkpt>
      <trkpt lat="48.848835" lon="2.153001">
        <ele>166.762506</ele>
        <time>2023-09-06T00:38:33.313Z</time>
      </trkpt>
      <trkpt lat="48.848957" lon="2.153190">
        <ele>166.747934</ele>
        <time>2023-09-06T00:38:36.418Z</time>
      </trkpt>
      <trkpt lat="48.850900" lon="2.156188">
        <ele>166.699875</ele>
        <time>2023-09-06T00:39:30.478Z</time>
      </trkpt>
      <trkpt lat="48.850932" lon="2.156238">
        <ele>166.574060</ele>
        <time>2023-09-06T00:39:31.383Z</time>
      </trkpt>
      <trkpt lat="48.851004" lon="2.156349">
        <ele>166.292911</ele>
        <time>2023-09-06T00:39:33.668Z</time>
      </trkpt>
      <trkpt lat="48.851036" lon="2.156396">
        <ele>166.170917</ele>
        <time>2023-09-06T00:39:34.641Z</time>
      </trkpt>
      <trkpt lat="48.851054" lon="2.156423">
        <ele>166.101587</ele>
        <time>2023-09-06T00:39:35.172Z</time>
      </trkpt>
      <trkpt lat="48.851097" lon="2.156485">
        <ele>165.939101</ele>
        <time>2023-09-06T00:39:36.306Z</time>
      </trkpt>
      <trkpt lat="48.851315" lon="2.156815">
        <ele>165.095625</ele>
        <time>2023-09-06T00:39:41.737Z</time>
      </trkpt>
      <trkpt lat="48.851313" lon="2.157232">
        <ele>164.343420</ele>
        <time>2023-09-06T00:39:46.097Z</time>
      </trkpt>
      <trkpt lat="48.851313" lon="2.157237">
        <ele>164.334401</ele>
        <time>2023-09-06T00:39:46.148Z</time>
      </trkpt>
      <trkpt lat="48.851285" lon="2.157463">
        <ele>163.919579</ele>
        <time>2023-09-06T00:39:48.443Z</time>
      </trkpt>
      <trkpt lat="48.851230" lon="2.157672">
        <ele>163.513554</ele>
        <time>2023-09-06T00:39:50.566Z</time>
      </trkpt>
      <trkpt lat="48.851105" lon="2.157943">
        <ele>162.916585</ele>
        <time>2023-09-06T00:39:53.618Z</time>
      </trkpt>
      <trkpt lat="48.851074" lon="2.158088">
        <ele>162.641574</ele>
        <time>2023-09-06T00:39:54.965Z</time>
      </trkpt>
      <trkpt lat="48.851081" lon="2.158217">
        <ele>162.408093</ele>
        <time>2023-09-06T00:39:56.108Z</time>
      </trkpt>
      <trkpt lat="48.851116" lon="2.158320">
        <ele>162.198990</ele>
        <time>2023-09-06T00:39:57.118Z</time>
      </trkpt>
      <trkpt lat="48.851242" lon="2.158483">
        <ele>161.563126</ele>
        <time>2023-09-06T00:39:59.263Z</time>
      </trkpt>
      <trkpt lat="48.851745" lon="2.158897">
        <ele>156.516243</ele>
        <time>2023-09-06T00:40:06.328Z</time>
      </trkpt>
      <trkpt lat="48.851944" lon="2.159113">
        <ele>154.358694</ele>
        <time>2023-09-06T00:40:09.273Z</time>
      </trkpt>
      <trkpt lat="48.852169" lon="2.159446">
        <ele>151.587783</ele>
        <time>2023-09-06T00:40:13.045Z</time>
      </trkpt>
      <trkpt lat="48.852379" lon="2.159893">
        <ele>148.399236</ele>
        <time>2023-09-06T00:40:17.360Z</time>
      </trkpt>
      <trkpt lat="48.852382" lon="2.159897">
        <ele>148.364025</ele>
        <time>2023-09-06T00:40:17.408Z</time>
      </trkpt>
      <trkpt lat="48.852566" lon="2.160186">
        <ele>146.029456</ele>
        <time>2023-09-06T00:40:20.555Z</time>
      </trkpt>
      <trkpt lat="48.852821" lon="2.160480">
        <ele>143.510970</ele>
        <time>2023-09-06T00:40:24.376Z</time>
      </trkpt>
      <trkpt lat="48.853015" lon="2.160771">
        <ele>141.372903</ele>
        <time>2023-09-06T00:40:27.664Z</time>
      </trkpt>
      <trkpt lat="48.853287" lon="2.161178">
        <ele>138.378831</ele>
        <time>2023-09-06T00:40:32.317Z</time>
      </trkpt>
      <trkpt lat="48.853406" lon="2.161417">
        <ele>136.831952</ele>
        <time>2023-09-06T00:40:34.777Z</time>
      </trkpt>
      <trkpt lat="48.853891" lon="2.162278">
        <ele>131.365603</ele>
        <time>2023-09-06T00:40:44.471Z</time>
      </trkpt>
      <trkpt lat="48.854081" lon="2.162478">
        <ele>130.353340</ele>
        <time>2023-09-06T00:40:47.605Z</time>
      </trkpt>
      <trkpt lat="48.854399" lon="2.162634">
        <ele>128.889816</ele>
        <time>2023-09-06T00:40:52.143Z</time>
      </trkpt>
      <trkpt lat="48.855054" lon="2.162899">
        <ele>125.921161</ele>
        <time>2023-09-06T00:41:01.456Z</time>
      </trkpt>
      <trkpt lat="48.855054" lon="2.162899">
        <ele>125.921161</ele>
        <time>2023-09-06T00:41:01.457Z</time>
      </trkpt>
      <trkpt lat="48.855330" lon="2.163213">
        <ele>124.411188</ele>
        <time>2023-09-06T00:41:06.286Z</time>
      </trkpt>
      <trkpt lat="48.855722" lon="2.163558">
        <ele>122.576829</ele>
        <time>2023-09-06T00:41:12.691Z</time>
      </trkpt>
      <trkpt lat="48.856189" lon="2.163909">
        <ele>120.515910</ele>
        <time>2023-09-06T00:41:20.040Z</time>
      </trkpt>
      <trkpt lat="48.857812" lon="2.165030">
        <ele>112.888096</ele>
        <time>2023-09-06T00:41:44.486Z</time>
      </trkpt>
      <trkpt lat="48.858074" lon="2.165144">
        <ele>111.627175</ele>
        <time>2023-09-06T00:41:48.225Z</time>
      </trkpt>
      <trkpt lat="48.858079" lon="2.165144">
        <ele>111.604041</ele>
        <time>2023-09-06T00:41:48.291Z</time>
      </trkpt>
      <trkpt lat="48.858530" lon="2.165179">
        <ele>109.514629</ele>
        <time>2023-09-06T00:41:54.373Z</time>
      </trkpt>
      <trkpt lat="48.859537" lon="2.165212">
        <ele>103.711299</ele>
        <time>2023-09-06T00:42:07.497Z</time>
      </trkpt>
      <trkpt lat="48.859883" lon="2.164883">
        <ele>101.236636</ele>
        <time>2023-09-06T00:42:16.979Z</time>
      </trkpt>
      <trkpt lat="48.860021" lon="2.164700">
        <ele>100.126188</ele>
        <time>2023-09-06T00:42:21.178Z</time>
      </trkpt>
      <trkpt lat="48.860080" lon="2.164637">
        <ele>99.688990</ele>
        <time>2023-09-06T00:42:22.844Z</time>
      </trkpt>
      <trkpt lat="48.860084" lon="2.164633">
        <ele>99.659958</ele>
        <time>2023-09-06T00:42:22.958Z</time>
      </trkpt>
      <trkpt lat="48.860110" lon="2.164605">
        <ele>99.466749</ele>
        <time>2023-09-06T00:42:23.700Z</time>
      </trkpt>
      <trkpt lat="48.860223" lon="2.164544">
        <ele>98.739648</ele>
        <time>2023-09-06T00:42:26.454Z</time>
      </trkpt>
      <trkpt lat="48.860248" lon="2.164521">
        <ele>98.562457</ele>
        <time>2023-09-06T00:42:27.113Z</time>
      </trkpt>
      <trkpt lat="48.860299" lon="2.164457">
        <ele>98.161447</ele>
        <time>2023-09-06T00:42:28.654Z</time>
      </trkpt>
      <trkpt lat="48.860699" lon="2.164168">
        <ele>95.335999</ele>
        <time>2023-09-06T00:42:34.290Z</time>
      </trkpt>
      <trkpt lat="48.861299" lon="2.163832">
        <ele>91.206801</ele>
        <time>2023-09-06T00:42:42.408Z</time>
      </trkpt>
      <trkpt lat="48.861451" lon="2.163788">
        <ele>90.207593</ele>
        <time>2023-09-06T00:42:44.383Z</time>
      </trkpt>
      <trkpt lat="48.861916" lon="2.163654">
        <ele>87.151285</ele>
        <time>2023-09-06T00:42:50.462Z</time>
      </trkpt>
      <trkpt lat="48.862507" lon="2.163420">
        <ele>83.446681</ele>
        <time>2023-09-06T00:42:58.355Z</time>
      </trkpt>
      <trkpt lat="48.863375" lon="2.162878">
        <ele>77.903366</ele>
        <time>2023-09-06T00:43:10.689Z</time>
      </trkpt>
      <trkpt lat="48.863901" lon="2.162590">
        <ele>74.526162</ele>
        <time>2023-09-06T00:43:17.835Z</time>
      </trkpt>
      <trkpt lat="48.863962" lon="2.162416">
        <ele>73.687534</ele>
        <time>2023-09-06T00:43:19.508Z</time>
      </trkpt>
      <trkpt lat="48.864058" lon="2.162326">
        <ele>72.958279</ele>
        <time>2023-09-06T00:43:21.140Z</time>
      </trkpt>
      <trkpt lat="48.865101" lon="2.162213">
        <ele>66.197503</ele>
        <time>2023-09-06T00:43:36.334Z</time>
      </trkpt>
      <trkpt lat="48.865929" lon="2.162098">
        <ele>60.965532</ele>
        <time>2023-09-06T00:43:48.314Z</time>
      </trkpt>
      <trkpt lat="48.866609" lon="2.162007">
        <ele>56.768019</ele>
        <time>2023-09-06T00:43:58.282Z</time>
      </trkpt>
      <trkpt lat="48.867103" lon="2.162062">
        <ele>53.722261</ele>
        <time>2023-09-06T00:44:05.601Z</time>
      </trkpt>
      <trkpt lat="48.867335" lon="2.162132">
        <ele>52.372158</ele>
        <time>2023-09-06T00:44:09.091Z</time>
      </trkpt>
      <trkpt lat="48.867816" lon="2.162482">
        <ele>49.884535</ele>
        <time>2023-09-06T00:44:17.089Z</time>
      </trkpt>
      <trkpt lat="48.868278" lon="2.162504">
        <ele>47.728281</ele>
        <time>2023-09-06T00:44:24.211Z</time>
      </trkpt>
      <trkpt lat="48.868679" lon="2.162439">
        <ele>45.847042</ele>
        <time>2023-09-06T00:44:30.644Z</time>
      </trkpt>
      <trkpt lat="48.868766" lon="2.162347">
        <ele>45.352665</ele>
        <time>2023-09-06T00:44:32.398Z</time>
      </trkpt>
      <trkpt lat="48.868795" lon="2.162308">
        <ele>45.172047</ele>
        <time>2023-09-06T00:44:33.043Z</time>
      </trkpt>
      <trkpt lat="48.868904" lon="2.162079">
        <ele>44.304405</ele>
        <time>2023-09-06T00:44:36.136Z</time>
      </trkpt>
      <trkpt lat="48.869179" lon="2.159988">
        <ele>37.383351</ele>
        <time>2023-09-06T00:44:57.173Z</time>
      </trkpt>
      <trkpt lat="48.869192" lon="2.159644">
        <ele>36.264996</ele>
        <time>2023-09-06T00:45:00.623Z</time>
      </trkpt>
      <trkpt lat="48.869166" lon="2.159213">
        <ele>34.869294</ele>
        <time>2023-09-06T00:45:05.021Z</time>
      </trkpt>
      <trkpt lat="48.869193" lon="2.159200">
        <ele>34.731750</ele>
        <time>2023-09-06T00:45:05.438Z</time>
      </trkpt>
      <trkpt lat="48.869318" lon="2.159136">
        <ele>34.091189</ele>
        <time>2023-09-06T00:45:07.402Z</time>
      </trkpt>
      <trkpt lat="48.869333" lon="2.158925">
        <ele>33.413228</ele>
        <time>2023-09-06T00:45:09.572Z</time>
      </trkpt>
      <trkpt lat="48.869412" lon="2.158698">
        <ele>32.592841</ele>
        <time>2023-09-06T00:45:12.130Z</time>
      </trkpt>
      <trkpt lat="48.869501" lon="2.158595">
        <ele>32.049628</ele>
        <time>2023-09-06T00:45:13.814Z</time>
      </trkpt>
      <trkpt lat="48.869674" lon="2.158530">
        <ele>31.184181</ele>
        <time>2023-09-06T00:45:16.551Z</time>
      </trkpt>
      <trkpt lat="48.869870" lon="2.158670">
        <ele>30.132486</ele>
        <time>2023-09-06T00:45:19.819Z</time>
      </trkpt>
      <trkpt lat="48.870059" lon="2.159034">
        <ele>28.651088</ele>
        <time>2023-09-06T00:45:24.363Z</time>
      </trkpt>
      <trkpt lat="48.870097" lon="2.159079">
        <ele>28.417162</ele>
        <time>2023-09-06T00:45:25.254Z</time>
      </trkpt>
      <trkpt lat="48.870392" lon="2.159293">
        <ele>26.829765</ele>
        <time>2023-09-06T00:45:32.905Z</time>
      </trkpt>
      <trkpt lat="48.870611" lon="2.159335">
        <ele>26.451559</ele>
        <time>2023-09-06T00:45:38.295Z</time>
      </trkpt>
      <trkpt lat="48.870816" lon="2.159290">
        <ele>26.186821</ele>
        <time>2023-09-06T00:45:43.736Z</time>
      </trkpt>
      <trkpt lat="48.870939" lon="2.159211">
        <ele>26.016155</ele>
        <time>2023-09-06T00:45:47.400Z</time>
      </trkpt>
      <trkpt lat="48.871194" lon="2.158921">
        <ele>25.609128</ele>
        <time>2023-09-06T00:45:57.819Z</time>
      </trkpt>
      <trkpt lat="48.871714" lon="2.158350">
        <ele>24.789260</ele>
        <time>2023-09-06T00:46:11.541Z</time>
      </trkpt>
      <trkpt lat="48.871871" lon="2.158229">
        <ele>24.564279</ele>
        <time>2023-09-06T00:46:15.305Z</time>
      </trkpt>
      <trkpt lat="48.872152" lon="2.158096">
        <ele>24.508971</ele>
        <time>2023-09-06T00:46:21.633Z</time>
      </trkpt>
      <trkpt lat="48.872481" lon="2.157930">
        <ele>24.735450</ele>
        <time>2023-09-06T00:46:29.208Z</time>
      </trkpt>
      <trkpt lat="48.872618" lon="2.157898">
        <ele>24.826008</ele>
        <time>2023-09-06T00:46:32.259Z</time>
      </trkpt>
      <trkpt lat="48.872722" lon="2.157793">
        <ele>24.907573</ele>
        <time>2023-09-06T00:46:34.898Z</time>
      </trkpt>
      <trkpt lat="48.872776" lon="2.157696">
        <ele>24.962183</ele>
        <time>2023-09-06T00:46:36.732Z</time>
      </trkpt>
      <trkpt lat="48.872865" lon="2.157428">
        <ele>25.091197</ele>
        <time>2023-09-06T00:46:41.585Z</time>
      </trkpt>
      <trkpt lat="48.872922" lon="2.157060">
        <ele>25.253663</ele>
        <time>2023-09-06T00:46:47.960Z</time>
      </trkpt>
      <trkpt lat="48.872911" lon="2.156689">
        <ele>25.413253</ele>
        <time>2023-09-06T00:46:54.857Z</time>
      </trkpt>
      <trkpt lat="48.872862" lon="2.156414">
        <ele>25.535687</ele>
        <time>2023-09-06T00:47:00.719Z</time>
      </trkpt>
      <trkpt lat="48.872889" lon="2.156003">
        <ele>25.638845</ele>
        <time>2023-09-06T00:47:09.139Z</time>
      </trkpt>
      <trkpt lat="48.872806" lon="2.155914">
        <ele>25.669355</ele>
        <time>2023-09-06T00:47:11.975Z</time>
      </trkpt>
      <trkpt lat="48.872794" lon="2.155810">
        <ele>25.690217</ele>
        <time>2023-09-06T00:47:13.868Z</time>
      </trkpt>
      <trkpt lat="48.872825" lon="2.155716">
        <ele>25.710993</ele>
        <time>2023-09-06T00:47:15.744Z</time>
      </trkpt>
      <trkpt lat="48.872886" lon="2.155668">
        <ele>25.731626</ele>
        <time>2023-09-06T00:47:17.728Z</time>
      </trkpt>
      <trkpt lat="48.872771" lon="2.155504">
        <ele>25.778990</ele>
        <time>2023-09-06T00:47:21.599Z</time>
      </trkpt>
      <trkpt lat="48.872547" lon="2.155379">
        <ele>25.850668</ele>
        <time>2023-09-06T00:47:27.005Z</time>
      </trkpt>
      <trkpt lat="48.872323" lon="2.155197">
        <ele>25.926962</ele>
        <time>2023-09-06T00:47:33.141Z</time>
      </trkpt>
      <trkpt lat="48.871989" lon="2.154798">
        <ele>26.054561</ele>
        <time>2023-09-06T00:47:43.259Z</time>
      </trkpt>
      <trkpt lat="48.871780" lon="2.154394">
        <ele>26.051879</ele>
        <time>2023-09-06T00:47:51.231Z</time>
      </trkpt>
      <trkpt lat="48.871758" lon="2.154256">
        <ele>26.007254</ele>
        <time>2023-09-06T00:47:53.456Z</time>
      </trkpt>
      <trkpt lat="48.871759" lon="2.154254">
        <ele>26.006464</ele>
        <time>2023-09-06T00:47:53.492Z</time>
      </trkpt>
      <trkpt lat="48.871809" lon="2.154104">
        <ele>25.953616</ele>
        <time>2023-09-06T00:47:56.124Z</time>
      </trkpt>
      <trkpt lat="48.872448" lon="2.153486">
        <ele>25.591767</ele>
        <time>2023-09-06T00:48:14.344Z</time>
      </trkpt>
      <trkpt lat="48.872493" lon="2.153400">
        <ele>25.557231</ele>
        <time>2023-09-06T00:48:16.085Z</time>
      </trkpt>
      <trkpt lat="48.872583" lon="2.153084">
        <ele>25.449013</ele>
        <time>2023-09-06T00:48:21.417Z</time>
      </trkpt>
      <trkpt lat="48.872831" lon="2.153289">
        <ele>25.314139</ele>
        <time>2023-09-06T00:48:26.317Z</time>
      </trkpt>
      <trkpt lat="48.874316" lon="2.154337">
        <ele>24.977938</ele>
        <time>2023-09-06T00:49:06.861Z</time>
      </trkpt>
      <trkpt lat="48.875002" lon="2.154814">
        <ele>24.976325</ele>
        <time>2023-09-06T00:49:26.025Z</time>
      </trkpt>
      <trkpt lat="48.876346" lon="2.155861">
        <ele>25.216364</ele>
        <time>2023-09-06T00:50:05.134Z</time>
      </trkpt>
      <trkpt lat="48.876842" lon="2.156208">
        <ele>25.510633</ele>
        <time>2023-09-06T00:50:20.231Z</time>
      </trkpt>
      <trkpt lat="48.876880" lon="2.156235">
        <ele>25.533240</ele>
        <time>2023-09-06T00:50:21.403Z</time>
      </trkpt>
      <trkpt lat="48.877690" lon="2.156801">
        <ele>26.013699</ele>
        <time>2023-09-06T00:50:47.248Z</time>
      </trkpt>
      <trkpt lat="48.879908" lon="2.158316">
        <ele>27.189676</ele>
        <time>2023-09-06T00:51:56.600Z</time>
      </trkpt>
      <trkpt lat="48.880263" lon="2.158822">
        <ele>27.146347</ele>
        <time>2023-09-06T00:52:08.490Z</time>
      </trkpt>
      <trkpt lat="48.880472" lon="2.159277">
        <ele>27.113845</ele>
        <time>2023-09-06T00:52:17.153Z</time>
      </trkpt>
      <trkpt lat="48.881012" lon="2.160901">
        <ele>26.866843</ele>
        <time>2023-09-06T00:52:45.803Z</time>
      </trkpt>
      <trkpt lat="48.880992" lon="2.161041">
        <ele>26.840741</ele>
        <time>2023-09-06T00:52:48.639Z</time>
      </trkpt>
      <trkpt lat="48.881009" lon="2.161095">
        <ele>26.829833</ele>
        <time>2023-09-06T00:52:49.325Z</time>
      </trkpt>
      <trkpt lat="48.881304" lon="2.162021">
        <ele>26.642366</ele>
        <time>2023-09-06T00:53:06.042Z</time>
      </trkpt>
      <trkpt lat="48.881348" lon="2.162175">
        <ele>26.611774</ele>
        <time>2023-09-06T00:53:08.316Z</time>
      </trkpt>
      <trkpt lat="48.881444" lon="2.162325">
        <ele>26.576347</ele>
        <time>2023-09-06T00:53:11.085Z</time>
      </trkpt>
      <trkpt lat="48.881511" lon="2.162432">
        <ele>26.589102</ele>
        <time>2023-09-06T00:53:13.081Z</time>
      </trkpt>
      <trkpt lat="48.881966" lon="2.163145">
        <ele>26.674877</ele>
        <time>2023-09-06T00:53:26.886Z</time>
      </trkpt>
      <trkpt lat="48.882289" lon="2.163537">
        <ele>26.729131</ele>
        <time>2023-09-06T00:53:35.192Z</time>
      </trkpt>
      <trkpt lat="48.882309" lon="2.163556">
        <ele>26.732227</ele>
        <time>2023-09-06T00:53:35.667Z</time>
      </trkpt>
      <trkpt lat="48.882366" lon="2.163612">
        <ele>26.741136</ele>
        <time>2023-09-06T00:53:36.991Z</time>
      </trkpt>
      <trkpt lat="48.882574" lon="2.163815">
        <ele>26.773583</ele>
        <time>2023-09-06T00:53:41.590Z</time>
      </trkpt>
      <trkpt lat="48.882843" lon="2.164005">
        <ele>26.810072</ele>
        <time>2023-09-06T00:53:47.237Z</time>
      </trkpt>
      <trkpt lat="48.883045" lon="2.164133">
        <ele>26.761737</ele>
        <time>2023-09-06T00:53:51.434Z</time>
      </trkpt>
      <trkpt lat="48.883429" lon="2.164294">
        <ele>26.673759</ele>
        <time>2023-09-06T00:53:58.933Z</time>
      </trkpt>
      <trkpt lat="48.884224" lon="2.164477">
        <ele>26.496166</ele>
        <time>2023-09-06T00:54:13.509Z</time>
      </trkpt>
      <trkpt lat="48.884526" lon="2.164438">
        <ele>26.429223</ele>
        <time>2023-09-06T00:54:19.064Z</time>
      </trkpt>
      <trkpt lat="48.884879" lon="2.164338">
        <ele>26.449027</ele>
        <time>2023-09-06T00:54:25.914Z</time>
      </trkpt>
      <trkpt lat="48.885109" lon="2.164235">
        <ele>26.477537</ele>
        <time>2023-09-06T00:54:30.736Z</time>
      </trkpt>
      <trkpt lat="48.885445" lon="2.164085">
        <ele>26.519177</ele>
        <time>2023-09-06T00:54:37.898Z</time>
      </trkpt>
      <trkpt lat="48.885505" lon="2.164059">
        <ele>26.526595</ele>
        <time>2023-09-06T00:54:39.257Z</time>
      </trkpt>
      <trkpt lat="48.885554" lon="2.164039">
        <ele>26.532628</ele>
        <time>2023-09-06T00:54:40.340Z</time>
      </trkpt>
      <trkpt lat="48.885626" lon="2.163925">
        <ele>26.544987</ele>
        <time>2023-09-06T00:54:42.545Z</time>
      </trkpt>
      <trkpt lat="48.885805" lon="2.163874">
        <ele>26.566642</ele>
        <time>2023-09-06T00:54:46.430Z</time>
      </trkpt>
      <trkpt lat="48.886005" lon="2.163985">
        <ele>26.591958</ele>
        <time>2023-09-06T00:54:50.840Z</time>
      </trkpt>
      <trkpt lat="48.886457" lon="2.163890">
        <ele>26.846721</ele>
        <time>2023-09-06T00:54:59.105Z</time>
      </trkpt>
      <trkpt lat="48.887083" lon="2.163822">
        <ele>27.752660</ele>
        <time>2023-09-06T00:55:14.016Z</time>
      </trkpt>
      <trkpt lat="48.887382" lon="2.163805">
        <ele>28.184572</ele>
        <time>2023-09-06T00:55:22.712Z</time>
      </trkpt>
      <trkpt lat="48.887820" lon="2.163872">
        <ele>28.820019</ele>
        <time>2023-09-06T00:55:36.527Z</time>
      </trkpt>
      <trkpt lat="48.887946" lon="2.163880">
        <ele>29.002060</ele>
        <time>2023-09-06T00:55:40.944Z</time>
      </trkpt>
      <trkpt lat="48.888177" lon="2.164000">
        <ele>29.358933</ele>
        <time>2023-09-06T00:55:50.299Z</time>
      </trkpt>
      <trkpt lat="48.888227" lon="2.164015">
        <ele>29.435052</ele>
        <time>2023-09-06T00:55:52.033Z</time>
      </trkpt>
      <trkpt lat="48.888220" lon="2.164065">
        <ele>29.485257</ele>
        <time>2023-09-06T00:55:53.050Z</time>
      </trkpt>
      <trkpt lat="48.888307" lon="2.164162">
        <ele>29.646379</ele>
        <time>2023-09-06T00:55:56.399Z</time>
      </trkpt>
      <trkpt lat="48.888465" lon="2.164208">
        <ele>29.886653</ele>
        <time>2023-09-06T00:56:01.132Z</time>
      </trkpt>
      <trkpt lat="48.889110" lon="2.164735">
        <ele>30.980247</ele>
        <time>2023-09-06T00:56:21.262Z</time>
      </trkpt>
      <trkpt lat="48.889351" lon="2.164981">
        <ele>31.413762</ele>
        <time>2023-09-06T00:56:29.568Z</time>
      </trkpt>
      <trkpt lat="48.889554" lon="2.165100">
        <ele>31.738705</ele>
        <time>2023-09-06T00:56:35.187Z</time>
      </trkpt>
      <trkpt lat="48.889869" lon="2.165243">
        <ele>31.684040</ele>
        <time>2023-09-06T00:56:42.199Z</time>
      </trkpt>
      <trkpt lat="48.890035" lon="2.165414">
        <ele>31.470733</ele>
        <time>2023-09-06T00:56:45.678Z</time>
      </trkpt>
      <trkpt lat="48.890062" lon="2.165451">
        <ele>31.432067</ele>
        <time>2023-09-06T00:56:46.272Z</time>
      </trkpt>
      <trkpt lat="48.890194" lon="2.165595">
        <ele>31.259239</ele>
        <time>2023-09-06T00:56:48.797Z</time>
      </trkpt>
      <trkpt lat="48.890670" lon="2.166275">
        <ele>30.564451</ele>
        <time>2023-09-06T00:56:58.784Z</time>
      </trkpt>
      <trkpt lat="48.890706" lon="2.166415">
        <ele>30.459295</ele>
        <time>2023-09-06T00:57:00.366Z</time>
      </trkpt>
      <trkpt lat="48.890699" lon="2.166534">
        <ele>30.375719</ele>
        <time>2023-09-06T00:57:01.701Z</time>
      </trkpt>
      <trkpt lat="48.890735" lon="2.166577">
        <ele>30.327019</ele>
        <time>2023-09-06T00:57:02.454Z</time>
      </trkpt>
      <trkpt lat="48.890881" lon="2.166753">
        <ele>30.128814</ele>
        <time>2023-09-06T00:57:06.518Z</time>
      </trkpt>
      <trkpt lat="48.891012" lon="2.166879">
        <ele>29.981958</ele>
        <time>2023-09-06T00:57:10.174Z</time>
      </trkpt>
      <trkpt lat="48.891173" lon="2.166869">
        <ele>29.902819</ele>
        <time>2023-09-06T00:57:13.822Z</time>
      </trkpt>
      <trkpt lat="48.891407" lon="2.167134">
        <ele>29.759534</ele>
        <time>2023-09-06T00:57:20.902Z</time>
      </trkpt>
      <trkpt lat="48.891489" lon="2.167031">
        <ele>29.707302</ele>
        <time>2023-09-06T00:57:22.889Z</time>
      </trkpt>
      <trkpt lat="48.891522" lon="2.167028">
        <ele>29.691065</ele>
        <time>2023-09-06T00:57:23.583Z</time>
      </trkpt>
      <trkpt lat="48.891543" lon="2.167032">
        <ele>29.680671</ele>
        <time>2023-09-06T00:57:24.019Z</time>
      </trkpt>
      <trkpt lat="48.891761" lon="2.167131">
        <ele>29.568932</ele>
        <time>2023-09-06T00:57:28.675Z</time>
      </trkpt>
      <trkpt lat="48.891961" lon="2.167340">
        <ele>29.449754</ele>
        <time>2023-09-06T00:57:33.696Z</time>
      </trkpt>
      <trkpt lat="48.892183" lon="2.167449">
        <ele>29.335181</ele>
        <time>2023-09-06T00:57:38.277Z</time>
      </trkpt>
      <trkpt lat="48.892462" lon="2.167548">
        <ele>29.194474</ele>
        <time>2023-09-06T00:57:44.031Z</time>
      </trkpt>
      <trkpt lat="48.892491" lon="2.167558">
        <ele>29.179870</ele>
        <time>2023-09-06T00:57:44.647Z</time>
      </trkpt>
      <trkpt lat="48.892814" lon="2.167673">
        <ele>28.995119</ele>
        <time>2023-09-06T00:57:51.774Z</time>
      </trkpt>
      <trkpt lat="48.893076" lon="2.167765">
        <ele>28.833376</ele>
        <time>2023-09-06T00:57:57.726Z</time>
      </trkpt>
      <trkpt lat="48.893570" lon="2.167973">
        <ele>28.525051</ele>
        <time>2023-09-06T00:58:08.159Z</time>
      </trkpt>
      <trkpt lat="48.894061" lon="2.168249">
        <ele>28.210182</ele>
        <time>2023-09-06T00:58:18.190Z</time>
      </trkpt>
      <trkpt lat="48.894132" lon="2.168290">
        <ele>28.164500</ele>
        <time>2023-09-06T00:58:19.919Z</time>
      </trkpt>
      <trkpt lat="48.894249" lon="2.168360">
        <ele>28.088873</ele>
        <time>2023-09-06T00:58:23.527Z</time>
      </trkpt>
      <trkpt lat="48.894412" lon="2.168519">
        <ele>27.961766</ele>
        <time>2023-09-06T00:58:29.104Z</time>
      </trkpt>
      <trkpt lat="48.894569" lon="2.168718">
        <ele>27.816963</ele>
        <time>2023-09-06T00:58:34.959Z</time>
      </trkpt>
      <trkpt lat="48.894727" lon="2.168918">
        <ele>27.671317</ele>
        <time>2023-09-06T00:58:40.930Z</time>
      </trkpt>
      <trkpt lat="48.895067" lon="2.169263">
        <ele>27.381727</ele>
        <time>2023-09-06T00:58:53.025Z</time>
      </trkpt>
      <trkpt lat="48.895721" lon="2.170097">
        <ele>26.777032</ele>
        <time>2023-09-06T00:59:19.086Z</time>
      </trkpt>
      <trkpt lat="48.896015" lon="2.170424">
        <ele>26.748424</ele>
        <time>2023-09-06T00:59:30.484Z</time>
      </trkpt>
      <trkpt lat="48.896485" lon="2.171066">
        <ele>26.730994</ele>
        <time>2023-09-06T00:59:50.320Z</time>
      </trkpt>
      <trkpt lat="48.896730" lon="2.171449">
        <ele>26.721300</ele>
        <time>2023-09-06T01:00:01.425Z</time>
      </trkpt>
      <trkpt lat="48.897700" lon="2.173119">
        <ele>26.960264</ele>
        <time>2023-09-06T01:00:49.474Z</time>
      </trkpt>
      <trkpt lat="48.899558" lon="2.176164">
        <ele>27.497541</ele>
        <time>2023-09-06T01:02:20.854Z</time>
      </trkpt>
      <trkpt lat="48.899926" lon="2.176941">
        <ele>26.994238</ele>
        <time>2023-09-06T01:02:39.810Z</time>
      </trkpt>
      <trkpt lat="48.900214" lon="2.177659">
        <ele>26.552190</ele>
        <time>2023-09-06T01:02:55.719Z</time>
      </trkpt>
      <trkpt lat="48.900607" lon="2.178668">
        <ele>25.977271</ele>
        <time>2023-09-06T01:03:17.924Z</time>
      </trkpt>
      <trkpt lat="48.900613" lon="2.178768">
        <ele>25.934448</ele>
        <time>2023-09-06T01:03:19.883Z</time>
      </trkpt>
      <trkpt lat="48.900670" lon="2.178948">
        <ele>25.849243</ele>
        <time>2023-09-06T01:03:23.772Z</time>
      </trkpt>
      <trkpt lat="48.900658" lon="2.179095">
        <ele>25.786072</ele>
        <time>2023-09-06T01:03:26.667Z</time>
      </trkpt>
      <trkpt lat="48.900691" lon="2.179120">
        <ele>25.762156</ele>
        <time>2023-09-06T01:03:27.754Z</time>
      </trkpt>
      <trkpt lat="48.900714" lon="2.179122">
        <ele>25.747211</ele>
        <time>2023-09-06T01:03:28.436Z</time>
      </trkpt>
      <trkpt lat="48.900734" lon="2.179124">
        <ele>25.734208</ele>
        <time>2023-09-06T01:03:29.041Z</time>
      </trkpt>
      <trkpt lat="48.900749" lon="2.179272">
        <ele>25.670347</ele>
        <time>2023-09-06T01:03:31.950Z</time>
      </trkpt>
      <trkpt lat="48.900841" lon="2.179480">
        <ele>25.563434</ele>
        <time>2023-09-06T01:03:36.868Z</time>
      </trkpt>
      <trkpt lat="48.900851" lon="2.179627">
        <ele>25.500411</ele>
        <time>2023-09-06T01:03:39.751Z</time>
      </trkpt>
      <trkpt lat="48.900866" lon="2.179626">
        <ele>25.490670</ele>
        <time>2023-09-06T01:03:40.191Z</time>
      </trkpt>
      <trkpt lat="48.900878" lon="2.179627">
        <ele>25.482874</ele>
        <time>2023-09-06T01:03:40.524Z</time>
      </trkpt>
      <trkpt lat="48.900878" lon="2.179653">
        <ele>25.471786</ele>
        <time>2023-09-06T01:03:41.037Z</time>
      </trkpt>
      <trkpt lat="48.900784" lon="2.179706">
        <ele>25.406751</ele>
        <time>2023-09-06T01:03:43.968Z</time>
      </trkpt>
      <trkpt lat="48.900690" lon="2.179818">
        <ele>25.329291</ele>
        <time>2023-09-06T01:03:47.520Z</time>
      </trkpt>
      <trkpt lat="48.900623" lon="2.179963">
        <ele>25.253707</ele>
        <time>2023-09-06T01:03:51.086Z</time>
      </trkpt>
      <trkpt lat="48.900608" lon="2.180042">
        <ele>25.218640</ele>
        <time>2023-09-06T01:03:52.733Z</time>
      </trkpt>
      <trkpt lat="48.900625" lon="2.180245">
        <ele>25.131369</ele>
        <time>2023-09-06T01:03:56.770Z</time>
      </trkpt>
      <trkpt lat="48.900799" lon="2.180816">
        <ele>25.081339</ele>
        <time>2023-09-06T01:04:10.055Z</time>
      </trkpt>
      <trkpt lat="48.900813" lon="2.180864">
        <ele>25.097800</ele>
        <time>2023-09-06T01:04:10.815Z</time>
      </trkpt>
      <trkpt lat="48.900825" lon="2.180903">
        <ele>25.111298</ele>
        <time>2023-09-06T01:04:11.441Z</time>
      </trkpt>
      <trkpt lat="48.900837" lon="2.180942">
        <ele>25.124796</ele>
        <time>2023-09-06T01:04:12.414Z</time>
      </trkpt>
      <trkpt lat="48.900931" lon="2.180909">
        <ele>25.170798</ele>
        <time>2023-09-06T01:04:15.784Z</time>
      </trkpt>
      <trkpt lat="48.901118" lon="2.180932">
        <ele>25.260260</ele>
        <time>2023-09-06T01:04:22.406Z</time>
      </trkpt>
      <trkpt lat="48.901300" lon="2.180825">
        <ele>25.353303</ele>
        <time>2023-09-06T01:04:29.706Z</time>
      </trkpt>
      <trkpt lat="48.901388" lon="2.180757">
        <ele>25.400369</ele>
        <time>2023-09-06T01:04:33.261Z</time>
      </trkpt>
      <trkpt lat="48.901404" lon="2.180807">
        <ele>25.417800</ele>
        <time>2023-09-06T01:04:34.388Z</time>
      </trkpt>
      <trkpt lat="48.901404" lon="2.180807">
        <ele>25.417800</ele>
        <time>2023-09-06T01:04:34.388Z</time>
      </trkpt>
      <trkpt lat="48.902122" lon="2.183000">
        <ele>26.111414</ele>
        <time>2023-09-06T01:05:12.782Z</time>
      </trkpt>
      <trkpt lat="48.902344" lon="2.183872">
        <ele>26.340295</ele>
        <time>2023-09-06T01:05:27.176Z</time>
      </trkpt>
      <trkpt lat="48.902455" lon="2.184374">
        <ele>26.469930</ele>
        <time>2023-09-06T01:05:35.138Z</time>
      </trkpt>
      <trkpt lat="48.902527" lon="2.184958">
        <ele>26.465978</ele>
        <time>2023-09-06T01:05:43.530Z</time>
      </trkpt>
      <trkpt lat="48.902773" lon="2.186226">
        <ele>26.301921</ele>
        <time>2023-09-06T01:06:01.512Z</time>
      </trkpt>
      <trkpt lat="48.902800" lon="2.186361">
        <ele>26.284410</ele>
        <time>2023-09-06T01:06:03.408Z</time>
      </trkpt>
      <trkpt lat="48.903053" lon="2.187647">
        <ele>26.117046</ele>
        <time>2023-09-06T01:06:21.701Z</time>
      </trkpt>
      <trkpt lat="48.903558" lon="2.189572">
        <ele>25.856398</ele>
        <time>2023-09-06T01:06:49.518Z</time>
      </trkpt>
      <trkpt lat="48.903912" lon="2.191069">
        <ele>26.239528</ele>
        <time>2023-09-06T01:07:13.471Z</time>
      </trkpt>
      <trkpt lat="48.904426" lon="2.193217">
        <ele>26.751242</ele>
        <time>2023-09-06T01:07:51.020Z</time>
      </trkpt>
      <trkpt lat="48.904510" lon="2.193462">
        <ele>26.787320</ele>
        <time>2023-09-06T01:07:55.170Z</time>
      </trkpt>
      <trkpt lat="48.904461" lon="2.193582">
        <ele>26.805764</ele>
        <time>2023-09-06T01:07:56.977Z</time>
      </trkpt>
      <trkpt lat="48.904269" lon="2.193886">
        <ele>26.860807</ele>
        <time>2023-09-06T01:08:02.363Z</time>
      </trkpt>
      <trkpt lat="48.904235" lon="2.193874">
        <ele>26.867740</ele>
        <time>2023-09-06T01:08:03.015Z</time>
      </trkpt>
      <trkpt lat="48.904187" lon="2.193840">
        <ele>26.878257</ele>
        <time>2023-09-06T01:08:03.992Z</time>
      </trkpt>
      <trkpt lat="48.904158" lon="2.193796">
        <ele>26.886392</ele>
        <time>2023-09-06T01:08:04.745Z</time>
      </trkpt>
      <trkpt lat="48.904107" lon="2.193800">
        <ele>26.896536</ele>
        <time>2023-09-06T01:08:05.693Z</time>
      </trkpt>
      <trkpt lat="48.904095" lon="2.193820">
        <ele>26.900071</ele>
        <time>2023-09-06T01:08:06.230Z</time>
      </trkpt>
      <trkpt lat="48.903761" lon="2.194362">
        <ele>26.964808</ele>
        <time>2023-09-06T01:08:21.451Z</time>
      </trkpt>
      <trkpt lat="48.903052" lon="2.195529">
        <ele>26.647503</ele>
        <time>2023-09-06T01:08:53.721Z</time>
      </trkpt>
      <trkpt lat="48.901797" lon="2.197598">
        <ele>25.977659</ele>
        <time>2023-09-06T01:09:50.703Z</time>
      </trkpt>
      <trkpt lat="48.901251" lon="2.198501">
        <ele>25.811029</ele>
        <time>2023-09-06T01:10:15.058Z</time>
      </trkpt>
      <trkpt lat="48.900878" lon="2.199118">
        <ele>26.093111</ele>
        <time>2023-09-06T01:10:32.944Z</time>
      </trkpt>
      <trkpt lat="48.900466" lon="2.199788">
        <ele>26.401848</ele>
        <time>2023-09-06T01:10:54.453Z</time>
      </trkpt>
      <trkpt lat="48.900334" lon="2.199997">
        <ele>26.499382</ele>
        <time>2023-09-06T01:10:59.050Z</time>
      </trkpt>
      <trkpt lat="48.900222" lon="2.200047">
        <ele>26.559134</ele>
        <time>2023-09-06T01:11:01.833Z</time>
      </trkpt>
      <trkpt lat="48.900177" lon="2.200080">
        <ele>26.584708</ele>
        <time>2023-09-06T01:11:02.972Z</time>
      </trkpt>
      <trkpt lat="48.900133" lon="2.200158">
        <ele>26.619296</ele>
        <time>2023-09-06T01:11:04.603Z</time>
      </trkpt>
      <trkpt lat="48.900120" lon="2.200181">
        <ele>26.629504</ele>
        <time>2023-09-06T01:11:05.078Z</time>
      </trkpt>
      <trkpt lat="48.900026" lon="2.200343">
        <ele>26.770305</ele>
        <time>2023-09-06T01:11:08.628Z</time>
      </trkpt>
      <trkpt lat="48.899748" lon="2.200781">
        <ele>27.220988</ele>
        <time>2023-09-06T01:11:24.111Z</time>
      </trkpt>
      <trkpt lat="48.899706" lon="2.200848">
        <ele>27.289519</ele>
        <time>2023-09-06T01:11:25.732Z</time>
      </trkpt>
      <trkpt lat="48.899620" lon="2.200967">
        <ele>27.420430</ele>
        <time>2023-09-06T01:11:28.976Z</time>
      </trkpt>
      <trkpt lat="48.899566" lon="2.201030">
        <ele>27.497060</ele>
        <time>2023-09-06T01:11:30.905Z</time>
      </trkpt>
      <trkpt lat="48.899619" lon="2.201107">
        <ele>27.579587</ele>
        <time>2023-09-06T01:11:32.784Z</time>
      </trkpt>
      <trkpt lat="48.899694" lon="2.201234">
        <ele>27.705961</ele>
        <time>2023-09-06T01:11:35.685Z</time>
      </trkpt>
      <trkpt lat="48.900085" lon="2.201902">
        <ele>28.368047</ele>
        <time>2023-09-06T01:11:58.014Z</time>
      </trkpt>
      <trkpt lat="48.900161" lon="2.202033">
        <ele>28.497380</ele>
        <time>2023-09-06T01:12:02.103Z</time>
      </trkpt>
      <trkpt lat="48.901081" lon="2.203459">
        <ele>29.349553</ele>
        <time>2023-09-06T01:13:33.402Z</time>
      </trkpt>
      <trkpt lat="48.901101" lon="2.203489">
        <ele>29.365996</ele>
        <time>2023-09-06T01:13:35.327Z</time>
      </trkpt>
      <trkpt lat="48.901978" lon="2.204798">
        <ele>30.335574</ele>
        <time>2023-09-06T01:15:00.730Z</time>
      </trkpt>
      <trkpt lat="48.902061" lon="2.204879">
        <ele>30.433277</ele>
        <time>2023-09-06T01:15:07.589Z</time>
      </trkpt>
      <trkpt lat="48.902152" lon="2.205010">
        <ele>30.557408</ele>
        <time>2023-09-06T01:15:10.795Z</time>
      </trkpt>
      <trkpt lat="48.902862" lon="2.206085">
        <ele>31.540810</ele>
        <time>2023-09-06T01:15:36.246Z</time>
      </trkpt>
      <trkpt lat="48.902893" lon="2.206298">
        <ele>31.653568</ele>
        <time>2023-09-06T01:15:39.582Z</time>
      </trkpt>
      <trkpt lat="48.902913" lon="2.206331">
        <ele>31.676768</ele>
        <time>2023-09-06T01:15:40.132Z</time>
      </trkpt>
      <trkpt lat="48.902257" lon="2.207328">
        <ele>32.405890</ele>
        <time>2023-09-06T01:16:01.229Z</time>
      </trkpt>
      <trkpt lat="48.902067" lon="2.207704">
        <ele>32.651021</ele>
        <time>2023-09-06T01:16:08.556Z</time>
      </trkpt>
      <trkpt lat="48.901842" lon="2.208360">
        <ele>32.956314</ele>
        <time>2023-09-06T01:16:20.428Z</time>
      </trkpt>
      <trkpt lat="48.901520" lon="2.209440">
        <ele>33.152037</ele>
        <time>2023-09-06T01:16:35.866Z</time>
      </trkpt>
      <trkpt lat="48.901512" lon="2.209465">
        <ele>33.156626</ele>
        <time>2023-09-06T01:16:36.191Z</time>
      </trkpt>
      <trkpt lat="48.901401" lon="2.209814">
        <ele>33.220614</ele>
        <time>2023-09-06T01:16:40.901Z</time>
      </trkpt>
      <trkpt lat="48.901356" lon="2.209955">
        <ele>33.246483</ele>
        <time>2023-09-06T01:16:43.129Z</time>
      </trkpt>
      <trkpt lat="48.901292" lon="2.210190">
        <ele>33.288465</ele>
        <time>2023-09-06T01:16:46.516Z</time>
      </trkpt>
      <trkpt lat="48.901234" lon="2.210422">
        <ele>33.329431</ele>
        <time>2023-09-06T01:16:49.834Z</time>
      </trkpt>
      <trkpt lat="48.901180" lon="2.210738">
        <ele>33.402887</ele>
        <time>2023-09-06T01:16:53.984Z</time>
      </trkpt>
      <trkpt lat="48.901194" lon="2.211462">
        <ele>33.723920</ele>
        <time>2023-09-06T01:17:03.146Z</time>
      </trkpt>
      <trkpt lat="48.901258" lon="2.212223">
        <ele>34.063963</ele>
        <time>2023-09-06T01:17:13.501Z</time>
      </trkpt>
      <trkpt lat="48.901247" lon="2.212356">
        <ele>34.123376</ele>
        <time>2023-09-06T01:17:15.471Z</time>
      </trkpt>
      <trkpt lat="48.901205" lon="2.212486">
        <ele>34.187578</ele>
        <time>2023-09-06T01:17:17.586Z</time>
      </trkpt>
      <trkpt lat="48.901008" lon="2.212749">
        <ele>34.364302</ele>
        <time>2023-09-06T01:17:23.857Z</time>
      </trkpt>
      <trkpt lat="48.900962" lon="2.212809">
        <ele>34.405157</ele>
        <time>2023-09-06T01:17:25.114Z</time>
      </trkpt>
      <trkpt lat="48.900899" lon="2.212888">
        <ele>34.460207</ele>
        <time>2023-09-06T01:17:26.904Z</time>
      </trkpt>
      <trkpt lat="48.900718" lon="2.213116">
        <ele>34.762512</ele>
        <time>2023-09-06T01:17:33.223Z</time>
      </trkpt>
      <trkpt lat="48.900692" lon="2.213147">
        <ele>34.878440</ele>
        <time>2023-09-06T01:17:34.024Z</time>
      </trkpt>
      <trkpt lat="48.900663" lon="2.213188">
        <ele>35.017376</ele>
        <time>2023-09-06T01:17:35.002Z</time>
      </trkpt>
      <trkpt lat="48.900382" lon="2.213530">
        <ele>36.280263</ele>
        <time>2023-09-06T01:17:46.640Z</time>
      </trkpt>
      <trkpt lat="48.900103" lon="2.213866">
        <ele>37.529042</ele>
        <time>2023-09-06T01:18:00.667Z</time>
      </trkpt>
      <trkpt lat="48.900037" lon="2.213992">
        <ele>37.900709</ele>
        <time>2023-09-06T01:18:04.880Z</time>
      </trkpt>
      <trkpt lat="48.899948" lon="2.214119">
        <ele>38.328945</ele>
        <time>2023-09-06T01:18:10.029Z</time>
      </trkpt>
      <trkpt lat="48.899798" lon="2.213957">
        <ele>38.974516</ele>
        <time>2023-09-06T01:18:18.027Z</time>
      </trkpt>
      <trkpt lat="48.899408" lon="2.213797">
        <ele>40.392046</ele>
        <time>2023-09-06T01:18:34.955Z</time>
      </trkpt>
      <trkpt lat="48.899180" lon="2.213775">
        <ele>41.187656</ele>
        <time>2023-09-06T01:18:43.577Z</time>
      </trkpt>
      <trkpt lat="48.899092" lon="2.213769">
        <ele>41.490423</ele>
        <time>2023-09-06T01:18:46.881Z</time>
      </trkpt>
      <trkpt lat="48.898928" lon="2.213747">
        <ele>42.056291</ele>
        <time>2023-09-06T01:18:53.220Z</time>
      </trkpt>
      <trkpt lat="48.898882" lon="2.213849">
        <ele>42.335778</ele>
        <time>2023-09-06T01:18:56.117Z</time>
      </trkpt>
      <trkpt lat="48.898826" lon="2.214057">
        <ele>42.843641</ele>
        <time>2023-09-06T01:19:01.660Z</time>
      </trkpt>
      <trkpt lat="48.898857" lon="2.214071">
        <ele>42.954787</ele>
        <time>2023-09-06T01:19:02.947Z</time>
      </trkpt>
      <trkpt lat="48.898908" lon="2.214073">
        <ele>43.130136</ele>
        <time>2023-09-06T01:19:05.102Z</time>
      </trkpt>
      <trkpt lat="48.898763" lon="2.214580">
        <ele>44.379418</ele>
        <time>2023-09-06T01:19:18.875Z</time>
      </trkpt>
      <trkpt lat="48.898755" lon="2.214605">
        <ele>44.442242</ele>
        <time>2023-09-06T01:19:19.652Z</time>
      </trkpt>
      <trkpt lat="48.898660" lon="2.214951">
        <ele>45.289480</ele>
        <time>2023-09-06T01:19:29.520Z</time>
      </trkpt>
      <trkpt lat="48.898564" lon="2.215289">
        <ele>46.121426</ele>
        <time>2023-09-06T01:19:38.441Z</time>
      </trkpt>
      <trkpt lat="48.898494" lon="2.215517">
        <ele>46.690008</ele>
        <time>2023-09-06T01:19:44.267Z</time>
      </trkpt>
      <trkpt lat="48.898330" lon="2.216095">
        <ele>47.607478</ele>
        <time>2023-09-06T01:19:56.089Z</time>
      </trkpt>
      <trkpt lat="48.898285" lon="2.216263">
        <ele>47.817182</ele>
        <time>2023-09-06T01:19:58.845Z</time>
      </trkpt>
      <trkpt lat="48.898170" lon="2.216675">
        <ele>48.334594</ele>
        <time>2023-09-06T01:20:06.471Z</time>
      </trkpt>
      <trkpt lat="48.898157" lon="2.216733">
        <ele>48.405430</ele>
        <time>2023-09-06T01:20:07.258Z</time>
      </trkpt>
      <trkpt lat="48.898136" lon="2.216809">
        <ele>48.500729</ele>
        <time>2023-09-06T01:20:08.480Z</time>
      </trkpt>
      <trkpt lat="48.897796" lon="2.218040">
        <ele>50.044225</ele>
        <time>2023-09-06T01:20:32.932Z</time>
      </trkpt>
      <trkpt lat="48.897774" lon="2.218143">
        <ele>50.169418</ele>
        <time>2023-09-06T01:20:34.960Z</time>
      </trkpt>
      <trkpt lat="48.897803" lon="2.218216">
        <ele>50.271928</ele>
        <time>2023-09-06T01:20:36.430Z</time>
      </trkpt>
      <trkpt lat="48.897776" lon="2.218312">
        <ele>50.410274</ele>
        <time>2023-09-06T01:20:38.373Z</time>
      </trkpt>
      <trkpt lat="48.897745" lon="2.218426">
        <ele>50.573729</ele>
        <time>2023-09-06T01:20:40.519Z</time>
      </trkpt>
      <trkpt lat="48.897731" lon="2.218475">
        <ele>50.644518</ele>
        <time>2023-09-06T01:20:41.519Z</time>
      </trkpt>
      <trkpt lat="48.897530" lon="2.219098">
        <ele>51.564004</ele>
        <time>2023-09-06T01:20:53.744Z</time>
      </trkpt>
      <trkpt lat="48.897512" lon="2.219155">
        <ele>51.647788</ele>
        <time>2023-09-06T01:20:54.761Z</time>
      </trkpt>
      <trkpt lat="48.897491" lon="2.219226">
        <ele>51.750941</ele>
        <time>2023-09-06T01:20:56.014Z</time>
      </trkpt>
      <trkpt lat="48.897483" lon="2.219251">
        <ele>51.787781</ele>
        <time>2023-09-06T01:20:56.471Z</time>
      </trkpt>
      <trkpt lat="48.897474" lon="2.219279">
        <ele>51.829076</ele>
        <time>2023-09-06T01:20:56.983Z</time>
      </trkpt>
      <trkpt lat="48.897462" lon="2.219319">
        <ele>51.887332</ele>
        <time>2023-09-06T01:20:57.766Z</time>
      </trkpt>
      <trkpt lat="48.897450" lon="2.219356">
        <ele>51.941996</ele>
        <time>2023-09-06T01:20:58.516Z</time>
      </trkpt>
      <trkpt lat="48.897388" lon="2.219525">
        <ele>52.198418</ele>
        <time>2023-09-06T01:21:02.297Z</time>
      </trkpt>
      <trkpt lat="48.897346" lon="2.219557">
        <ele>52.293090</ele>
        <time>2023-09-06T01:21:03.724Z</time>
      </trkpt>
      <trkpt lat="48.897214" lon="2.219974">
        <ele>52.906309</ele>
        <time>2023-09-06T01:21:13.013Z</time>
      </trkpt>
      <trkpt lat="48.897149" lon="2.220181">
        <ele>53.210255</ele>
        <time>2023-09-06T01:21:17.779Z</time>
      </trkpt>
      <trkpt lat="48.897088" lon="2.220373">
        <ele>53.492796</ele>
        <time>2023-09-06T01:21:22.245Z</time>
      </trkpt>
      <trkpt lat="48.896962" lon="2.220772">
        <ele>54.076062</ele>
        <time>2023-09-06T01:21:32.354Z</time>
      </trkpt>
      <trkpt lat="48.896820" lon="2.221223">
        <ele>54.728599</ele>
        <time>2023-09-06T01:21:42.906Z</time>
      </trkpt>
      <trkpt lat="48.896685" lon="2.221651">
        <ele>55.348066</ele>
        <time>2023-09-06T01:21:51.927Z</time>
      </trkpt>
      <trkpt lat="48.896555" lon="2.222063">
        <ele>55.944418</ele>
        <time>2023-09-06T01:22:00.331Z</time>
      </trkpt>
      <trkpt lat="48.896431" lon="2.222452">
        <ele>56.508563</ele>
        <time>2023-09-06T01:22:08.307Z</time>
      </trkpt>
      <trkpt lat="48.896332" lon="2.222769">
        <ele>56.966532</ele>
        <time>2023-09-06T01:22:15.092Z</time>
      </trkpt>
      <trkpt lat="48.896162" lon="2.223308">
        <ele>57.402498</ele>
        <time>2023-09-06T01:22:26.407Z</time>
      </trkpt>
      <trkpt lat="48.896161" lon="2.223354">
        <ele>57.395926</ele>
        <time>2023-09-06T01:22:27.145Z</time>
      </trkpt>
      <trkpt lat="48.896124" lon="2.223483">
        <ele>57.375831</ele>
        <time>2023-09-06T01:22:29.572Z</time>
      </trkpt>
      <trkpt lat="48.896101" lon="2.223557">
        <ele>57.364143</ele>
        <time>2023-09-06T01:22:30.894Z</time>
      </trkpt>
      <trkpt lat="48.896087" lon="2.223586">
        <ele>57.359006</ele>
        <time>2023-09-06T01:22:31.399Z</time>
      </trkpt>
      <trkpt lat="48.896078" lon="2.223604">
        <ele>57.355777</ele>
        <time>2023-09-06T01:22:31.727Z</time>
      </trkpt>
      <trkpt lat="48.896067" lon="2.223626">
        <ele>57.351831</ele>
        <time>2023-09-06T01:22:32.099Z</time>
      </trkpt>
      <trkpt lat="48.895994" lon="2.223859">
        <ele>57.314977</ele>
        <time>2023-09-06T01:22:35.660Z</time>
      </trkpt>
      <trkpt lat="48.895790" lon="2.224500">
        <ele>57.213293</ele>
        <time>2023-09-06T01:22:43.933Z</time>
      </trkpt>
      <trkpt lat="48.895665" lon="2.224886">
        <ele>57.151854</ele>
        <time>2023-09-06T01:22:48.552Z</time>
      </trkpt>
      <trkpt lat="48.895545" lon="2.225274">
        <ele>57.090630</ele>
        <time>2023-09-06T01:22:53.101Z</time>
      </trkpt>
      <trkpt lat="48.895473" lon="2.225492">
        <ele>57.055795</ele>
        <time>2023-09-06T01:22:55.777Z</time>
      </trkpt>
      <trkpt lat="48.895406" lon="2.225706">
        <ele>56.880515</ele>
        <time>2023-09-06T01:22:58.291Z</time>
      </trkpt>
      <trkpt lat="48.895244" lon="2.226224">
        <ele>56.312888</ele>
        <time>2023-09-06T01:23:05.011Z</time>
      </trkpt>
      <trkpt lat="48.895126" lon="2.226584">
        <ele>55.914829</ele>
        <time>2023-09-06T01:23:09.421Z</time>
      </trkpt>
      <trkpt lat="48.894993" lon="2.227007">
        <ele>55.450842</ele>
        <time>2023-09-06T01:23:14.072Z</time>
      </trkpt>
      <trkpt lat="48.894850" lon="2.227494">
        <ele>54.923046</ele>
        <time>2023-09-06T01:23:19.312Z</time>
      </trkpt>
      <trkpt lat="48.894848" lon="2.227547">
        <ele>54.870513</ele>
        <time>2023-09-06T01:23:19.825Z</time>
      </trkpt>
      <trkpt lat="48.894838" lon="2.227585">
        <ele>54.830009</ele>
        <time>2023-09-06T01:23:20.230Z</time>
      </trkpt>
      <trkpt lat="48.894818" lon="2.227652">
        <ele>54.757195</ele>
        <time>2023-09-06T01:23:20.932Z</time>
      </trkpt>
      <trkpt lat="48.894799" lon="2.227716">
        <ele>54.687705</ele>
        <time>2023-09-06T01:23:21.604Z</time>
      </trkpt>
      <trkpt lat="48.894786" lon="2.227761">
        <ele>54.639066</ele>
        <time>2023-09-06T01:23:22.094Z</time>
      </trkpt>
      <trkpt lat="48.894556" lon="2.227630">
        <ele>54.347432</ele>
        <time>2023-09-06T01:23:26.305Z</time>
      </trkpt>
      <trkpt lat="48.894526" lon="2.227707">
        <ele>54.358805</ele>
        <time>2023-09-06T01:23:27.254Z</time>
      </trkpt>
      <trkpt lat="48.894531" lon="2.227963">
        <ele>54.391349</ele>
        <time>2023-09-06T01:23:30.525Z</time>
      </trkpt>
      <trkpt lat="48.894686" lon="2.228702">
        <ele>54.489913</ele>
        <time>2023-09-06T01:23:40.845Z</time>
      </trkpt>
      <trkpt lat="48.894716" lon="2.228848">
        <ele>54.509349</ele>
        <time>2023-09-06T01:23:42.784Z</time>
      </trkpt>
      <trkpt lat="48.894687" lon="2.228964">
        <ele>54.525118</ele>
        <time>2023-09-06T01:23:44.924Z</time>
      </trkpt>
      <trkpt lat="48.894542" lon="2.229509">
        <ele>54.599824</ele>
        <time>2023-09-06T01:23:53.597Z</time>
      </trkpt>
      <trkpt lat="48.894438" lon="2.229727">
        <ele>54.634049</ele>
        <time>2023-09-06T01:23:57.230Z</time>
      </trkpt>
      <trkpt lat="48.894368" lon="2.229820">
        <ele>54.652012</ele>
        <time>2023-09-06T01:23:58.969Z</time>
      </trkpt>
      <trkpt lat="48.894314" lon="2.229902">
        <ele>54.666760</ele>
        <time>2023-09-06T01:24:01.036Z</time>
      </trkpt>
      <trkpt lat="48.894264" lon="2.229978">
        <ele>54.680421</ele>
        <time>2023-09-06T01:24:02.843Z</time>
      </trkpt>
      <trkpt lat="48.893937" lon="2.230977">
        <ele>56.307650</ele>
        <time>2023-09-06T01:24:26.690Z</time>
      </trkpt>
      <trkpt lat="48.893813" lon="2.231361">
        <ele>56.955568</ele>
        <time>2023-09-06T01:24:38.040Z</time>
      </trkpt>
      <trkpt lat="48.893464" lon="2.232272">
        <ele>58.552394</ele>
        <time>2023-09-06T01:25:05.883Z</time>
      </trkpt>
      <trkpt lat="48.893108" lon="2.233401">
        <ele>59.874731</ele>
        <time>2023-09-06T01:25:40.556Z</time>
      </trkpt>
      <trkpt lat="48.893023" lon="2.233583">
        <ele>60.092987</ele>
        <time>2023-09-06T01:25:46.099Z</time>
      </trkpt>
      <trkpt lat="48.892962" lon="2.233650">
        <ele>60.204872</ele>
        <time>2023-09-06T01:25:48.545Z</time>
      </trkpt>
      <trkpt lat="48.892908" lon="2.233688">
        <ele>60.293347</ele>
        <time>2023-09-06T01:25:50.602Z</time>
      </trkpt>
      <trkpt lat="48.892762" lon="2.233774">
        <ele>60.526161</ele>
        <time>2023-09-06T01:25:56.438Z</time>
      </trkpt>
      <trkpt lat="48.892665" lon="2.233817">
        <ele>60.676401</ele>
        <time>2023-09-06T01:25:59.513Z</time>
      </trkpt>
      <trkpt lat="48.892650" lon="2.233823">
        <ele>60.699464</ele>
        <time>2023-09-06T01:25:59.967Z</time>
      </trkpt>
      <trkpt lat="48.892542" lon="2.233871">
        <ele>60.866776</ele>
        <time>2023-09-06T01:26:03.477Z</time>
      </trkpt>
      <trkpt lat="48.892360" lon="2.234504">
        <ele>61.436205</ele>
        <time>2023-09-06T01:26:15.380Z</time>
      </trkpt>
      <trkpt lat="48.892375" lon="2.234578">
        <ele>61.301993</ele>
        <time>2023-09-06T01:26:16.546Z</time>
      </trkpt>
      <trkpt lat="48.891858" lon="2.236117">
        <ele>58.306618</ele>
        <time>2023-09-06T01:26:38.194Z</time>
      </trkpt>
      <trkpt lat="48.891753" lon="2.236212">
        <ele>57.984555</ele>
        <time>2023-09-06T01:26:40.489Z</time>
      </trkpt>
      <trkpt lat="48.891961" lon="2.236383">
        <ele>57.361272</ele>
        <time>2023-09-06T01:26:44.095Z</time>
      </trkpt>
      <trkpt lat="48.891841" lon="2.236774">
        <ele>56.820183</ele>
        <time>2023-09-06T01:26:48.586Z</time>
      </trkpt>
      <trkpt lat="48.891804" lon="2.236897">
        <ele>56.910721</ele>
        <time>2023-09-06T01:26:50.205Z</time>
      </trkpt>
      <trkpt lat="48.891752" lon="2.237056">
        <ele>57.029586</ele>
        <time>2023-09-06T01:26:52.194Z</time>
      </trkpt>
      <trkpt lat="48.890985" lon="2.239444">
        <ele>58.693560</ele>
        <time>2023-09-06T01:27:52.508Z</time>
      </trkpt>
      <trkpt lat="48.890875" lon="2.239822">
        <ele>58.822201</ele>
        <time>2023-09-06T01:28:01.816Z</time>
      </trkpt>
      <trkpt lat="48.890713" lon="2.240347">
        <ele>59.002681</ele>
        <time>2023-09-06T01:28:12.686Z</time>
      </trkpt>
      <trkpt lat="48.890678" lon="2.240516">
        <ele>59.057822</ele>
        <time>2023-09-06T01:28:15.331Z</time>
      </trkpt>
      <trkpt lat="48.890889" lon="2.240944">
        <ele>59.224299</ele>
        <time>2023-09-06T01:28:23.937Z</time>
      </trkpt>
      <trkpt lat="48.891133" lon="2.241519">
        <ele>59.437273</ele>
        <time>2023-09-06T01:28:33.780Z</time>
      </trkpt>
      <trkpt lat="48.890787" lon="2.242734">
        <ele>58.371479</ele>
        <time>2023-09-06T01:28:47.650Z</time>
      </trkpt>
      <trkpt lat="48.890839" lon="2.242779">
        <ele>58.296295</ele>
        <time>2023-09-06T01:28:48.981Z</time>
      </trkpt>
      <trkpt lat="48.891422" lon="2.243214">
        <ele>57.480246</ele>
        <time>2023-09-06T01:29:03.889Z</time>
      </trkpt>
      <trkpt lat="48.891499" lon="2.243331">
        <ele>57.343468</ele>
        <time>2023-09-06T01:29:05.704Z</time>
      </trkpt>
      <trkpt lat="48.891520" lon="2.243363">
        <ele>57.306112</ele>
        <time>2023-09-06T01:29:06.204Z</time>
      </trkpt>
      <trkpt lat="48.891569" lon="2.243344">
        <ele>57.242565</ele>
        <time>2023-09-06T01:29:07.005Z</time>
      </trkpt>
      <trkpt lat="48.891682" lon="2.243591">
        <ele>57.079863</ele>
        <time>2023-09-06T01:29:10.348Z</time>
      </trkpt>
      <trkpt lat="48.891817" lon="2.243912">
        <ele>56.906832</ele>
        <time>2023-09-06T01:29:14.617Z</time>
      </trkpt>
      <trkpt lat="48.891903" lon="2.244119">
        <ele>56.795643</ele>
        <time>2023-09-06T01:29:17.419Z</time>
      </trkpt>
      <trkpt lat="48.891937" lon="2.244198">
        <ele>56.752768</ele>
        <time>2023-09-06T01:29:18.514Z</time>
      </trkpt>
      <trkpt lat="48.891962" lon="2.244260">
        <ele>56.719742</ele>
        <time>2023-09-06T01:29:19.320Z</time>
      </trkpt>
      <trkpt lat="48.892099" lon="2.244585">
        <ele>56.544438</ele>
        <time>2023-09-06T01:29:23.827Z</time>
      </trkpt>
      <trkpt lat="48.892145" lon="2.244695">
        <ele>56.485241</ele>
        <time>2023-09-06T01:29:25.302Z</time>
      </trkpt>
      <trkpt lat="48.892163" lon="2.244737">
        <ele>56.462476</ele>
        <time>2023-09-06T01:29:25.854Z</time>
      </trkpt>
      <trkpt lat="48.892418" lon="2.245357">
        <ele>56.130398</ele>
        <time>2023-09-06T01:29:34.127Z</time>
      </trkpt>
      <trkpt lat="48.892490" lon="2.245531">
        <ele>56.037043</ele>
        <time>2023-09-06T01:29:36.507Z</time>
      </trkpt>
      <trkpt lat="48.892505" lon="2.245567">
        <ele>56.017690</ele>
        <time>2023-09-06T01:29:36.999Z</time>
      </trkpt>
      <trkpt lat="48.892575" lon="2.245746">
        <ele>55.946206</ele>
        <time>2023-09-06T01:29:39.447Z</time>
      </trkpt>
      <trkpt lat="48.892741" lon="2.246143">
        <ele>55.987305</ele>
        <time>2023-09-06T01:29:45.210Z</time>
      </trkpt>
      <trkpt lat="48.892776" lon="2.246227">
        <ele>55.995992</ele>
        <time>2023-09-06T01:29:46.506Z</time>
      </trkpt>
      <trkpt lat="48.893001" lon="2.246765">
        <ele>56.051690</ele>
        <time>2023-09-06T01:29:55.986Z</time>
      </trkpt>
      <trkpt lat="48.893037" lon="2.246853">
        <ele>56.060744</ele>
        <time>2023-09-06T01:29:57.609Z</time>
      </trkpt>
      <trkpt lat="48.893704" lon="2.248449">
        <ele>55.556628</ele>
        <time>2023-09-06T01:30:23.549Z</time>
      </trkpt>
      <trkpt lat="48.893990" lon="2.249136">
        <ele>54.558982</ele>
        <time>2023-09-06T01:30:31.857Z</time>
      </trkpt>
      <trkpt lat="48.894168" lon="2.249322">
        <ele>54.155976</ele>
        <time>2023-09-06T01:30:35.065Z</time>
      </trkpt>
      <trkpt lat="48.894275" lon="2.249311">
        <ele>53.955844</ele>
        <time>2023-09-06T01:30:36.642Z</time>
      </trkpt>
      <trkpt lat="48.894326" lon="2.249306">
        <ele>53.860474</ele>
        <time>2023-09-06T01:30:37.420Z</time>
      </trkpt>
      <trkpt lat="48.894539" lon="2.249374">
        <ele>53.454327</ele>
        <time>2023-09-06T01:30:40.802Z</time>
      </trkpt>
      <trkpt lat="48.894690" lon="2.249479">
        <ele>53.144491</ele>
        <time>2023-09-06T01:30:43.388Z</time>
      </trkpt>
      <trkpt lat="48.894819" lon="2.249637">
        <ele>52.835415</ele>
        <time>2023-09-06T01:30:45.947Z</time>
      </trkpt>
      <trkpt lat="48.894911" lon="2.249800">
        <ele>52.584621</ele>
        <time>2023-09-06T01:30:48.127Z</time>
      </trkpt>
      <trkpt lat="48.894996" lon="2.249946">
        <ele>52.357436</ele>
        <time>2023-09-06T01:30:50.111Z</time>
      </trkpt>
      <trkpt lat="48.895057" lon="2.250013">
        <ele>52.224112</ele>
        <time>2023-09-06T01:30:51.260Z</time>
      </trkpt>
      <trkpt lat="48.895106" lon="2.250092">
        <ele>52.097587</ele>
        <time>2023-09-06T01:30:52.366Z</time>
      </trkpt>
      <trkpt lat="48.895190" lon="2.250169">
        <ele>51.923804</ele>
        <time>2023-09-06T01:30:53.835Z</time>
      </trkpt>
      <trkpt lat="48.895428" lon="2.250406">
        <ele>51.419742</ele>
        <time>2023-09-06T01:30:58.017Z</time>
      </trkpt>
      <trkpt lat="48.895485" lon="2.250487">
        <ele>51.281521</ele>
        <time>2023-09-06T01:30:59.225Z</time>
      </trkpt>
      <trkpt lat="48.895876" lon="2.251088">
        <ele>50.296537</ele>
        <time>2023-09-06T01:31:08.065Z</time>
      </trkpt>
      <trkpt lat="48.896075" lon="2.251485">
        <ele>49.714966</ele>
        <time>2023-09-06T01:31:13.878Z</time>
      </trkpt>
      <trkpt lat="48.896266" lon="2.251891">
        <ele>49.808124</ele>
        <time>2023-09-06T01:31:20.718Z</time>
      </trkpt>
      <trkpt lat="48.896348" lon="2.252016">
        <ele>49.877560</ele>
        <time>2023-09-06T01:31:23.247Z</time>
      </trkpt>
      <trkpt lat="48.896421" lon="2.252175">
        <ele>49.953819</ele>
        <time>2023-09-06T01:31:26.254Z</time>
      </trkpt>
      <trkpt lat="48.896452" lon="2.252268">
        <ele>49.994820</ele>
        <time>2023-09-06T01:31:27.984Z</time>
      </trkpt>
      <trkpt lat="48.896361" lon="2.252339">
        <ele>50.055992</ele>
        <time>2023-09-06T01:31:30.611Z</time>
      </trkpt>
      <trkpt lat="48.896417" lon="2.252511">
        <ele>50.131465</ele>
        <time>2023-09-06T01:31:33.705Z</time>
      </trkpt>
      <trkpt lat="48.896461" lon="2.252633">
        <ele>50.186182</ele>
        <time>2023-09-06T01:31:36.121Z</time>
      </trkpt>
      <trkpt lat="48.896532" lon="2.253120">
        <ele>50.382331</ele>
        <time>2023-09-06T01:31:45.502Z</time>
      </trkpt>
      <trkpt lat="48.896674" lon="2.254743">
        <ele>50.789101</ele>
        <time>2023-09-06T01:32:09.138Z</time>
      </trkpt>
      <trkpt lat="48.896678" lon="2.254815">
        <ele>50.795961</ele>
        <time>2023-09-06T01:32:10.329Z</time>
      </trkpt>
      <trkpt lat="48.896755" lon="2.254882">
        <ele>50.808771</ele>
        <time>2023-09-06T01:32:12.567Z</time>
      </trkpt>
      <trkpt lat="48.896782" lon="2.255232">
        <ele>50.842228</ele>
        <time>2023-09-06T01:32:16.648Z</time>
      </trkpt>
      <trkpt lat="48.896825" lon="2.255399">
        <ele>50.859255</ele>
        <time>2023-09-06T01:32:19.669Z</time>
      </trkpt>
      <trkpt lat="48.896807" lon="2.255576">
        <ele>50.876260</ele>
        <time>2023-09-06T01:32:21.713Z</time>
      </trkpt>
      <trkpt lat="48.896827" lon="2.255836">
        <ele>50.901112</ele>
        <time>2023-09-06T01:32:25.055Z</time>
      </trkpt>
      <trkpt lat="48.896847" lon="2.256236">
        <ele>50.939198</ele>
        <time>2023-09-06T01:32:29.961Z</time>
      </trkpt>
      <trkpt lat="48.896854" lon="2.256372">
        <ele>50.952149</ele>
        <time>2023-09-06T01:32:32.049Z</time>
      </trkpt>
      <trkpt lat="48.896887" lon="2.256495">
        <ele>50.964761</ele>
        <time>2023-09-06T01:32:34.262Z</time>
      </trkpt>
      <trkpt lat="48.897035" lon="2.256490">
        <ele>50.905127</ele>
        <time>2023-09-06T01:32:36.867Z</time>
      </trkpt>
      <trkpt lat="48.897189" lon="2.256469">
        <ele>50.785505</ele>
        <time>2023-09-06T01:32:40.429Z</time>
      </trkpt>
      <trkpt lat="48.897573" lon="2.256523">
        <ele>50.487152</ele>
        <time>2023-09-06T01:32:47.395Z</time>
      </trkpt>
      <trkpt lat="48.897722" lon="2.256544">
        <ele>50.371383</ele>
        <time>2023-09-06T01:32:49.688Z</time>
      </trkpt>
      <trkpt lat="48.897721" lon="2.256670">
        <ele>50.307294</ele>
        <time>2023-09-06T01:32:50.942Z</time>
      </trkpt>
      <trkpt lat="48.897962" lon="2.257437">
        <ele>49.874923</ele>
        <time>2023-09-06T01:33:00.217Z</time>
      </trkpt>
      <trkpt lat="48.897973" lon="2.257467">
        <ele>49.857452</ele>
        <time>2023-09-06T01:33:00.619Z</time>
      </trkpt>
      <trkpt lat="48.898087" lon="2.257798">
        <ele>49.667399</ele>
        <time>2023-09-06T01:33:04.982Z</time>
      </trkpt>
      <trkpt lat="48.898095" lon="2.257823">
        <ele>49.653258</ele>
        <time>2023-09-06T01:33:05.338Z</time>
      </trkpt>
      <trkpt lat="48.898207" lon="2.258149">
        <ele>49.410428</ele>
        <time>2023-09-06T01:33:09.568Z</time>
      </trkpt>
      <trkpt lat="48.898572" lon="2.259264">
        <ele>48.471619</ele>
        <time>2023-09-06T01:33:23.390Z</time>
      </trkpt>
      <trkpt lat="48.898598" lon="2.259338">
        <ele>48.408379</ele>
        <time>2023-09-06T01:33:24.296Z</time>
      </trkpt>
      <trkpt lat="48.898750" lon="2.259780">
        <ele>48.032415</ele>
        <time>2023-09-06T01:33:29.563Z</time>
      </trkpt>
      <trkpt lat="48.898965" lon="2.260386">
        <ele>47.511962</ele>
        <time>2023-09-06T01:33:36.761Z</time>
      </trkpt>
      <trkpt lat="48.899064" lon="2.260642">
        <ele>47.236965</ele>
        <time>2023-09-06T01:33:39.950Z</time>
      </trkpt>
      <trkpt lat="48.899140" lon="2.260833">
        <ele>47.030249</ele>
        <time>2023-09-06T01:33:42.466Z</time>
      </trkpt>
      <trkpt lat="48.899496" lon="2.261689">
        <ele>46.092411</ele>
        <time>2023-09-06T01:33:54.095Z</time>
      </trkpt>
      <trkpt lat="48.898752" lon="2.262416">
        <ele>44.653391</ele>
        <time>2023-09-06T01:34:08.395Z</time>
      </trkpt>
      <trkpt lat="48.898294" lon="2.262879">
        <ele>42.803910</ele>
        <time>2023-09-06T01:34:16.195Z</time>
      </trkpt>
      <trkpt lat="48.898196" lon="2.262971">
        <ele>42.416602</ele>
        <time>2023-09-06T01:34:17.791Z</time>
      </trkpt>
      <trkpt lat="48.897987" lon="2.263175">
        <ele>41.581426</ele>
        <time>2023-09-06T01:34:21.224Z</time>
      </trkpt>
      <trkpt lat="48.897933" lon="2.263226">
        <ele>41.367655</ele>
        <time>2023-09-06T01:34:22.117Z</time>
      </trkpt>
      <trkpt lat="48.897822" lon="2.263340">
        <ele>40.917216</ele>
        <time>2023-09-06T01:34:23.948Z</time>
      </trkpt>
      <trkpt lat="48.897740" lon="2.263416">
        <ele>40.594273</ele>
        <time>2023-09-06T01:34:25.269Z</time>
      </trkpt>
      <trkpt lat="48.897545" lon="2.263637">
        <ele>39.776431</ele>
        <time>2023-09-06T01:34:28.649Z</time>
      </trkpt>
      <trkpt lat="48.897246" lon="2.263875">
        <ele>38.764974</ele>
        <time>2023-09-06T01:34:33.385Z</time>
      </trkpt>
      <trkpt lat="48.896959" lon="2.264151">
        <ele>38.099862</ele>
        <time>2023-09-06T01:34:38.279Z</time>
      </trkpt>
      <trkpt lat="48.896761" lon="2.264306">
        <ele>37.663666</ele>
        <time>2023-09-06T01:34:41.592Z</time>
      </trkpt>
      <trkpt lat="48.896693" lon="2.264370">
        <ele>37.507030</ele>
        <time>2023-09-06T01:34:42.798Z</time>
      </trkpt>
      <trkpt lat="48.896650" lon="2.264407">
        <ele>37.410257</ele>
        <time>2023-09-06T01:34:43.521Z</time>
      </trkpt>
      <trkpt lat="48.896510" lon="2.264527">
        <ele>37.095479</ele>
        <time>2023-09-06T01:34:45.941Z</time>
      </trkpt>
      <trkpt lat="48.895745" lon="2.265311">
        <ele>35.352287</ele>
        <time>2023-09-06T01:35:01.430Z</time>
      </trkpt>
      <trkpt lat="48.895362" lon="2.265696">
        <ele>34.909741</ele>
        <time>2023-09-06T01:35:10.573Z</time>
      </trkpt>
      <trkpt lat="48.895318" lon="2.265740">
        <ele>34.858980</ele>
        <time>2023-09-06T01:35:11.605Z</time>
      </trkpt>
      <trkpt lat="48.895227" lon="2.265668">
        <ele>34.760099</ele>
        <time>2023-09-06T01:35:13.555Z</time>
      </trkpt>
      <trkpt lat="48.895141" lon="2.265568">
        <ele>34.655747</ele>
        <time>2023-09-06T01:35:15.632Z</time>
      </trkpt>
      <trkpt lat="48.895049" lon="2.265375">
        <ele>34.504663</ele>
        <time>2023-09-06T01:35:18.765Z</time>
      </trkpt>
      <trkpt lat="48.894756" lon="2.264762">
        <ele>34.024343</ele>
        <time>2023-09-06T01:35:27.572Z</time>
      </trkpt>
      <trkpt lat="48.894368" lon="2.264125">
        <ele>33.200759</ele>
        <time>2023-09-06T01:35:36.949Z</time>
      </trkpt>
      <trkpt lat="48.893960" lon="2.263455">
        <ele>31.854788</ele>
        <time>2023-09-06T01:35:46.306Z</time>
      </trkpt>
      <trkpt lat="48.893750" lon="2.263171">
        <ele>31.224851</ele>
        <time>2023-09-06T01:35:50.666Z</time>
      </trkpt>
      <trkpt lat="48.893279" lon="2.262539">
        <ele>29.816846</ele>
        <time>2023-09-06T01:36:00.298Z</time>
      </trkpt>
      <trkpt lat="48.892778" lon="2.262134">
        <ele>29.648064</ele>
        <time>2023-09-06T01:36:09.613Z</time>
      </trkpt>
      <trkpt lat="48.892601" lon="2.262034">
        <ele>29.648064</ele>
        <time>2023-09-06T01:36:12.887Z</time>
      </trkpt>
      <trkpt lat="48.892357" lon="2.262301">
        <ele>29.648064</ele>
        <time>2023-09-06T01:36:18.624Z</time>
      </trkpt>
      <trkpt lat="48.892290" lon="2.262410">
        <ele>29.648064</ele>
        <time>2023-09-06T01:36:20.481Z</time>
      </trkpt>
      <trkpt lat="48.892262" lon="2.262468">
        <ele>29.648064</ele>
        <time>2023-09-06T01:36:21.420Z</time>
      </trkpt>
      <trkpt lat="48.892262" lon="2.262468">
        <ele>29.648064</ele>
        <time>2023-09-06T01:36:21.432Z</time>
      </trkpt>
      <trkpt lat="48.891600" lon="2.261847">
        <ele>29.648064</ele>
        <time>2023-09-06T01:36:54.696Z</time>
      </trkpt>
    </trkseg>
  </trk>
</gpx>